Wetterdaten: Freitag, 09.12.2016
Datum Zeit Temp. A. Feuchte A. Luftdruck Regen Wind Richtung Richtung Sonnenschein ET UV Solar Taupunkt Windchill Windben Empfang
09.12.2016 00:00 -2,4 C 98 % 1033,4 hPa 0,0 l/m 0,5 km/h (0 Bft) W-SW 238 0 min 0,000 mm 0,0 UV-I 0 W/m -2,7 C -2,4 C 1,6 km/h (1 Bft) 100,00 %
09.12.2016 00:02 -2,4 C 98 % 1033,4 hPa 0,0 l/m 0,1 km/h (0 Bft) W-SW 238 0 min 0,000 mm 0,0 UV-I 0 W/m -2,7 C -2,4 C 1,6 km/h (1 Bft) 100,00 %
09.12.2016 00:04 -2,4 C 98 % 1033,3 hPa 0,0 l/m 0,0 km/h (0 Bft) W-SW 238 0 min 0,000 mm 0,0 UV-I 0 W/m -2,7 C -2,4 C 0,0 km/h (0 Bft) 100,00 %
09.12.2016 00:06 -2,4 C 98 % 1033,1 hPa 0,0 l/m 0,0 km/h (0 Bft) W-SW 238 0 min 0,000 mm 0,0 UV-I 0 W/m -2,7 C -2,4 C 0,0 km/h (0 Bft) 100,00 %
09.12.2016 00:08 -2,4 C 98 % 1033,2 hPa 0,0 l/m 0,0 km/h (0 Bft) W-SW 238 0 min 0,000 mm 0,0 UV-I 0 W/m -2,7 C -2,4 C 0,0 km/h (0 Bft) 100,00 %
09.12.2016 00:10 -2,4 C 98 % 1033,2 hPa 0,0 l/m 0,0 km/h (0 Bft) W-SW 238 0 min 0,000 mm 0,0 UV-I 0 W/m -2,7 C -2,4 C 0,0 km/h (0 Bft) 97,87 %
09.12.2016 00:12 -2,4 C 98 % 1033,2 hPa 0,0 l/m 0,0 km/h (0 Bft) W-SW 238 0 min 0,000 mm 0,0 UV-I 0 W/m -2,7 C -2,4 C 0,0 km/h (0 Bft) 100,00 %
09.12.2016 00:14 -2,4 C 98 % 1033,1 hPa 0,0 l/m 0,0 km/h (0 Bft) W-SW 238 0 min 0,000 mm 0,0 UV-I 0 W/m -2,7 C -2,4 C 0,0 km/h (0 Bft) 98,00 %
09.12.2016 00:16 -2,4 C 98 % 1033,1 hPa 0,0 l/m 0,0 km/h (0 Bft) W-SW 238 0 min 0,000 mm 0,0 UV-I 0 W/m -2,7 C -2,4 C 0,0 km/h (0 Bft) 97,87 %
09.12.2016 00:18 -2,4 C 98 % 1033,1 hPa 0,0 l/m 0,0 km/h (0 Bft) W-SW 238 0 min 0,000 mm 0,0 UV-I 0 W/m -2,7 C -2,4 C 0,0 km/h (0 Bft) 97,87 %
09.12.2016 00:20 -2,4 C 98 % 1033,1 hPa 0,0 l/m 0,0 km/h (0 Bft) W-SW 238 0 min 0,000 mm 0,0 UV-I 0 W/m -2,7 C -2,4 C 0,0 km/h (0 Bft) 95,74 %
09.12.2016 00:22 -2,4 C 98 % 1033,2 hPa 0,0 l/m 0,0 km/h (0 Bft) W-SW 238 0 min 0,000 mm 0,0 UV-I 0 W/m -2,7 C -2,4 C 0,0 km/h (0 Bft) 97,87 %
09.12.2016 00:24 -2,4 C 98 % 1033,1 hPa 0,0 l/m 0,0 km/h (0 Bft) W-SW 238 0 min 0,000 mm 0,0 UV-I 0 W/m -2,7 C -2,4 C 0,0 km/h (0 Bft) 97,87 %
09.12.2016 00:26 -2,4 C 98 % 1033,1 hPa 0,0 l/m 0,0 km/h (0 Bft) W-SW 238 0 min 0,000 mm 0,0 UV-I 0 W/m -2,7 C -2,4 C 0,0 km/h (0 Bft) 97,92 %
09.12.2016 00:28 -2,4 C 98 % 1033,1 hPa 0,0 l/m 0,0 km/h (0 Bft) W-SW 238 0 min 0,000 mm 0,0 UV-I 0 W/m -2,7 C -2,4 C 0,0 km/h (0 Bft) 97,87 %
09.12.2016 00:30 -2,4 C 98 % 1033,2 hPa 0,0 l/m 0,0 km/h (0 Bft) W-SW 238 0 min 0,000 mm 0,0 UV-I 0 W/m -2,7 C -2,4 C 0,0 km/h (0 Bft) 97,87 %
09.12.2016 00:32 -2,4 C 98 % 1033,1 hPa 0,0 l/m 0,0 km/h (0 Bft) W-SW 238 0 min 0,000 mm 0,0 UV-I 0 W/m -2,7 C -2,4 C 0,0 km/h (0 Bft) 97,87 %
09.12.2016 00:34 -2,4 C 98 % 1033,1 hPa 0,0 l/m 0,0 km/h (0 Bft) W-SW 238 0 min 0,000 mm 0,0 UV-I 0 W/m -2,7 C -2,4 C 0,0 km/h (0 Bft) 97,56 %
09.12.2016 00:36 -2,4 C 98 % 1033,1 hPa 0,0 l/m 0,4 km/h (0 Bft) W-SW 238 0 min 0,000 mm 0,0 UV-I 0 W/m -2,7 C -2,4 C 1,6 km/h (1 Bft) 98,00 %
09.12.2016 00:38 -2,3 C 98 % 1033,1 hPa 0,0 l/m 0,0 km/h (0 Bft) W-SW 238 0 min 0,000 mm 0,0 UV-I 0 W/m -2,6 C -2,3 C 1,6 km/h (1 Bft) 93,62 %
09.12.2016 00:40 -2,3 C 98 % 1033,1 hPa 0,0 l/m 0,4 km/h (0 Bft) W-SW 238 0 min 0,000 mm 0,0 UV-I 0 W/m -2,6 C -2,3 C 1,6 km/h (1 Bft) 98,00 %
09.12.2016 00:42 -2,3 C 98 % 1033,2 hPa 0,0 l/m 0,7 km/h (0 Bft) W-SW 238 0 min 0,000 mm 0,0 UV-I 0 W/m -2,6 C -2,3 C 3,2 km/h (1 Bft) 97,37 %
09.12.2016 00:44 -2,3 C 98 % 1033,1 hPa 0,0 l/m 0,2 km/h (0 Bft) W-SW 238 0 min 0,000 mm 0,0 UV-I 0 W/m -2,6 C -2,3 C 1,6 km/h (1 Bft) 98,00 %
09.12.2016 00:46 -2,3 C 98 % 1033,1 hPa 0,0 l/m 0,0 km/h (0 Bft) W-SW 238 0 min 0,000 mm 0,0 UV-I 0 W/m -2,6 C -2,3 C 0,0 km/h (0 Bft) 98,00 %
09.12.2016 00:48 -2,3 C 98 % 1033,1 hPa 0,0 l/m 0,0 km/h (0 Bft) W-SW 238 0 min 0,000 mm 0,0 UV-I 0 W/m -2,6 C -2,3 C 1,6 km/h (1 Bft) 96,00 %
09.12.2016 00:50 -2,3 C 98 % 1033,0 hPa 0,0 l/m 0,0 km/h (0 Bft) W-SW 238 0 min 0,000 mm 0,0 UV-I 0 W/m -2,6 C -2,3 C 1,6 km/h (1 Bft) 100,00 %
09.12.2016 00:52 -2,3 C 98 % 1032,9 hPa 0,0 l/m 0,0 km/h (0 Bft) W-SW 238 0 min 0,000 mm 0,0 UV-I 0 W/m -2,6 C -2,3 C 0,0 km/h (0 Bft) 100,00 %
09.12.2016 00:54 -2,3 C 98 % 1033,0 hPa 0,0 l/m 0,0 km/h (0 Bft) W-SW 238 0 min 0,000 mm 0,0 UV-I 0 W/m -2,6 C -2,3 C 0,0 km/h (0 Bft) 100,00 %
09.12.2016 00:56 -2,3 C 98 % 1033,0 hPa 0,0 l/m 0,0 km/h (0 Bft) W-SW 238 0 min 0,000 mm 0,0 UV-I 0 W/m -2,6 C -2,3 C 0,0 km/h (0 Bft) 100,00 %
09.12.2016 00:58 -2,3 C 98 % 1033,0 hPa 0,0 l/m 0,2 km/h (0 Bft) W-SW 238 0 min 0,000 mm 0,0 UV-I 0 W/m -2,6 C -2,3 C 1,6 km/h (1 Bft) 100,00 %
09.12.2016 01:00 -2,2 C 98 % 1033,0 hPa 0,0 l/m 0,0 km/h (0 Bft) W-SW 238 0 min 0,000 mm 0,0 UV-I 0 W/m -2,5 C -2,2 C 0,0 km/h (0 Bft) 100,00 %
09.12.2016 01:02 -2,2 C 98 % 1033,0 hPa 0,0 l/m 0,0 km/h (0 Bft) W-SW 238 0 min 0,000 mm 0,0 UV-I 0 W/m -2,5 C -2,2 C 0,0 km/h (0 Bft) 100,00 %
09.12.2016 01:04 -2,2 C 98 % 1032,9 hPa 0,0 l/m 0,0 km/h (0 Bft) W-SW 238 0 min 0,000 mm 0,0 UV-I 0 W/m -2,5 C -2,2 C 0,0 km/h (0 Bft) 100,00 %
09.12.2016 01:06 -2,2 C 98 % 1032,8 hPa 0,0 l/m 0,1 km/h (0 Bft) W-SW 238 0 min 0,000 mm 0,0 UV-I 0 W/m -2,5 C -2,2 C 1,6 km/h (1 Bft) 97,87 %
09.12.2016 01:08 -2,2 C 98 % 1032,8 hPa 0,0 l/m 0,7 km/h (0 Bft) W-SW 238 0 min 0,000 mm 0,0 UV-I 0 W/m -2,5 C -2,2 C 1,6 km/h (1 Bft) 100,00 %
09.12.2016 01:10 -2,2 C 98 % 1032,7 hPa 0,0 l/m 0,4 km/h (0 Bft) W-SW 238 0 min 0,000 mm 0,0 UV-I 0 W/m -2,5 C -2,2 C 1,6 km/h (1 Bft) 100,00 %
09.12.2016 01:12 -2,2 C 98 % 1032,7 hPa 0,0 l/m 0,0 km/h (0 Bft) W-SW 238 0 min 0,000 mm 0,0 UV-I 0 W/m -2,5 C -2,2 C 0,0 km/h (0 Bft) 100,00 %
09.12.2016 01:14 -2,2 C 98 % 1032,7 hPa 0,0 l/m 0,2 km/h (0 Bft) W-SW 238 0 min 0,000 mm 0,0 UV-I 0 W/m -2,5 C -2,2 C 1,6 km/h (1 Bft) 100,00 %
09.12.2016 01:16 -2,2 C 98 % 1032,7 hPa 0,0 l/m 0,0 km/h (0 Bft) W-SW 238 0 min 0,000 mm 0,0 UV-I 0 W/m -2,5 C -2,2 C 0,0 km/h (0 Bft) 97,87 %
09.12.2016 01:18 -2,2 C 98 % 1032,6 hPa 0,0 l/m 0,7 km/h (0 Bft) W-SW 238 0 min 0,000 mm 0,0 UV-I 0 W/m -2,5 C -2,2 C 1,6 km/h (1 Bft) 100,00 %
09.12.2016 01:20 -2,2 C 98 % 1032,5 hPa 0,0 l/m 1,2 km/h (1 Bft) W-SW 238 0 min 0,000 mm 0,0 UV-I 0 W/m -2,5 C -2,2 C 3,2 km/h (1 Bft) 100,00 %
09.12.2016 01:22 -2,2 C 98 % 1032,6 hPa 0,0 l/m 0,3 km/h (0 Bft) W-SW 238 0 min 0,000 mm 0,0 UV-I 0 W/m -2,5 C -2,2 C 1,6 km/h (1 Bft) 97,87 %
09.12.2016 01:24 -2,2 C 98 % 1032,6 hPa 0,0 l/m 0,3 km/h (0 Bft) W-SW 238 0 min 0,000 mm 0,0 UV-I 0 W/m -2,5 C -2,2 C 1,6 km/h (1 Bft) 100,00 %
09.12.2016 01:26 -2,2 C 98 % 1032,6 hPa 0,0 l/m 0,4 km/h (0 Bft) W-SW 238 0 min 0,000 mm 0,0 UV-I 0 W/m -2,5 C -2,2 C 3,2 km/h (1 Bft) 100,00 %
09.12.2016 01:28 -2,2 C 98 % 1032,6 hPa 0,0 l/m 2,3 km/h (1 Bft) W-SW 238 0 min 0,000 mm 0,0 UV-I 0 W/m -2,5 C -2,2 C 3,2 km/h (1 Bft) 98,11 %
09.12.2016 01:30 -2,1 C 98 % 1032,6 hPa 0,0 l/m 0,7 km/h (0 Bft) SW 220 0 min 0,000 mm 0,0 UV-I 0 W/m -2,4 C -2,1 C 3,2 km/h (1 Bft) 100,00 %
09.12.2016 01:32 -2,1 C 98 % 1032,6 hPa 0,0 l/m 2,5 km/h (1 Bft) S-SW 192 0 min 0,000 mm 0,0 UV-I 0 W/m -2,4 C -2,1 C 3,2 km/h (1 Bft) 100,00 %
09.12.2016 01:34 -2,1 C 98 % 1032,7 hPa 0,0 l/m 3,3 km/h (1 Bft) S-SW 192 0 min 0,000 mm 0,0 UV-I 0 W/m -2,4 C -2,1 C 4,8 km/h (1 Bft) 100,00 %
09.12.2016 01:36 -2,1 C 98 % 1032,7 hPa 0,0 l/m 3,6 km/h (1 Bft) S-SW 192 0 min 0,000 mm 0,0 UV-I 0 W/m -2,4 C -2,1 C 4,8 km/h (1 Bft) 100,00 %
09.12.2016 01:38 -2,1 C 98 % 1032,9 hPa 0,0 l/m 3,1 km/h (1 Bft) S-SW 192 0 min 0,000 mm 0,0 UV-I 0 W/m -2,4 C -2,1 C 4,8 km/h (1 Bft) 100,00 %
09.12.2016 01:40 -2,1 C 98 % 1033,0 hPa 0,0 l/m 2,8 km/h (1 Bft) S-SW 208 0 min 0,000 mm 0,0 UV-I 0 W/m -2,4 C -2,1 C 4,8 km/h (1 Bft) 98,00 %
09.12.2016 01:42 -2,0 C 98 % 1033,0 hPa 0,0 l/m 2,6 km/h (1 Bft) S-SW 208 0 min 0,000 mm 0,0 UV-I 0 W/m -2,3 C -2,0 C 4,8 km/h (1 Bft) 100,00 %
09.12.2016 01:44 -2,0 C 98 % 1033,1 hPa 0,0 l/m 2,6 km/h (1 Bft) S-SW 208 0 min 0,000 mm 0,0 UV-I 0 W/m -2,3 C -2,0 C 4,8 km/h (1 Bft) 100,00 %
09.12.2016 01:46 -2,0 C 98 % 1033,2 hPa 0,0 l/m 2,6 km/h (1 Bft) S-SW 208 0 min 0,000 mm 0,0 UV-I 0 W/m -2,3 C -2,0 C 4,8 km/h (1 Bft) 97,87 %
09.12.2016 01:48 -2,0 C 98 % 1033,2 hPa 0,0 l/m 3,4 km/h (1 Bft) S-SW 208 0 min 0,000 mm 0,0 UV-I 0 W/m -2,3 C -2,0 C 6,4 km/h (2 Bft) 100,00 %
09.12.2016 01:50 -2,1 C 98 % 1033,2 hPa 0,0 l/m 2,5 km/h (1 Bft) S-SW 208 0 min 0,000 mm 0,0 UV-I 0 W/m -2,4 C -2,1 C 3,2 km/h (1 Bft) 100,00 %
09.12.2016 01:52 -2,1 C 98 % 1033,1 hPa 0,0 l/m 2,7 km/h (1 Bft) S-SW 208 0 min 0,000 mm 0,0 UV-I 0 W/m -2,4 C -2,1 C 4,8 km/h (1 Bft) 100,00 %
09.12.2016 01:54 -2,1 C 98 % 1032,9 hPa 0,0 l/m 1,9 km/h (1 Bft) S-SW 208 0 min 0,000 mm 0,0 UV-I 0 W/m -2,4 C -2,1 C 3,2 km/h (1 Bft) 100,00 %
09.12.2016 01:56 -2,1 C 98 % 1032,9 hPa 0,0 l/m 2,8 km/h (1 Bft) S-SW 193 0 min 0,000 mm 0,0 UV-I 0 W/m -2,4 C -2,1 C 4,8 km/h (1 Bft) 100,00 %
09.12.2016 01:58 -2,1 C 98 % 1032,9 hPa 0,0 l/m 3,2 km/h (1 Bft) S-SW 193 0 min 0,000 mm 0,0 UV-I 0 W/m -2,4 C -2,1 C 4,8 km/h (1 Bft) 100,00 %
09.12.2016 02:00 -2,1 C 98 % 1032,9 hPa 0,0 l/m 4,0 km/h (1 Bft) SW 220 0 min 0,000 mm 0,0 UV-I 0 W/m -2,4 C -2,1 C 4,8 km/h (1 Bft) 100,00 %
09.12.2016 02:02 -2,2 C 98 % 1032,9 hPa 0,0 l/m 4,4 km/h (1 Bft) SW 219 0 min 0,000 mm 0,0 UV-I 0 W/m -2,5 C -2,2 C 6,4 km/h (2 Bft) 100,00 %
09.12.2016 02:04 -2,2 C 98 % 1032,9 hPa 0,0 l/m 3,0 km/h (1 Bft) SW 219 0 min 0,000 mm 0,0 UV-I 0 W/m -2,5 C -2,2 C 4,8 km/h (1 Bft) 100,00 %
09.12.2016 02:06 -2,2 C 98 % 1032,8 hPa 0,0 l/m 2,5 km/h (1 Bft) SW 219 0 min 0,000 mm 0,0 UV-I 0 W/m -2,5 C -2,2 C 3,2 km/h (1 Bft) 100,00 %
09.12.2016 02:08 -2,2 C 98 % 1032,9 hPa 0,0 l/m 1,2 km/h (1 Bft) SW 219 0 min 0,000 mm 0,0 UV-I 0 W/m -2,5 C -2,2 C 3,2 km/h (1 Bft) 100,00 %
09.12.2016 02:10 -2,2 C 98 % 1032,9 hPa 0,0 l/m 1,6 km/h (1 Bft) SW 219 0 min 0,000 mm 0,0 UV-I 0 W/m -2,5 C -2,2 C 3,2 km/h (1 Bft) 100,00 %
09.12.2016 02:12 -2,2 C 98 % 1032,8 hPa 0,0 l/m 0,8 km/h (0 Bft) SW 219 0 min 0,000 mm 0,0 UV-I 0 W/m -2,5 C -2,2 C 3,2 km/h (1 Bft) 98,00 %
09.12.2016 02:14 -2,3 C 98 % 1032,9 hPa 0,0 l/m 0,0 km/h (0 Bft) SW 219 0 min 0,000 mm 0,0 UV-I 0 W/m -2,6 C -2,3 C 0,0 km/h (0 Bft) 100,00 %
09.12.2016 02:16 -2,3 C 98 % 1032,9 hPa 0,0 l/m 0,1 km/h (0 Bft) SW 219 0 min 0,000 mm 0,0 UV-I 0 W/m -2,6 C -2,3 C 1,6 km/h (1 Bft) 100,00 %
09.12.2016 02:18 -2,3 C 98 % 1032,9 hPa 0,0 l/m 0,0 km/h (0 Bft) SW 219 0 min 0,000 mm 0,0 UV-I 0 W/m -2,6 C -2,3 C 1,6 km/h (1 Bft) 97,37 %
09.12.2016 02:20 -2,4 C 98 % 1032,9 hPa 0,0 l/m 0,0 km/h (0 Bft) SW 219 0 min 0,000 mm 0,0 UV-I 0 W/m -2,7 C -2,4 C 0,0 km/h (0 Bft) 97,92 %
09.12.2016 02:22 -2,4 C 98 % 1032,8 hPa 0,0 l/m 0,9 km/h (0 Bft) SW 219 0 min 0,000 mm 0,0 UV-I 0 W/m -2,7 C -2,4 C 3,2 km/h (1 Bft) 93,88 %
09.12.2016 02:24 -2,4 C 98 % 1032,9 hPa 0,0 l/m 1,3 km/h (1 Bft) SW 219 0 min 0,000 mm 0,0 UV-I 0 W/m -2,7 C -2,4 C 3,2 km/h (1 Bft) 98,11 %
09.12.2016 02:26 -2,5 C 98 % 1032,8 hPa 0,0 l/m 0,1 km/h (0 Bft) SW 219 0 min 0,000 mm 0,0 UV-I 0 W/m -2,8 C -2,5 C 1,6 km/h (1 Bft) 94,87 %
09.12.2016 02:28 -2,5 C 98 % 1032,8 hPa 0,0 l/m 0,5 km/h (0 Bft) SW 218 0 min 0,000 mm 0,0 UV-I 0 W/m -2,8 C -2,5 C 1,6 km/h (1 Bft) 97,87 %
09.12.2016 02:30 -2,5 C 98 % 1032,8 hPa 0,0 l/m 1,9 km/h (1 Bft) S 188 0 min 0,000 mm 0,0 UV-I 0 W/m -2,8 C -2,5 C 3,2 km/h (1 Bft) 98,11 %
09.12.2016 02:32 -2,5 C 98 % 1032,9 hPa 0,0 l/m 0,4 km/h (0 Bft) S 188 0 min 0,000 mm 0,0 UV-I 0 W/m -2,8 C -2,5 C 1,6 km/h (1 Bft) 97,37 %
09.12.2016 02:34 -2,5 C 98 % 1032,9 hPa 0,0 l/m 0,6 km/h (0 Bft) S 188 0 min 0,000 mm 0,0 UV-I 0 W/m -2,8 C -2,5 C 3,2 km/h (1 Bft) 97,87 %
09.12.2016 02:36 -2,5 C 98 % 1033,0 hPa 0,0 l/m 1,8 km/h (1 Bft) S 188 0 min 0,000 mm 0,0 UV-I 0 W/m -2,8 C -2,5 C 3,2 km/h (1 Bft) 94,34 %
09.12.2016 02:38 -2,5 C 98 % 1032,9 hPa 0,0 l/m 2,7 km/h (1 Bft) S 188 0 min 0,000 mm 0,0 UV-I 0 W/m -2,8 C -2,5 C 3,2 km/h (1 Bft) 96,00 %
09.12.2016 02:40 -2,6 C 98 % 1032,8 hPa 0,0 l/m 2,3 km/h (1 Bft) S 188 0 min 0,000 mm 0,0 UV-I 0 W/m -2,9 C -2,6 C 3,2 km/h (1 Bft) 97,56 %
09.12.2016 02:42 -2,6 C 98 % 1032,7 hPa 0,0 l/m 1,3 km/h (1 Bft) S 185 0 min 0,000 mm 0,0 UV-I 0 W/m -2,9 C -2,6 C 3,2 km/h (1 Bft) 96,00 %
09.12.2016 02:44 -2,6 C 98 % 1032,6 hPa 0,0 l/m 2,2 km/h (1 Bft) S 180 0 min 0,000 mm 0,0 UV-I 0 W/m -2,9 C -2,6 C 3,2 km/h (1 Bft) 98,00 %
09.12.2016 02:46 -2,6 C 98 % 1032,5 hPa 0,0 l/m 1,6 km/h (1 Bft) S 174 0 min 0,000 mm 0,0 UV-I 0 W/m -2,9 C -2,6 C 3,2 km/h (1 Bft) 94,29 %
09.12.2016 02:48 -2,5 C 98 % 1032,4 hPa 0,0 l/m 3,0 km/h (1 Bft) S 171 0 min 0,000 mm 0,0 UV-I 0 W/m -2,8 C -2,5 C 6,4 km/h (2 Bft) 96,23 %
09.12.2016 02:50 -2,4 C 98 % 1032,3 hPa 0,0 l/m 4,2 km/h (1 Bft) S 179 0 min 0,000 mm 0,0 UV-I 0 W/m -2,7 C -2,4 C 6,4 km/h (2 Bft) 97,56 %
09.12.2016 02:52 -2,4 C 98 % 1032,3 hPa 0,0 l/m 3,1 km/h (1 Bft) S-SW 201 0 min 0,000 mm 0,0 UV-I 0 W/m -2,7 C -2,4 C 8,0 km/h (2 Bft) 98,11 %
09.12.2016 02:54 -2,3 C 98 % 1032,3 hPa 0,0 l/m 3,2 km/h (1 Bft) S 177 0 min 0,000 mm 0,0 UV-I 0 W/m -2,6 C -2,3 C 4,8 km/h (1 Bft) 100,00 %
09.12.2016 02:56 -2,3 C 98 % 1032,2 hPa 0,0 l/m 4,4 km/h (1 Bft) S-SW 203 0 min 0,000 mm 0,0 UV-I 0 W/m -2,6 C -2,3 C 8,0 km/h (2 Bft) 100,00 %
09.12.2016 02:58 -2,2 C 98 % 1032,2 hPa 0,0 l/m 4,9 km/h (1 Bft) S-SW 201 0 min 0,000 mm 0,0 UV-I 0 W/m -2,5 C -2,2 C 9,7 km/h (2 Bft) 100,00 %
09.12.2016 03:00 -2,2 C 98 % 1032,2 hPa 0,0 l/m 4,3 km/h (1 Bft) S 191 0 min 0,000 mm 0,0 UV-I 0 W/m -2,5 C -2,2 C 6,4 km/h (2 Bft) 100,00 %
09.12.2016 03:02 -2,2 C 98 % 1032,3 hPa 0,0 l/m 4,7 km/h (1 Bft) S-SW 205 0 min 0,000 mm 0,0 UV-I 0 W/m -2,5 C -2,2 C 8,0 km/h (2 Bft) 100,00 %
09.12.2016 03:04 -2,2 C 98 % 1032,3 hPa 0,0 l/m 6,1 km/h (2 Bft) S 178 0 min 0,000 mm 0,0 UV-I 0 W/m -2,5 C -2,2 C 8,0 km/h (2 Bft) 100,00 %
09.12.2016 03:06 -2,2 C 98 % 1032,2 hPa 0,0 l/m 3,8 km/h (1 Bft) S 186 0 min 0,000 mm 0,0 UV-I 0 W/m -2,5 C -2,2 C 6,4 km/h (2 Bft) 100,00 %
09.12.2016 03:08 -2,1 C 98 % 1032,2 hPa 0,0 l/m 2,3 km/h (1 Bft) S 177 0 min 0,000 mm 0,0 UV-I 0 W/m -2,4 C -2,1 C 4,8 km/h (1 Bft) 98,11 %
09.12.2016 03:10 -2,1 C 98 % 1032,2 hPa 0,0 l/m 2,8 km/h (1 Bft) S 178 0 min 0,000 mm 0,0 UV-I 0 W/m -2,4 C -2,1 C 4,8 km/h (1 Bft) 100,00 %
09.12.2016 03:12 -2,1 C 98 % 1032,1 hPa 0,0 l/m 2,7 km/h (1 Bft) S 189 0 min 0,000 mm 0,0 UV-I 0 W/m -2,4 C -2,1 C 4,8 km/h (1 Bft) 100,00 %
09.12.2016 03:14 -2,1 C 98 % 1032,1 hPa 0,0 l/m 2,4 km/h (1 Bft) S 186 0 min 0,000 mm 0,0 UV-I 0 W/m -2,4 C -2,1 C 4,8 km/h (1 Bft) 100,00 %
09.12.2016 03:16 -2,2 C 98 % 1032,2 hPa 0,0 l/m 3,1 km/h (1 Bft) S-SW 196 0 min 0,000 mm 0,0 UV-I 0 W/m -2,5 C -2,2 C 4,8 km/h (1 Bft) 100,00 %
09.12.2016 03:19 -2,2 C 98 % 1032,3 hPa 0,0 l/m 3,0 km/h (1 Bft) SW 225 0 min 0,000 mm 0,0 UV-I 0 W/m -2,5 C -2,2 C 6,4 km/h (2 Bft) 100,00 %
09.12.2016 03:20 -2,1 C 98 % 1032,3 hPa 0,0 l/m 2,7 km/h (1 Bft) SW 225 0 min 0,000 mm 0,0 UV-I 0 W/m -2,4 C -2,1 C 3,2 km/h (1 Bft) 100,00 %
09.12.2016 03:22 -2,2 C 98 % 1032,3 hPa 0,0 l/m 3,3 km/h (1 Bft) SW 225 0 min 0,000 mm 0,0 UV-I 0 W/m -2,5 C -2,2 C 4,8 km/h (1 Bft) 98,11 %
09.12.2016 03:24 -2,2 C 98 % 1032,3 hPa 0,0 l/m 3,9 km/h (1 Bft) SW 217 0 min 0,000 mm 0,0 UV-I 0 W/m -2,5 C -2,2 C 6,4 km/h (2 Bft) 100,00 %
09.12.2016 03:26 -2,3 C 98 % 1032,3 hPa 0,0 l/m 2,2 km/h (1 Bft) SW 217 0 min 0,000 mm 0,0 UV-I 0 W/m -2,6 C -2,3 C 4,8 km/h (1 Bft) 98,31 %
09.12.2016 03:28 -2,3 C 98 % 1032,3 hPa 0,0 l/m 1,4 km/h (1 Bft) SW 217 0 min 0,000 mm 0,0 UV-I 0 W/m -2,6 C -2,3 C 3,2 km/h (1 Bft) 98,00 %
09.12.2016 03:30 -2,4 C 98 % 1032,3 hPa 0,0 l/m 0,9 km/h (0 Bft) S-SW 194 0 min 0,000 mm 0,0 UV-I 0 W/m -2,7 C -2,4 C 3,2 km/h (1 Bft) 98,00 %
09.12.2016 03:32 -2,4 C 98 % 1032,3 hPa 0,0 l/m 0,3 km/h (0 Bft) S-SW 194 0 min 0,000 mm 0,0 UV-I 0 W/m -2,7 C -2,4 C 1,6 km/h (1 Bft) 100,00 %
09.12.2016 03:34 -2,3 C 98 % 1032,4 hPa 0,0 l/m 0,0 km/h (0 Bft) S-SW 194 0 min 0,000 mm 0,0 UV-I 0 W/m -2,6 C -2,3 C 0,0 km/h (0 Bft) 100,00 %
09.12.2016 03:36 -2,3 C 98 % 1032,4 hPa 0,0 l/m 1,2 km/h (1 Bft) S-SW 199 0 min 0,000 mm 0,0 UV-I 0 W/m -2,6 C -2,3 C 3,2 km/h (1 Bft) 100,00 %
09.12.2016 03:38 -2,3 C 98 % 1032,3 hPa 0,0 l/m 0,2 km/h (0 Bft) S-SW 199 0 min 0,000 mm 0,0 UV-I 0 W/m -2,6 C -2,3 C 1,6 km/h (1 Bft) 100,00 %
09.12.2016 03:40 -2,2 C 98 % 1032,2 hPa 0,0 l/m 0,3 km/h (0 Bft) S-SW 199 0 min 0,000 mm 0,0 UV-I 0 W/m -2,5 C -2,2 C 3,2 km/h (1 Bft) 100,00 %
09.12.2016 03:42 -2,2 C 98 % 1032,2 hPa 0,0 l/m 2,4 km/h (1 Bft) S-SW 204 0 min 0,000 mm 0,0 UV-I 0 W/m -2,5 C -2,2 C 4,8 km/h (1 Bft) 98,00 %
09.12.2016 03:44 -2,2 C 98 % 1032,3 hPa 0,0 l/m 3,0 km/h (1 Bft) SW 233 0 min 0,000 mm 0,0 UV-I 0 W/m -2,5 C -2,2 C 4,8 km/h (1 Bft) 100,00 %
09.12.2016 03:46 -2,2 C 98 % 1032,2 hPa 0,0 l/m 2,4 km/h (1 Bft) SW 233 0 min 0,000 mm 0,0 UV-I 0 W/m -2,5 C -2,2 C 4,8 km/h (1 Bft) 97,87 %
09.12.2016 03:48 -2,2 C 98 % 1032,2 hPa 0,0 l/m 1,9 km/h (1 Bft) SW 232 0 min 0,000 mm 0,0 UV-I 0 W/m -2,5 C -2,2 C 3,2 km/h (1 Bft) 100,00 %
09.12.2016 03:50 -2,2 C 98 % 1032,2 hPa 0,0 l/m 1,0 km/h (0 Bft) SW 231 0 min 0,000 mm 0,0 UV-I 0 W/m -2,5 C -2,2 C 3,2 km/h (1 Bft) 100,00 %
09.12.2016 03:52 -2,2 C 98 % 1032,3 hPa 0,0 l/m 0,4 km/h (0 Bft) SW 231 0 min 0,000 mm 0,0 UV-I 0 W/m -2,5 C -2,2 C 3,2 km/h (1 Bft) 98,21 %
09.12.2016 03:54 -2,2 C 98 % 1032,4 hPa 0,0 l/m 0,0 km/h (0 Bft) SW 231 0 min 0,000 mm 0,0 UV-I 0 W/m -2,5 C -2,2 C 1,6 km/h (1 Bft) 97,37 %
09.12.2016 03:56 -2,1 C 98 % 1032,4 hPa 0,0 l/m 0,6 km/h (0 Bft) SW 231 0 min 0,000 mm 0,0 UV-I 0 W/m -2,4 C -2,1 C 3,2 km/h (1 Bft) 100,00 %
09.12.2016 03:58 -2,1 C 98 % 1032,4 hPa 0,0 l/m 1,0 km/h (0 Bft) SW 231 0 min 0,000 mm 0,0 UV-I 0 W/m -2,4 C -2,1 C 1,6 km/h (1 Bft) 100,00 %
09.12.2016 04:00 -2,1 C 98 % 1032,4 hPa 0,0 l/m 1,3 km/h (1 Bft) SW 231 0 min 0,000 mm 0,0 UV-I 0 W/m -2,4 C -2,1 C 3,2 km/h (1 Bft) 98,11 %
09.12.2016 04:02 -2,1 C 98 % 1032,4 hPa 0,0 l/m 0,2 km/h (0 Bft) SW 231 0 min 0,000 mm 0,0 UV-I 0 W/m -2,4 C -2,1 C 1,6 km/h (1 Bft) 97,62 %
09.12.2016 04:04 -2,1 C 98 % 1032,3 hPa 0,0 l/m 0,4 km/h (0 Bft) SW 231 0 min 0,000 mm 0,0 UV-I 0 W/m -2,4 C -2,1 C 3,2 km/h (1 Bft) 97,87 %
09.12.2016 04:06 -2,1 C 98 % 1032,2 hPa 0,0 l/m 1,5 km/h (1 Bft) SW 231 0 min 0,000 mm 0,0 UV-I 0 W/m -2,4 C -2,1 C 3,2 km/h (1 Bft) 97,44 %
09.12.2016 04:08 -2,1 C 98 % 1032,2 hPa 0,0 l/m 0,9 km/h (0 Bft) SW 231 0 min 0,000 mm 0,0 UV-I 0 W/m -2,4 C -2,1 C 3,2 km/h (1 Bft) 100,00 %
09.12.2016 04:10 -2,1 C 98 % 1032,2 hPa 0,0 l/m 0,0 km/h (0 Bft) SW 231 0 min 0,000 mm 0,0 UV-I 0 W/m -2,4 C -2,1 C 0,0 km/h (0 Bft) 100,00 %
09.12.2016 04:12 -2,2 C 98 % 1032,2 hPa 0,0 l/m 0,1 km/h (0 Bft) SW 231 0 min 0,000 mm 0,0 UV-I 0 W/m -2,5 C -2,2 C 1,6 km/h (1 Bft) 100,00 %
09.12.2016 04:14 -2,3 C 98 % 1032,2 hPa 0,0 l/m 2,5 km/h (1 Bft) SW 229 0 min 0,000 mm 0,0 UV-I 0 W/m -2,6 C -2,3 C 4,8 km/h (1 Bft) 98,00 %
09.12.2016 04:16 -2,5 C 97 % 1032,2 hPa 0,0 l/m 1,5 km/h (1 Bft) S-SW 200 0 min 0,000 mm 0,0 UV-I 0 W/m -2,9 C -2,5 C 3,2 km/h (1 Bft) 100,00 %
09.12.2016 04:18 -2,5 C 97 % 1032,2 hPa 0,0 l/m 0,4 km/h (0 Bft) S-SW 200 0 min 0,000 mm 0,0 UV-I 0 W/m -2,9 C -2,5 C 1,6 km/h (1 Bft) 100,00 %
09.12.2016 04:20 -2,6 C 97 % 1032,2 hPa 0,0 l/m 0,2 km/h (0 Bft) S-SW 200 0 min 0,000 mm 0,0 UV-I 0 W/m -3,0 C -2,6 C 1,6 km/h (1 Bft) 100,00 %
09.12.2016 04:22 -2,7 C 97 % 1032,3 hPa 0,0 l/m 1,6 km/h (1 Bft) S-SW 200 0 min 0,000 mm 0,0 UV-I 0 W/m -3,1 C -2,7 C 3,2 km/h (1 Bft) 97,73 %
09.12.2016 04:24 -2,7 C 97 % 1032,3 hPa 0,0 l/m 4,8 km/h (1 Bft) O-NO 59 0 min 0,000 mm 0,0 UV-I 0 W/m -3,1 C -2,7 C 8,0 km/h (2 Bft) 97,87 %
09.12.2016 04:26 -2,7 C 98 % 1032,3 hPa 0,0 l/m 8,2 km/h (2 Bft) NO 42 0 min 0,000 mm 0,0 UV-I 0 W/m -3,0 C -4,7 C 9,7 km/h (2 Bft) 97,62 %
09.12.2016 04:28 -2,7 C 98 % 1032,3 hPa 0,0 l/m 7,0 km/h (2 Bft) O-NO 65 0 min 0,000 mm 0,0 UV-I 0 W/m -3,0 C -3,4 C 9,7 km/h (2 Bft) 98,11 %
09.12.2016 04:30 -2,7 C 98 % 1032,2 hPa 0,0 l/m 5,8 km/h (2 Bft) O-NO 78 0 min 0,000 mm 0,0 UV-I 0 W/m -3,0 C -2,7 C 9,7 km/h (2 Bft) 97,56 %
09.12.2016 04:32 -2,6 C 98 % 1032,2 hPa 0,0 l/m 1,9 km/h (1 Bft) O 80 0 min 0,000 mm 0,0 UV-I 0 W/m -2,9 C -2,6 C 4,8 km/h (1 Bft) 98,11 %
09.12.2016 04:34 -2,6 C 98 % 1032,2 hPa 0,0 l/m 1,7 km/h (1 Bft) SO 139 0 min 0,000 mm 0,0 UV-I 0 W/m -2,9 C -2,6 C 3,2 km/h (1 Bft) 97,37 %
09.12.2016 04:36 -2,6 C 98 % 1032,3 hPa 0,0 l/m 3,2 km/h (1 Bft) S 188 0 min 0,000 mm 0,0 UV-I 0 W/m -2,9 C -2,6 C 4,8 km/h (1 Bft) 96,23 %
09.12.2016 04:38 -2,7 C 98 % 1032,3 hPa 0,0 l/m 2,9 km/h (1 Bft) S-SW 196 0 min 0,000 mm 0,0 UV-I 0 W/m -3,0 C -2,7 C 4,8 km/h (1 Bft) 97,73 %
09.12.2016 04:40 -2,8 C 98 % 1032,4 hPa 0,0 l/m 2,8 km/h (1 Bft) S-SW 202 0 min 0,000 mm 0,0 UV-I 0 W/m -3,1 C -2,8 C 4,8 km/h (1 Bft) 96,23 %
09.12.2016 04:42 -2,8 C 97 % 1032,4 hPa 0,0 l/m 2,4 km/h (1 Bft) S-SW 203 0 min 0,000 mm 0,0 UV-I 0 W/m -3,2 C -2,8 C 4,8 km/h (1 Bft) 97,87 %
09.12.2016 04:44 -2,9 C 97 % 1032,5 hPa 0,0 l/m 2,2 km/h (1 Bft) S-SW 203 0 min 0,000 mm 0,0 UV-I 0 W/m -3,3 C -2,9 C 3,2 km/h (1 Bft) 97,56 %
09.12.2016 04:46 -2,9 C 97 % 1032,5 hPa 0,0 l/m 1,3 km/h (1 Bft) S-SW 203 0 min 0,000 mm 0,0 UV-I 0 W/m -3,3 C -2,9 C 3,2 km/h (1 Bft) 98,00 %
09.12.2016 04:48 -3,1 C 97 % 1032,5 hPa 0,0 l/m 2,2 km/h (1 Bft) S-SW 204 0 min 0,000 mm 0,0 UV-I 0 W/m -3,5 C -3,1 C 3,2 km/h (1 Bft) 94,29 %
09.12.2016 04:50 -3,2 C 97 % 1032,5 hPa 0,0 l/m 0,1 km/h (0 Bft) S-SW 204 0 min 0,000 mm 0,0 UV-I 0 W/m -3,6 C -3,2 C 1,6 km/h (1 Bft) 98,04 %
09.12.2016 04:52 -3,3 C 97 % 1032,4 hPa 0,0 l/m 0,4 km/h (0 Bft) S-SW 204 0 min 0,000 mm 0,0 UV-I 0 W/m -3,7 C -3,3 C 1,6 km/h (1 Bft) 98,11 %
09.12.2016 04:54 -3,3 C 97 % 1032,4 hPa 0,0 l/m 0,3 km/h (0 Bft) S-SW 204 0 min 0,000 mm 0,0 UV-I 0 W/m -3,7 C -3,3 C 1,6 km/h (1 Bft) 98,00 %
09.12.2016 04:56 -3,2 C 97 % 1032,4 hPa 0,0 l/m 1,3 km/h (1 Bft) S-SW 204 0 min 0,000 mm 0,0 UV-I 0 W/m -3,6 C -3,2 C 3,2 km/h (1 Bft) 95,74 %
09.12.2016 04:58 -3,2 C 97 % 1032,4 hPa 0,0 l/m 0,7 km/h (0 Bft) S-SW 204 0 min 0,000 mm 0,0 UV-I 0 W/m -3,6 C -3,2 C 3,2 km/h (1 Bft) 97,44 %
09.12.2016 05:00 -3,2 C 97 % 1032,5 hPa 0,0 l/m 0,4 km/h (0 Bft) S-SW 204 0 min 0,000 mm 0,0 UV-I 0 W/m -3,6 C -3,2 C 1,6 km/h (1 Bft) 97,96 %
09.12.2016 05:02 -3,3 C 97 % 1032,5 hPa 0,0 l/m 1,4 km/h (1 Bft) S-SW 205 0 min 0,000 mm 0,0 UV-I 0 W/m -3,7 C -3,3 C 3,2 km/h (1 Bft) 98,11 %
09.12.2016 05:04 -3,3 C 97 % 1032,5 hPa 0,0 l/m 0,0 km/h (0 Bft) S-SW 205 0 min 0,000 mm 0,0 UV-I 0 W/m -3,7 C -3,3 C 1,6 km/h (1 Bft) 100,00 %
09.12.2016 05:06 -3,3 C 97 % 1032,6 hPa 0,0 l/m 0,0 km/h (0 Bft) S-SW 205 0 min 0,000 mm 0,0 UV-I 0 W/m -3,7 C -3,3 C 0,0 km/h (0 Bft) 100,00 %
09.12.2016 05:08 -3,4 C 97 % 1032,5 hPa 0,0 l/m 0,1 km/h (0 Bft) S-SW 205 0 min 0,000 mm 0,0 UV-I 0 W/m -3,8 C -3,4 C 1,6 km/h (1 Bft) 100,00 %
09.12.2016 05:10 -3,4 C 97 % 1032,5 hPa 0,0 l/m 0,0 km/h (0 Bft) S-SW 205 0 min 0,000 mm 0,0 UV-I 0 W/m -3,8 C -3,4 C 1,6 km/h (1 Bft) 100,00 %
09.12.2016 05:12 -3,5 C 97 % 1032,5 hPa 0,0 l/m 0,4 km/h (0 Bft) S-SW 205 0 min 0,000 mm 0,0 UV-I 0 W/m -3,9 C -3,5 C 3,2 km/h (1 Bft) 100,00 %
09.12.2016 05:14 -3,6 C 97 % 1032,6 hPa 0,0 l/m 4,3 km/h (1 Bft) O-NO 63 0 min 0,000 mm 0,0 UV-I 0 W/m -4,0 C -3,6 C 4,8 km/h (1 Bft) 100,00 %
09.12.2016 05:16 -3,6 C 97 % 1032,5 hPa 0,0 l/m 5,4 km/h (1 Bft) O-NO 60 0 min 0,000 mm 0,0 UV-I 0 W/m -4,0 C -3,6 C 6,4 km/h (2 Bft) 100,00 %
09.12.2016 05:18 -3,6 C 97 % 1032,5 hPa 0,0 l/m 5,3 km/h (1 Bft) O-NO 61 0 min 0,000 mm 0,0 UV-I 0 W/m -4,0 C -3,6 C 8,0 km/h (2 Bft) 100,00 %
09.12.2016 05:20 -3,5 C 97 % 1032,4 hPa 0,0 l/m 3,5 km/h (1 Bft) O-NO 61 0 min 0,000 mm 0,0 UV-I 0 W/m -3,9 C -3,5 C 4,8 km/h (1 Bft) 100,00 %
09.12.2016 05:22 -3,5 C 97 % 1032,5 hPa 0,0 l/m 1,7 km/h (1 Bft) O-NO 61 0 min 0,000 mm 0,0 UV-I 0 W/m -3,9 C -3,5 C 3,2 km/h (1 Bft) 98,21 %
09.12.2016 05:24 -3,5 C 97 % 1032,5 hPa 0,0 l/m 1,1 km/h (1 Bft) O-NO 61 0 min 0,000 mm 0,0 UV-I 0 W/m -3,9 C -3,5 C 3,2 km/h (1 Bft) 100,00 %
09.12.2016 05:26 -3,5 C 97 % 1032,5 hPa 0,0 l/m 2,1 km/h (1 Bft) O-NO 61 0 min 0,000 mm 0,0 UV-I 0 W/m -3,9 C -3,5 C 3,2 km/h (1 Bft) 100,00 %
09.12.2016 05:28 -3,6 C 97 % 1032,6 hPa 0,0 l/m 2,2 km/h (1 Bft) O-NO 61 0 min 0,000 mm 0,0 UV-I 0 W/m -4,0 C -3,6 C 3,2 km/h (1 Bft) 98,11 %
09.12.2016 05:30 -3,6 C 97 % 1032,6 hPa 0,0 l/m 2,1 km/h (1 Bft) O-NO 61 0 min 0,000 mm 0,0 UV-I 0 W/m -4,0 C -3,6 C 3,2 km/h (1 Bft) 100,00 %
09.12.2016 05:32 -3,6 C 97 % 1032,7 hPa 0,0 l/m 1,1 km/h (1 Bft) O-NO 61 0 min 0,000 mm 0,0 UV-I 0 W/m -4,0 C -3,6 C 3,2 km/h (1 Bft) 100,00 %
09.12.2016 05:34 -3,6 C 97 % 1032,7 hPa 0,0 l/m 0,0 km/h (0 Bft) O-NO 61 0 min 0,000 mm 0,0 UV-I 0 W/m -4,0 C -3,6 C 0,0 km/h (0 Bft) 100,00 %
09.12.2016 05:36 -3,6 C 97 % 1032,7 hPa 0,0 l/m 0,0 km/h (0 Bft) O-NO 61 0 min 0,000 mm 0,0 UV-I 0 W/m -4,0 C -3,6 C 0,0 km/h (0 Bft) 100,00 %
09.12.2016 05:38 -3,7 C 97 % 1032,6 hPa 0,0 l/m 0,0 km/h (0 Bft) O-NO 61 0 min 0,000 mm 0,0 UV-I 0 W/m -4,1 C -3,7 C 0,0 km/h (0 Bft) 100,00 %
09.12.2016 05:40 -3,7 C 97 % 1032,6 hPa 0,0 l/m 1,4 km/h (1 Bft) O-NO 61 0 min 0,000 mm 0,0 UV-I 0 W/m -4,1 C -3,7 C 3,2 km/h (1 Bft) 100,00 %
09.12.2016 05:42 -3,7 C 97 % 1032,5 hPa 0,0 l/m 2,3 km/h (1 Bft) SO 133 0 min 0,000 mm 0,0 UV-I 0 W/m -4,1 C -3,7 C 3,2 km/h (1 Bft) 100,00 %
09.12.2016 05:44 -3,7 C 97 % 1032,5 hPa 0,0 l/m 3,7 km/h (1 Bft) S 186 0 min 0,000 mm 0,0 UV-I 0 W/m -4,1 C -3,7 C 6,4 km/h (2 Bft) 100,00 %
09.12.2016 05:46 -3,8 C 97 % 1032,5 hPa 0,0 l/m 3,4 km/h (1 Bft) S 186 0 min 0,000 mm 0,0 UV-I 0 W/m -4,2 C -3,8 C 4,8 km/h (1 Bft) 100,00 %
09.12.2016 05:48 -3,8 C 97 % 1032,5 hPa 0,0 l/m 3,8 km/h (1 Bft) S-SW 196 0 min 0,000 mm 0,0 UV-I 0 W/m -4,2 C -3,8 C 4,8 km/h (1 Bft) 97,87 %
09.12.2016 05:50 -3,8 C 97 % 1032,5 hPa 0,0 l/m 3,3 km/h (1 Bft) S-SW 196 0 min 0,000 mm 0,0 UV-I 0 W/m -4,2 C -3,8 C 4,8 km/h (1 Bft) 100,00 %
09.12.2016 05:52 -3,8 C 97 % 1032,5 hPa 0,0 l/m 1,8 km/h (1 Bft) S-SW 196 0 min 0,000 mm 0,0 UV-I 0 W/m -4,2 C -3,8 C 3,2 km/h (1 Bft) 98,00 %
09.12.2016 05:54 -3,9 C 97 % 1032,5 hPa 0,0 l/m 3,4 km/h (1 Bft) S-SW 208 0 min 0,000 mm 0,0 UV-I 0 W/m -4,3 C -3,9 C 4,8 km/h (1 Bft) 100,00 %
09.12.2016 05:56 -3,9 C 97 % 1032,5 hPa 0,0 l/m 3,4 km/h (1 Bft) S-SW 213 0 min 0,000 mm 0,0 UV-I 0 W/m -4,3 C -3,9 C 4,8 km/h (1 Bft) 100,00 %
09.12.2016 05:58 -3,9 C 97 % 1032,5 hPa 0,0 l/m 3,8 km/h (1 Bft) SW 215 0 min 0,000 mm 0,0 UV-I 0 W/m -4,3 C -3,9 C 4,8 km/h (1 Bft) 100,00 %
09.12.2016 06:00 -3,9 C 97 % 1032,5 hPa 0,0 l/m 3,7 km/h (1 Bft) SW 215 0 min 0,000 mm 0,0 UV-I 0 W/m -4,3 C -3,9 C 4,8 km/h (1 Bft) 100,00 %
09.12.2016 06:02 -3,8 C 97 % 1032,5 hPa 0,0 l/m 3,3 km/h (1 Bft) SW 215 0 min 0,000 mm 0,0 UV-I 0 W/m -4,2 C -3,8 C 4,8 km/h (1 Bft) 100,00 %
09.12.2016 06:04 -3,8 C 97 % 1032,5 hPa 0,0 l/m 1,6 km/h (1 Bft) SW 215 0 min 0,000 mm 0,0 UV-I 0 W/m -4,2 C -3,8 C 3,2 km/h (1 Bft) 100,00 %
09.12.2016 06:06 -3,8 C 97 % 1032,5 hPa 0,0 l/m 1,2 km/h (1 Bft) SW 215 0 min 0,000 mm 0,0 UV-I 0 W/m -4,2 C -3,8 C 3,2 km/h (1 Bft) 94,00 %
09.12.2016 06:08 -3,9 C 97 % 1032,5 hPa 0,0 l/m 1,6 km/h (1 Bft) SW 215 0 min 0,000 mm 0,0 UV-I 0 W/m -4,3 C -3,9 C 3,2 km/h (1 Bft) 100,00 %
09.12.2016 06:10 -3,8 C 97 % 1032,4 hPa 0,0 l/m 1,3 km/h (1 Bft) SW 215 0 min 0,000 mm 0,0 UV-I 0 W/m -4,2 C -3,8 C 3,2 km/h (1 Bft) 100,00 %
09.12.2016 06:12 -3,9 C 97 % 1032,5 hPa 0,0 l/m 0,2 km/h (0 Bft) SW 215 0 min 0,000 mm 0,0 UV-I 0 W/m -4,3 C -3,9 C 1,6 km/h (1 Bft) 100,00 %
09.12.2016 06:14 -3,9 C 97 % 1032,5 hPa 0,0 l/m 0,0 km/h (0 Bft) SW 215 0 min 0,000 mm 0,0 UV-I 0 W/m -4,3 C -3,9 C 0,0 km/h (0 Bft) 100,00 %
09.12.2016 06:16 -3,9 C 97 % 1032,6 hPa 0,0 l/m 0,1 km/h (0 Bft) SW 215 0 min 0,000 mm 0,0 UV-I 0 W/m -4,3 C -3,9 C 1,6 km/h (1 Bft) 98,00 %
09.12.2016 06:18 -3,9 C 97 % 1032,6 hPa 0,0 l/m 1,9 km/h (1 Bft) SW 215 0 min 0,000 mm 0,0 UV-I 0 W/m -4,3 C -3,9 C 3,2 km/h (1 Bft) 100,00 %
09.12.2016 06:20 -3,9 C 97 % 1032,6 hPa 0,0 l/m 2,0 km/h (1 Bft) S-SW 196 0 min 0,000 mm 0,0 UV-I 0 W/m -4,3 C -3,9 C 3,2 km/h (1 Bft) 98,00 %
09.12.2016 06:22 -3,9 C 97 % 1032,6 hPa 0,0 l/m 1,2 km/h (1 Bft) S-SW 196 0 min 0,000 mm 0,0 UV-I 0 W/m -4,3 C -3,9 C 3,2 km/h (1 Bft) 100,00 %
09.12.2016 06:24 -3,9 C 97 % 1032,6 hPa 0,0 l/m 0,4 km/h (0 Bft) S-SW 196 0 min 0,000 mm 0,0 UV-I 0 W/m -4,3 C -3,9 C 1,6 km/h (1 Bft) 100,00 %
09.12.2016 06:26 -3,9 C 97 % 1032,6 hPa 0,0 l/m 1,8 km/h (1 Bft) S 172 0 min 0,000 mm 0,0 UV-I 0 W/m -4,3 C -3,9 C 3,2 km/h (1 Bft) 100,00 %
09.12.2016 06:28 -3,9 C 97 % 1032,6 hPa 0,0 l/m 0,7 km/h (0 Bft) S 172 0 min 0,000 mm 0,0 UV-I 0 W/m -4,3 C -3,9 C 1,6 km/h (1 Bft) 97,56 %
09.12.2016 06:30 -3,9 C 97 % 1032,7 hPa 0,0 l/m 0,4 km/h (0 Bft) S 172 0 min 0,000 mm 0,0 UV-I 0 W/m -4,3 C -3,9 C 1,6 km/h (1 Bft) 100,00 %
09.12.2016 06:32 -3,9 C 97 % 1032,7 hPa 0,0 l/m 0,3 km/h (0 Bft) S 172 0 min 0,000 mm 0,0 UV-I 0 W/m -4,3 C -3,9 C 3,2 km/h (1 Bft) 98,00 %
09.12.2016 06:34 -3,9 C 97 % 1032,7 hPa 0,0 l/m 0,0 km/h (0 Bft) S 172 0 min 0,000 mm 0,0 UV-I 0 W/m -4,3 C -3,9 C 0,0 km/h (0 Bft) 100,00 %
09.12.2016 06:36 -4,0 C 97 % 1032,6 hPa 0,0 l/m 0,0 km/h (0 Bft) S 172 0 min 0,000 mm 0,0 UV-I 0 W/m -4,4 C -4,0 C 0,0 km/h (0 Bft) 98,00 %
09.12.2016 06:38 -4,1 C 97 % 1032,6 hPa 0,0 l/m 1,1 km/h (1 Bft) S 173 0 min 0,000 mm 0,0 UV-I 0 W/m -4,5 C -4,1 C 3,2 km/h (1 Bft) 97,87 %
09.12.2016 06:40 -4,1 C 97 % 1032,6 hPa 0,0 l/m 2,0 km/h (1 Bft) S 173 0 min 0,000 mm 0,0 UV-I 0 W/m -4,5 C -4,1 C 3,2 km/h (1 Bft) 96,00 %
09.12.2016 06:42 -4,1 C 97 % 1032,4 hPa 0,0 l/m 2,1 km/h (1 Bft) S-SW 192 0 min 0,000 mm 0,0 UV-I 0 W/m -4,5 C -4,1 C 4,8 km/h (1 Bft) 95,74 %
09.12.2016 06:44 -4,2 C 97 % 1032,4 hPa 0,0 l/m 2,1 km/h (1 Bft) S-SW 192 0 min 0,000 mm 0,0 UV-I 0 W/m -4,6 C -4,2 C 3,2 km/h (1 Bft) 95,74 %
09.12.2016 06:46 -4,2 C 97 % 1032,3 hPa 0,0 l/m 2,7 km/h (1 Bft) S-SW 192 0 min 0,000 mm 0,0 UV-I 0 W/m -4,6 C -4,2 C 4,8 km/h (1 Bft) 97,37 %
09.12.2016 06:48 -4,2 C 97 % 1032,4 hPa 0,0 l/m 3,0 km/h (1 Bft) S-SW 196 0 min 0,000 mm 0,0 UV-I 0 W/m -4,6 C -4,2 C 3,2 km/h (1 Bft) 98,00 %
09.12.2016 06:50 -4,2 C 97 % 1032,4 hPa 0,0 l/m 3,3 km/h (1 Bft) S-SW 213 0 min 0,000 mm 0,0 UV-I 0 W/m -4,6 C -4,2 C 4,8 km/h (1 Bft) 98,00 %
09.12.2016 06:52 -4,2 C 97 % 1032,4 hPa 0,0 l/m 3,7 km/h (1 Bft) SW 226 0 min 0,000 mm 0,0 UV-I 0 W/m -4,6 C -4,2 C 4,8 km/h (1 Bft) 92,11 %
09.12.2016 06:54 -4,3 C 97 % 1032,5 hPa 0,0 l/m 3,6 km/h (1 Bft) SW 231 0 min 0,000 mm 0,0 UV-I 0 W/m -4,7 C -4,3 C 4,8 km/h (1 Bft) 98,00 %
09.12.2016 06:56 -4,3 C 97 % 1032,5 hPa 0,0 l/m 3,7 km/h (1 Bft) W-SW 239 0 min 0,000 mm 0,0 UV-I 0 W/m -4,7 C -4,3 C 6,4 km/h (2 Bft) 97,87 %
09.12.2016 06:58 -4,3 C 97 % 1032,5 hPa 0,0 l/m 5,0 km/h (1 Bft) SW 228 0 min 0,000 mm 0,0 UV-I 0 W/m -4,7 C -4,3 C 6,4 km/h (2 Bft) 92,45 %
09.12.2016 07:00 -4,2 C 97 % 1032,5 hPa 0,0 l/m 5,4 km/h (1 Bft) S-SW 213 0 min 0,000 mm 0,0 UV-I 0 W/m -4,6 C -4,2 C 6,4 km/h (2 Bft) 94,00 %
09.12.2016 07:02 -4,2 C 97 % 1032,5 hPa 0,0 l/m 4,7 km/h (1 Bft) SW 215 0 min 0,000 mm 0,0 UV-I 0 W/m -4,6 C -4,2 C 6,4 km/h (2 Bft) 97,56 %
09.12.2016 07:04 -4,2 C 97 % 1032,6 hPa 0,0 l/m 4,6 km/h (1 Bft) S-SW 213 0 min 0,000 mm 0,0 UV-I 0 W/m -4,6 C -4,2 C 6,4 km/h (2 Bft) 94,34 %
09.12.2016 07:06 -4,2 C 97 % 1032,5 hPa 0,0 l/m 4,6 km/h (1 Bft) W-SW 246 0 min 0,000 mm 0,0 UV-I 0 W/m -4,6 C -4,2 C 6,4 km/h (2 Bft) 97,78 %
09.12.2016 07:08 -4,1 C 97 % 1032,6 hPa 0,0 l/m 3,3 km/h (1 Bft) SW 232 0 min 0,000 mm 0,0 UV-I 0 W/m -4,5 C -4,1 C 4,8 km/h (1 Bft) 97,37 %
09.12.2016 07:10 -3,8 C 97 % 1032,6 hPa 0,0 l/m 3,2 km/h (1 Bft) SW 232 0 min 0,000 mm 0,0 UV-I 0 W/m -4,2 C -3,8 C 4,8 km/h (1 Bft) 96,00 %
09.12.2016 07:12 -3,6 C 97 % 1032,6 hPa 0,0 l/m 2,8 km/h (1 Bft) SW 232 0 min 0,000 mm 0,0 UV-I 0 W/m -4,0 C -3,6 C 4,8 km/h (1 Bft) 98,00 %
09.12.2016 07:14 -3,6 C 97 % 1032,7 hPa 0,0 l/m 0,3 km/h (0 Bft) SW 232 0 min 0,000 mm 0,0 UV-I 0 W/m -4,0 C -3,6 C 1,6 km/h (1 Bft) 95,74 %
09.12.2016 07:16 -3,6 C 97 % 1032,7 hPa 0,0 l/m 0,2 km/h (0 Bft) SW 232 0 min 0,000 mm 0,0 UV-I 0 W/m -4,0 C -3,6 C 1,6 km/h (1 Bft) 98,00 %
09.12.2016 07:18 -3,6 C 97 % 1032,7 hPa 0,0 l/m 1,0 km/h (0 Bft) SW 231 0 min 0,000 mm 0,0 UV-I 0 W/m -4,0 C -3,6 C 3,2 km/h (1 Bft) 100,00 %
09.12.2016 07:20 -3,6 C 97 % 1032,7 hPa 0,0 l/m 0,7 km/h (0 Bft) S 191 0 min 0,000 mm 0,0 UV-I 0 W/m -4,0 C -3,6 C 3,2 km/h (1 Bft) 97,87 %
09.12.2016 07:22 -3,6 C 97 % 1032,7 hPa 0,0 l/m 1,2 km/h (1 Bft) S 190 0 min 0,000 mm 0,0 UV-I 0 W/m -4,0 C -3,6 C 3,2 km/h (1 Bft) 100,00 %
09.12.2016 07:24 -3,6 C 97 % 1032,6 hPa 0,0 l/m 1,9 km/h (1 Bft) S 190 0 min 0,000 mm 0,0 UV-I 0 W/m -4,0 C -3,6 C 3,2 km/h (1 Bft) 100,00 %
09.12.2016 07:26 -3,6 C 97 % 1032,6 hPa 0,0 l/m 0,0 km/h (0 Bft) S 190 0 min 0,000 mm 0,0 UV-I 0 W/m -4,0 C -3,6 C 1,6 km/h (1 Bft) 100,00 %
09.12.2016 07:28 -3,6 C 97 % 1032,7 hPa 0,0 l/m 0,7 km/h (0 Bft) S 190 0 min 0,000 mm 0,0 UV-I 0 W/m -4,0 C -3,6 C 3,2 km/h (1 Bft) 95,74 %
09.12.2016 07:30 -3,7 C 97 % 1032,6 hPa 0,0 l/m 0,0 km/h (0 Bft) S 190 0 min 0,000 mm 0,0 UV-I 4 W/m -4,1 C -3,7 C 0,0 km/h (0 Bft) 100,00 %
09.12.2016 07:32 -3,7 C 97 % 1032,7 hPa 0,0 l/m 0,5 km/h (0 Bft) S 190 0 min 0,000 mm 0,0 UV-I 5 W/m -4,1 C -3,7 C 1,6 km/h (1 Bft) 100,00 %
09.12.2016 07:34 -3,7 C 97 % 1032,6 hPa 0,0 l/m 0,2 km/h (0 Bft) S 190 0 min 0,000 mm 0,0 UV-I 5 W/m -4,1 C -3,7 C 1,6 km/h (1 Bft) 100,00 %
09.12.2016 07:36 -3,7 C 97 % 1032,6 hPa 0,0 l/m 0,7 km/h (0 Bft) S 189 0 min 0,000 mm 0,0 UV-I 7 W/m -4,1 C -3,7 C 3,2 km/h (1 Bft) 100,00 %
09.12.2016 07:38 -3,7 C 97 % 1032,6 hPa 0,0 l/m 1,1 km/h (1 Bft) S 189 0 min 0,000 mm 0,0 UV-I 7 W/m -4,1 C -3,7 C 3,2 km/h (1 Bft) 100,00 %
09.12.2016 07:40 -3,7 C 97 % 1032,5 hPa 0,0 l/m 2,0 km/h (1 Bft) S 189 0 min 0,000 mm 0,0 UV-I 8 W/m -4,1 C -3,7 C 3,2 km/h (1 Bft) 97,92 %
09.12.2016 07:42 -3,7 C 97 % 1032,5 hPa 0,0 l/m 0,8 km/h (0 Bft) S 189 0 min 0,000 mm 0,0 UV-I 9 W/m -4,1 C -3,7 C 1,6 km/h (1 Bft) 100,00 %
09.12.2016 07:44 -3,8 C 97 % 1032,6 hPa 0,0 l/m 0,5 km/h (0 Bft) S 189 0 min 0,000 mm 0,0 UV-I 10 W/m -4,2 C -3,8 C 1,6 km/h (1 Bft) 93,75 %
09.12.2016 07:46 -3,8 C 97 % 1032,6 hPa 0,0 l/m 0,6 km/h (0 Bft) S 189 0 min 0,000 mm 0,0 UV-I 11 W/m -4,2 C -3,8 C 1,6 km/h (1 Bft) 100,00 %
09.12.2016 07:48 -3,8 C 97 % 1032,6 hPa 0,0 l/m 0,2 km/h (0 Bft) S 189 0 min 0,000 mm 0,0 UV-I 12 W/m -4,2 C -3,8 C 1,6 km/h (1 Bft) 100,00 %
09.12.2016 07:50 -3,8 C 97 % 1032,6 hPa 0,0 l/m 0,4 km/h (0 Bft) S 189 0 min 0,000 mm 0,0 UV-I 12 W/m -4,2 C -3,8 C 1,6 km/h (1 Bft) 100,00 %
09.12.2016 07:52 -3,8 C 97 % 1032,6 hPa 0,0 l/m 0,6 km/h (0 Bft) S 181 0 min 0,000 mm 0,0 UV-I 14 W/m -4,2 C -3,8 C 1,6 km/h (1 Bft) 96,23 %
09.12.2016 07:54 -3,8 C 97 % 1032,6 hPa 0,0 l/m 0,7 km/h (0 Bft) S 169 0 min 0,000 mm 0,0 UV-I 16 W/m -4,2 C -3,8 C 3,2 km/h (1 Bft) 97,56 %
09.12.2016 07:56 -3,7 C 97 % 1032,6 hPa 0,0 l/m 0,8 km/h (0 Bft) S 169 2 min 0,000 mm 0,0 UV-I 17 W/m -4,1 C -3,7 C 3,2 km/h (1 Bft) 100,00 %
09.12.2016 07:58 -3,6 C 97 % 1032,6 hPa 0,0 l/m 0,1 km/h (0 Bft) S 169 2 min 0,000 mm 0,0 UV-I 18 W/m -4,0 C -3,6 C 1,6 km/h (1 Bft) 93,62 %
09.12.2016 08:00 -3,6 C 97 % 1032,6 hPa 0,0 l/m 0,6 km/h (0 Bft) S 169 2 min 0,000 mm 0,0 UV-I 19 W/m -4,0 C -3,6 C 1,6 km/h (1 Bft) 100,00 %
09.12.2016 08:02 -3,5 C 97 % 1032,6 hPa 0,0 l/m 1,8 km/h (1 Bft) S 169 2 min 0,000 mm 0,0 UV-I 21 W/m -3,9 C -3,5 C 3,2 km/h (1 Bft) 100,00 %
09.12.2016 08:04 -3,4 C 97 % 1032,7 hPa 0,0 l/m 0,7 km/h (0 Bft) S 169 2 min 0,000 mm 0,0 UV-I 24 W/m -3,8 C -3,4 C 3,2 km/h (1 Bft) 100,00 %
09.12.2016 08:06 -3,2 C 97 % 1032,7 hPa 0,0 l/m 1,4 km/h (1 Bft) S 169 2 min 0,000 mm 0,0 UV-I 25 W/m -3,6 C -3,2 C 3,2 km/h (1 Bft) 100,00 %
09.12.2016 08:08 -3,1 C 97 % 1032,7 hPa 0,0 l/m 1,0 km/h (0 Bft) S 169 2 min 0,000 mm 0,0 UV-I 27 W/m -3,5 C -3,1 C 3,2 km/h (1 Bft) 100,00 %
09.12.2016 08:10 -2,9 C 97 % 1032,7 hPa 0,0 l/m 0,0 km/h (0 Bft) S 169 2 min 0,000 mm 0,0 UV-I 36 W/m -3,3 C -2,9 C 1,6 km/h (1 Bft) 100,00 %
09.12.2016 08:12 -2,9 C 98 % 1032,8 hPa 0,0 l/m 1,9 km/h (1 Bft) S 169 2 min 0,000 mm 0,0 UV-I 54 W/m -3,2 C -2,9 C 6,4 km/h (2 Bft) 97,87 %
09.12.2016 08:14 -2,9 C 98 % 1032,8 hPa 0,0 l/m 3,1 km/h (1 Bft) S 186 2 min 0,000 mm 0,0 UV-I 63 W/m -3,2 C -2,9 C 6,4 km/h (2 Bft) 100,00 %
09.12.2016 08:16 -2,9 C 97 % 1032,8 hPa 0,0 l/m 1,5 km/h (1 Bft) S 186 2 min 0,000 mm 0,0 UV-I 69 W/m -3,3 C -2,9 C 3,2 km/h (1 Bft) 100,00 %
09.12.2016 08:18 -2,9 C 97 % 1032,8 hPa 0,0 l/m 0,7 km/h (0 Bft) S 182 2 min 0,000 mm 0,0 UV-I 72 W/m -3,3 C -2,9 C 1,6 km/h (1 Bft) 100,00 %
09.12.2016 08:20 -2,9 C 97 % 1032,8 hPa 0,0 l/m 1,8 km/h (1 Bft) S 182 2 min 0,000 mm 0,0 UV-I 77 W/m -3,3 C -2,9 C 3,2 km/h (1 Bft) 98,00 %
09.12.2016 08:22 -2,9 C 97 % 1032,8 hPa 0,0 l/m 1,6 km/h (1 Bft) S 182 2 min 0,000 mm 0,0 UV-I 82 W/m -3,3 C -2,9 C 3,2 km/h (1 Bft) 100,00 %
09.12.2016 08:24 -3,1 C 97 % 1032,8 hPa 0,0 l/m 0,5 km/h (0 Bft) S 182 2 min 0,000 mm 0,0 UV-I 86 W/m -3,5 C -3,1 C 1,6 km/h (1 Bft) 100,00 %
09.12.2016 08:26 -3,3 C 97 % 1032,8 hPa 0,0 l/m 0,9 km/h (0 Bft) S 182 2 min 0,000 mm 0,0 UV-I 91 W/m -3,7 C -3,3 C 3,2 km/h (1 Bft) 100,00 %
09.12.2016 08:28 -3,4 C 97 % 1032,9 hPa 0,0 l/m 0,0 km/h (0 Bft) S 182 2 min 0,000 mm 0,0 UV-I 99 W/m -3,8 C -3,4 C 0,0 km/h (0 Bft) 100,00 %
09.12.2016 08:30 -3,4 C 97 % 1032,8 hPa 0,0 l/m 0,0 km/h (0 Bft) S 182 2 min 0,000 mm 0,0 UV-I 110 W/m -3,8 C -3,4 C 0,0 km/h (0 Bft) 100,00 %
09.12.2016 08:32 -3,4 C 97 % 1032,9 hPa 0,0 l/m 0,4 km/h (0 Bft) S 182 2 min 0,000 mm 0,0 UV-I 120 W/m -3,8 C -3,4 C 1,6 km/h (1 Bft) 100,00 %
09.12.2016 08:34 -3,1 C 97 % 1032,9 hPa 0,0 l/m 1,0 km/h (0 Bft) S 182 2 min 0,000 mm 0,0 UV-I 127 W/m -3,5 C -3,1 C 3,2 km/h (1 Bft) 100,00 %
09.12.2016 08:36 -2,9 C 97 % 1032,9 hPa 0,0 l/m 2,0 km/h (1 Bft) S 191 2 min 0,000 mm 0,0 UV-I 137 W/m -3,3 C -2,9 C 3,2 km/h (1 Bft) 100,00 %
09.12.2016 08:38 -2,7 C 98 % 1032,9 hPa 0,0 l/m 1,8 km/h (1 Bft) S 191 2 min 0,000 mm 0,0 UV-I 151 W/m -3,0 C -2,7 C 3,2 km/h (1 Bft) 100,00 %
09.12.2016 08:40 -2,6 C 98 % 1032,9 hPa 0,0 l/m 1,5 km/h (1 Bft) S 191 2 min 0,000 mm 0,0 UV-I 164 W/m -2,9 C -2,6 C 3,2 km/h (1 Bft) 100,00 %
09.12.2016 08:42 -2,4 C 98 % 1032,9 hPa 0,0 l/m 1,8 km/h (1 Bft) S 191 2 min 0,000 mm 0,0 UV-I 180 W/m -2,7 C -2,4 C 3,2 km/h (1 Bft) 97,87 %
09.12.2016 08:44 -2,4 C 98 % 1032,9 hPa 0,0 l/m 1,3 km/h (1 Bft) S 191 2 min 0,000 mm 0,0 UV-I 190 W/m -2,7 C -2,4 C 3,2 km/h (1 Bft) 100,00 %
09.12.2016 08:46 -2,3 C 98 % 1032,9 hPa 0,0 l/m 1,3 km/h (1 Bft) S 191 2 min 0,000 mm 0,0 UV-I 194 W/m -2,6 C -2,3 C 3,2 km/h (1 Bft) 100,00 %
09.12.2016 08:48 -2,2 C 98 % 1033,0 hPa 0,0 l/m 1,4 km/h (1 Bft) S 191 2 min 0,000 mm 0,0 UV-I 194 W/m -2,5 C -2,2 C 3,2 km/h (1 Bft) 97,14 %
09.12.2016 08:50 -2,2 C 98 % 1032,9 hPa 0,0 l/m 1,0 km/h (0 Bft) S 191 2 min 0,000 mm 0,0 UV-I 197 W/m -2,5 C -2,2 C 3,2 km/h (1 Bft) 98,04 %
09.12.2016 08:52 -2,1 C 98 % 1032,9 hPa 0,0 l/m 0,6 km/h (0 Bft) S 191 2 min 0,000 mm 0,0 UV-I 197 W/m -2,4 C -2,1 C 1,6 km/h (1 Bft) 96,23 %
09.12.2016 08:54 -2,1 C 98 % 1032,9 hPa 0,0 l/m 3,0 km/h (1 Bft) S 191 2 min 0,000 mm 0,0 UV-I 197 W/m -2,4 C -2,1 C 4,8 km/h (1 Bft) 96,00 %
09.12.2016 08:56 -2,1 C 98 % 1032,9 hPa 0,0 l/m 2,5 km/h (1 Bft) S 191 2 min 0,000 mm 0,0 UV-I 197 W/m -2,4 C -2,1 C 4,8 km/h (1 Bft) 94,74 %
09.12.2016 08:58 -2,0 C 98 % 1032,9 hPa 0,0 l/m 2,2 km/h (1 Bft) S 191 2 min 0,000 mm 0,0 UV-I 193 W/m -2,3 C -2,0 C 3,2 km/h (1 Bft) 95,74 %
09.12.2016 09:00 -1,9 C 98 % 1033,0 hPa 0,0 l/m 1,6 km/h (1 Bft) S 191 2 min 0,000 mm 0,0 UV-I 193 W/m -2,2 C -1,9 C 4,8 km/h (1 Bft) 98,00 %
09.12.2016 09:02 -1,9 C 98 % 1033,0 hPa 0,0 l/m 1,6 km/h (1 Bft) S 191 2 min 0,025 mm 0,0 UV-I 178 W/m -2,2 C -1,9 C 3,2 km/h (1 Bft) 97,62 %
09.12.2016 09:04 -1,9 C 98 % 1033,0 hPa 0,0 l/m 2,1 km/h (1 Bft) S 191 2 min 0,000 mm 0,0 UV-I 157 W/m -2,2 C -1,9 C 3,2 km/h (1 Bft) 94,34 %
09.12.2016 09:06 -1,8 C 98 % 1033,1 hPa 0,0 l/m 1,8 km/h (1 Bft) S 191 2 min 0,000 mm 0,0 UV-I 181 W/m -2,1 C -1,8 C 3,2 km/h (1 Bft) 97,37 %
09.12.2016 09:08 -1,8 C 98 % 1033,0 hPa 0,0 l/m 2,6 km/h (1 Bft) S 191 2 min 0,000 mm 0,0 UV-I 161 W/m -2,1 C -1,8 C 4,8 km/h (1 Bft) 98,18 %
09.12.2016 09:10 -1,8 C 98 % 1033,0 hPa 0,0 l/m 2,8 km/h (1 Bft) S 191 2 min 0,000 mm 0,0 UV-I 140 W/m -2,1 C -1,8 C 4,8 km/h (1 Bft) 96,00 %
09.12.2016 09:12 -1,7 C 98 % 1033,0 hPa 0,0 l/m 2,8 km/h (1 Bft) S 191 2 min 0,000 mm 0,0 UV-I 152 W/m -2,0 C -1,7 C 4,8 km/h (1 Bft) 100,00 %
09.12.2016 09:14 -1,7 C 98 % 1032,9 hPa 0,0 l/m 2,9 km/h (1 Bft) S 191 2 min 0,000 mm 0,0 UV-I 157 W/m -2,0 C -1,7 C 4,8 km/h (1 Bft) 100,00 %
09.12.2016 09:16 -1,7 C 98 % 1033,0 hPa 0,0 l/m 2,7 km/h (1 Bft) S-SW 193 2 min 0,000 mm 0,0 UV-I 121 W/m -2,0 C -1,7 C 4,8 km/h (1 Bft) 98,00 %
09.12.2016 09:18 -1,7 C 98 % 1033,0 hPa 0,0 l/m 3,3 km/h (1 Bft) S-SW 205 2 min 0,000 mm 0,0 UV-I 114 W/m -2,0 C -1,7 C 4,8 km/h (1 Bft) 98,00 %
09.12.2016 09:20 -1,6 C 98 % 1033,1 hPa 0,0 l/m 3,8 km/h (1 Bft) S-SW 207 2 min 0,000 mm 0,0 UV-I 119 W/m -1,9 C -1,6 C 6,4 km/h (2 Bft) 96,00 %
09.12.2016 09:22 -1,6 C 98 % 1033,0 hPa 0,0 l/m 3,1 km/h (1 Bft) S-SW 213 2 min 0,000 mm 0,0 UV-I 125 W/m -1,9 C -1,6 C 4,8 km/h (1 Bft) 100,00 %
09.12.2016 09:24 -1,5 C 98 % 1033,0 hPa 0,0 l/m 4,1 km/h (1 Bft) S-SW 213 2 min 0,000 mm 0,0 UV-I 157 W/m -1,8 C -1,5 C 4,8 km/h (1 Bft) 100,00 %
09.12.2016 09:26 -1,4 C 98 % 1033,0 hPa 0,0 l/m 4,7 km/h (1 Bft) S-SW 213 2 min 0,000 mm 0,0 UV-I 182 W/m -1,7 C -1,4 C 6,4 km/h (2 Bft) 100,00 %
09.12.2016 09:28 -1,4 C 98 % 1033,1 hPa 0,0 l/m 4,6 km/h (1 Bft) S-SW 213 2 min 0,000 mm 0,0 UV-I 165 W/m -1,7 C -1,4 C 6,4 km/h (2 Bft) 100,00 %
09.12.2016 09:30 -1,3 C 98 % 1033,1 hPa 0,0 l/m 2,6 km/h (1 Bft) S-SW 213 2 min 0,000 mm 0,0 UV-I 174 W/m -1,6 C -1,3 C 4,8 km/h (1 Bft) 100,00 %
09.12.2016 09:32 -1,3 C 98 % 1033,1 hPa 0,0 l/m 2,1 km/h (1 Bft) S-SW 213 2 min 0,000 mm 0,0 UV-I 195 W/m -1,6 C -1,3 C 4,8 km/h (1 Bft) 98,00 %
09.12.2016 09:34 -1,3 C 98 % 1033,1 hPa 0,0 l/m 3,2 km/h (1 Bft) W-SW 239 2 min 0,000 mm 0,0 UV-I 200 W/m -1,6 C -1,3 C 6,4 km/h (2 Bft) 100,00 %
09.12.2016 09:36 -1,3 C 98 % 1033,2 hPa 0,0 l/m 2,9 km/h (1 Bft) W-SW 239 2 min 0,000 mm 0,0 UV-I 203 W/m -1,6 C -1,3 C 4,8 km/h (1 Bft) 96,43 %
09.12.2016 09:38 -1,2 C 98 % 1033,2 hPa 0,0 l/m 2,1 km/h (1 Bft) SW 228 2 min 0,000 mm 0,0 UV-I 206 W/m -1,5 C -1,2 C 4,8 km/h (1 Bft) 100,00 %
09.12.2016 09:40 -1,2 C 98 % 1033,1 hPa 0,0 l/m 2,5 km/h (1 Bft) SW 225 2 min 0,000 mm 0,0 UV-I 208 W/m -1,5 C -1,2 C 6,4 km/h (2 Bft) 100,00 %
09.12.2016 09:42 -1,1 C 98 % 1033,2 hPa 0,0 l/m 1,5 km/h (1 Bft) SW 225 2 min 0,000 mm 0,0 UV-I 208 W/m -1,4 C -1,1 C 3,2 km/h (1 Bft) 100,00 %
09.12.2016 09:44 -1,1 C 98 % 1033,2 hPa 0,0 l/m 0,2 km/h (0 Bft) SW 225 2 min 0,000 mm 0,0 UV-I 178 W/m -1,4 C -1,1 C 1,6 km/h (1 Bft) 100,00 %
09.12.2016 09:46 -1,0 C 98 % 1033,2 hPa 0,0 l/m 1,0 km/h (0 Bft) SW 225 2 min 0,000 mm 0,0 UV-I 211 W/m -1,3 C -1,0 C 3,2 km/h (1 Bft) 100,00 %
09.12.2016 09:48 -0,9 C 98 % 1033,3 hPa 0,0 l/m 0,9 km/h (0 Bft) SW 225 2 min 0,000 mm 0,0 UV-I 213 W/m -1,2 C -0,9 C 3,2 km/h (1 Bft) 98,00 %
09.12.2016 09:50 -0,9 C 98 % 1033,2 hPa 0,0 l/m 0,9 km/h (0 Bft) SW 225 2 min 0,000 mm 0,0 UV-I 214 W/m -1,2 C -0,9 C 3,2 km/h (1 Bft) 100,00 %
09.12.2016 09:52 -0,8 C 98 % 1033,2 hPa 0,0 l/m 1,3 km/h (1 Bft) SW 224 2 min 0,000 mm 0,0 UV-I 214 W/m -1,1 C -0,8 C 3,2 km/h (1 Bft) 100,00 %
09.12.2016 09:54 -0,8 C 98 % 1033,3 hPa 0,0 l/m 3,4 km/h (1 Bft) SW 223 2 min 0,000 mm 0,0 UV-I 223 W/m -1,1 C -0,8 C 4,8 km/h (1 Bft) 100,00 %
09.12.2016 09:56 -0,7 C 98 % 1033,3 hPa 0,0 l/m 2,3 km/h (1 Bft) SW 223 2 min 0,000 mm 0,0 UV-I 226 W/m -1,0 C -0,7 C 4,8 km/h (1 Bft) 100,00 %
09.12.2016 09:58 -0,7 C 98 % 1033,3 hPa 0,0 l/m 3,1 km/h (1 Bft) SW 223 2 min 0,000 mm 0,0 UV-I 229 W/m -1,0 C -0,7 C 4,8 km/h (1 Bft) 100,00 %
09.12.2016 10:00 -0,7 C 98 % 1033,3 hPa 0,0 l/m 3,2 km/h (1 Bft) SW 223 2 min 0,051 mm 0,0 UV-I 140 W/m -1,0 C -0,7 C 4,8 km/h (1 Bft) 100,00 %
09.12.2016 10:03 -0,6 C 98 % 1033,4 hPa 0,0 l/m 2,1 km/h (1 Bft) SW 223 3 min 0,000 mm 0,0 UV-I 195 W/m -0,9 C -0,6 C 3,2 km/h (1 Bft) 100,00 %
09.12.2016 10:04 -0,6 C 98 % 1033,4 hPa 0,0 l/m 0,5 km/h (0 Bft) SW 223 1 min 0,000 mm 0,0 UV-I 241 W/m -0,9 C -0,6 C 1,6 km/h (1 Bft) 100,00 %
09.12.2016 10:06 -0,5 C 98 % 1033,5 hPa 0,0 l/m 0,1 km/h (0 Bft) SW 223 0 min 0,000 mm 0,0 UV-I 136 W/m -0,8 C -0,5 C 1,6 km/h (1 Bft) 100,00 %
09.12.2016 10:08 -0,5 C 98 % 1033,5 hPa 0,0 l/m 0,0 km/h (0 Bft) SW 223 2 min 0,000 mm 0,0 UV-I 238 W/m -0,8 C -0,5 C 0,0 km/h (0 Bft) 97,14 %
09.12.2016 10:10 -0,5 C 98 % 1033,5 hPa 0,0 l/m 0,0 km/h (0 Bft) SW 223 2 min 0,000 mm 0,0 UV-I 241 W/m -0,8 C -0,5 C 0,0 km/h (0 Bft) 95,74 %
09.12.2016 10:12 -0,4 C 98 % 1033,5 hPa 0,0 l/m 0,1 km/h (0 Bft) SW 223 2 min 0,000 mm 0,0 UV-I 244 W/m -0,7 C -0,4 C 1,6 km/h (1 Bft) 93,62 %
09.12.2016 10:14 -0,4 C 98 % 1033,5 hPa 0,0 l/m 0,0 km/h (0 Bft) SW 223 2 min 0,000 mm 0,0 UV-I 248 W/m -0,7 C -0,4 C 0,0 km/h (0 Bft) 97,87 %
09.12.2016 10:16 -0,4 C 98 % 1033,5 hPa 0,0 l/m 0,0 km/h (0 Bft) SW 223 2 min 0,000 mm 0,0 UV-I 249 W/m -0,7 C -0,4 C 0,0 km/h (0 Bft) 98,00 %
09.12.2016 10:18 -0,3 C 99 % 1033,6 hPa 0,0 l/m 0,0 km/h (0 Bft) SW 223 2 min 0,000 mm 0,5 UV-I 250 W/m -0,4 C -0,3 C 0,0 km/h (0 Bft) 98,11 %
09.12.2016 10:20 -0,2 C 99 % 1033,6 hPa 0,0 l/m 0,0 km/h (0 Bft) SW 223 2 min 0,000 mm 0,5 UV-I 253 W/m -0,3 C -0,2 C 0,0 km/h (0 Bft) 97,44 %
09.12.2016 10:22 -0,1 C 98 % 1033,6 hPa 0,0 l/m 0,0 km/h (0 Bft) SW 223 2 min 0,000 mm 0,5 UV-I 256 W/m -0,4 C -0,1 C 0,0 km/h (0 Bft) 97,87 %
09.12.2016 10:24 0,1 C 98 % 1033,6 hPa 0,0 l/m 0,2 km/h (0 Bft) SW 223 2 min 0,000 mm 0,5 UV-I 258 W/m -0,2 C 0,1 C 1,6 km/h (1 Bft) 98,00 %
09.12.2016 10:26 0,1 C 99 % 1033,6 hPa 0,0 l/m 0,3 km/h (0 Bft) SW 223 2 min 0,000 mm 0,5 UV-I 260 W/m -0,0 C 0,1 C 1,6 km/h (1 Bft) 97,87 %
09.12.2016 10:28 0,2 C 99 % 1033,7 hPa 0,0 l/m 0,4 km/h (0 Bft) SW 223 2 min 0,000 mm 0,5 UV-I 262 W/m 0,1 C 0,2 C 1,6 km/h (1 Bft) 98,00 %
09.12.2016 10:30 0,3 C 99 % 1033,5 hPa 0,0 l/m 0,1 km/h (0 Bft) SW 223 2 min 0,000 mm 0,5 UV-I 264 W/m 0,2 C 0,3 C 1,6 km/h (1 Bft) 100,00 %
09.12.2016 10:32 0,4 C 99 % 1033,5 hPa 0,0 l/m 1,2 km/h (1 Bft) SW 229 2 min 0,000 mm 0,5 UV-I 267 W/m 0,3 C 0,4 C 3,2 km/h (1 Bft) 100,00 %
09.12.2016 10:34 0,5 C 99 % 1033,5 hPa 0,0 l/m 1,8 km/h (1 Bft) SW 234 2 min 0,000 mm 0,5 UV-I 271 W/m 0,4 C 0,5 C 3,2 km/h (1 Bft) 100,00 %
09.12.2016 10:36 0,7 C 99 % 1033,5 hPa 0,0 l/m 1,6 km/h (1 Bft) SW 235 2 min 0,000 mm 0,5 UV-I 274 W/m 0,6 C 0,7 C 3,2 km/h (1 Bft) 96,23 %
09.12.2016 10:38 0,7 C 99 % 1033,5 hPa 0,0 l/m 1,3 km/h (1 Bft) SW 235 2 min 0,000 mm 0,5 UV-I 275 W/m 0,6 C 0,7 C 3,2 km/h (1 Bft) 100,00 %
09.12.2016 10:40 0,7 C 99 % 1033,5 hPa 0,0 l/m 1,8 km/h (1 Bft) SW 235 2 min 0,000 mm 0,5 UV-I 278 W/m 0,6 C 0,7 C 3,2 km/h (1 Bft) 100,00 %
09.12.2016 10:42 0,8 C 99 % 1033,5 hPa 0,0 l/m 1,4 km/h (1 Bft) SW 235 2 min 0,000 mm 0,5 UV-I 282 W/m 0,7 C 0,8 C 3,2 km/h (1 Bft) 100,00 %
09.12.2016 10:44 0,9 C 99 % 1033,5 hPa 0,0 l/m 2,4 km/h (1 Bft) W 279 2 min 0,000 mm 0,5 UV-I 285 W/m 0,8 C 0,9 C 4,8 km/h (1 Bft) 98,11 %
09.12.2016 10:46 1,1 C 99 % 1033,5 hPa 0,0 l/m 1,9 km/h (1 Bft) W 279 2 min 0,000 mm 0,5 UV-I 287 W/m 1,0 C 1,1 C 3,2 km/h (1 Bft) 100,00 %
09.12.2016 10:48 1,3 C 98 % 1033,4 hPa 0,0 l/m 0,7 km/h (0 Bft) W 279 2 min 0,000 mm 0,6 UV-I 289 W/m 1,0 C 1,3 C 3,2 km/h (1 Bft) 100,00 %
09.12.2016 10:50 1,3 C 98 % 1033,4 hPa 0,0 l/m 2,0 km/h (1 Bft) W 279 2 min 0,000 mm 0,6 UV-I 294 W/m 1,0 C 1,3 C 3,2 km/h (1 Bft) 100,00 %
09.12.2016 10:52 1,4 C 98 % 1033,4 hPa 0,0 l/m 3,1 km/h (1 Bft) W 265 2 min 0,000 mm 0,6 UV-I 297 W/m 1,1 C 1,4 C 4,8 km/h (1 Bft) 97,87 %
09.12.2016 10:54 1,6 C 98 % 1033,4 hPa 0,0 l/m 3,2 km/h (1 Bft) W 262 2 min 0,000 mm 0,6 UV-I 304 W/m 1,3 C 1,6 C 4,8 km/h (1 Bft) 95,74 %
09.12.2016 10:56 1,7 C 98 % 1033,4 hPa 0,0 l/m 1,3 km/h (1 Bft) W 262 2 min 0,000 mm 0,6 UV-I 310 W/m 1,4 C 1,7 C 3,2 km/h (1 Bft) 100,00 %
09.12.2016 10:58 1,8 C 98 % 1033,4 hPa 0,0 l/m 3,9 km/h (1 Bft) W-SW 238 2 min 0,000 mm 0,6 UV-I 272 W/m 1,5 C 1,8 C 4,8 km/h (1 Bft) 100,00 %
09.12.2016 11:00 1,8 C 97 % 1033,3 hPa 0,0 l/m 2,0 km/h (1 Bft) W-SW 239 2 min 0,076 mm 0,6 UV-I 223 W/m 1,4 C 1,8 C 4,8 km/h (1 Bft) 97,37 %
09.12.2016 11:02 1,8 C 96 % 1033,3 hPa 0,0 l/m 3,0 km/h (1 Bft) W-SW 239 2 min 0,000 mm 0,6 UV-I 312 W/m 1,2 C 1,8 C 4,8 km/h (1 Bft) 100,00 %
09.12.2016 11:04 1,7 C 96 % 1033,3 hPa 0,0 l/m 2,8 km/h (1 Bft) W-SW 239 2 min 0,000 mm 0,6 UV-I 377 W/m 1,1 C 1,7 C 4,8 km/h (1 Bft) 100,00 %
09.12.2016 11:06 1,7 C 95 % 1033,3 hPa 0,0 l/m 2,0 km/h (1 Bft) W-SW 242 2 min 0,000 mm 0,6 UV-I 231 W/m 1,0 C 1,7 C 4,8 km/h (1 Bft) 100,00 %
09.12.2016 11:08 1,8 C 95 % 1033,3 hPa 0,0 l/m 2,8 km/h (1 Bft) W-NW 288 2 min 0,000 mm 0,6 UV-I 312 W/m 1,1 C 1,8 C 4,8 km/h (1 Bft) 100,00 %
09.12.2016 11:10 1,9 C 95 % 1033,3 hPa 0,0 l/m 3,0 km/h (1 Bft) W 274 2 min 0,000 mm 0,6 UV-I 348 W/m 1,2 C 1,9 C 4,8 km/h (1 Bft) 100,00 %
09.12.2016 11:12 1,9 C 95 % 1033,3 hPa 0,0 l/m 3,7 km/h (1 Bft) W 271 2 min 0,000 mm 0,6 UV-I 367 W/m 1,2 C 1,9 C 6,4 km/h (2 Bft) 100,00 %
09.12.2016 11:14 2,0 C 95 % 1033,3 hPa 0,0 l/m 2,0 km/h (1 Bft) W 274 2 min 0,000 mm 0,6 UV-I 307 W/m 1,3 C 2,0 C 4,8 km/h (1 Bft) 100,00 %
09.12.2016 11:16 2,0 C 94 % 1033,2 hPa 0,0 l/m 2,8 km/h (1 Bft) W 273 2 min 0,000 mm 0,6 UV-I 317 W/m 1,1 C 2,0 C 4,8 km/h (1 Bft) 100,00 %
09.12.2016 11:18 2,1 C 94 % 1033,2 hPa 0,0 l/m 2,7 km/h (1 Bft) W-NW 302 2 min 0,000 mm 0,6 UV-I 326 W/m 1,2 C 2,1 C 6,4 km/h (2 Bft) 97,56 %
09.12.2016 11:20 2,2 C 94 % 1033,2 hPa 0,0 l/m 2,8 km/h (1 Bft) W-NW 292 2 min 0,000 mm 0,6 UV-I 323 W/m 1,3 C 2,2 C 4,8 km/h (1 Bft) 96,23 %
09.12.2016 11:22 2,2 C 94 % 1033,2 hPa 0,0 l/m 2,9 km/h (1 Bft) W-NW 283 2 min 0,000 mm 0,7 UV-I 326 W/m 1,3 C 2,2 C 4,8 km/h (1 Bft) 97,37 %
09.12.2016 11:24 2,3 C 93 % 1033,3 hPa 0,0 l/m 3,3 km/h (1 Bft) W 266 2 min 0,000 mm 0,7 UV-I 328 W/m 1,3 C 2,3 C 9,7 km/h (2 Bft) 98,00 %
09.12.2016 11:26 2,3 C 93 % 1033,3 hPa 0,0 l/m 2,0 km/h (1 Bft) W 273 2 min 0,000 mm 0,7 UV-I 330 W/m 1,3 C 2,3 C 3,2 km/h (1 Bft) 98,00 %
09.12.2016 11:28 2,4 C 93 % 1033,3 hPa 0,0 l/m 2,5 km/h (1 Bft) W-NW 299 2 min 0,000 mm 0,7 UV-I 332 W/m 1,4 C 2,4 C 4,8 km/h (1 Bft) 98,00 %
09.12.2016 11:30 2,6 C 93 % 1033,3 hPa 0,0 l/m 1,9 km/h (1 Bft) W-NW 296 2 min 0,000 mm 0,7 UV-I 332 W/m 1,6 C 2,6 C 4,8 km/h (1 Bft) 97,56 %
09.12.2016 11:32 2,5 C 92 % 1033,2 hPa 0,0 l/m 2,5 km/h (1 Bft) W-NW 297 2 min 0,000 mm 0,7 UV-I 333 W/m 1,3 C 2,5 C 4,8 km/h (1 Bft) 96,00 %
09.12.2016 11:34 2,6 C 93 % 1033,3 hPa 0,0 l/m 1,8 km/h (1 Bft) W-NW 297 2 min 0,000 mm 0,7 UV-I 333 W/m 1,6 C 2,6 C 3,2 km/h (1 Bft) 95,83 %
09.12.2016 11:36 2,7 C 93 % 1033,2 hPa 0,0 l/m 0,9 km/h (0 Bft) W-NW 297 2 min 0,000 mm 0,7 UV-I 337 W/m 1,7 C 2,7 C 3,2 km/h (1 Bft) 98,57 %
09.12.2016 11:38 2,7 C 93 % 1033,3 hPa 0,0 l/m 1,6 km/h (1 Bft) W-NW 297 2 min 0,000 mm 0,7 UV-I 337 W/m 1,7 C 2,7 C 3,2 km/h (1 Bft) 100,00 %
09.12.2016 11:40 2,8 C 93 % 1033,3 hPa 0,0 l/m 1,9 km/h (1 Bft) W-NW 300 2 min 0,000 mm 0,7 UV-I 321 W/m 1,8 C 2,8 C 3,2 km/h (1 Bft) 100,00 %
09.12.2016 11:42 2,8 C 92 % 1033,2 hPa 0,0 l/m 2,0 km/h (1 Bft) W-NW 300 2 min 0,000 mm 0,7 UV-I 313 W/m 1,6 C 2,8 C 3,2 km/h (1 Bft) 100,00 %
09.12.2016 11:44 2,8 C 92 % 1033,2 hPa 0,0 l/m 1,8 km/h (1 Bft) NW 305 2 min 0,000 mm 0,7 UV-I 307 W/m 1,6 C 2,8 C 4,8 km/h (1 Bft) 96,00 %
09.12.2016 11:46 2,8 C 93 % 1033,3 hPa 0,0 l/m 1,5 km/h (1 Bft) NW 305 2 min 0,000 mm 0,7 UV-I 288 W/m 1,8 C 2,8 C 3,2 km/h (1 Bft) 97,37 %
09.12.2016 11:48 2,9 C 91 % 1033,2 hPa 0,0 l/m 2,0 km/h (1 Bft) W-NW 300 2 min 0,000 mm 0,7 UV-I 357 W/m 1,6 C 2,9 C 3,2 km/h (1 Bft) 100,00 %
09.12.2016 11:50 3,1 C 92 % 1033,2 hPa 0,0 l/m 1,9 km/h (1 Bft) W-NW 300 2 min 0,000 mm 0,7 UV-I 363 W/m 1,9 C 3,1 C 4,8 km/h (1 Bft) 100,00 %
09.12.2016 11:52 3,1 C 91 % 1033,2 hPa 0,0 l/m 2,4 km/h (1 Bft) NW 306 2 min 0,000 mm 0,7 UV-I 358 W/m 1,8 C 3,1 C 4,8 km/h (1 Bft) 98,39 %
09.12.2016 11:54 3,2 C 90 % 1033,1 hPa 0,0 l/m 0,7 km/h (0 Bft) NW 306 2 min 0,000 mm 0,7 UV-I 298 W/m 1,7 C 3,2 C 3,2 km/h (1 Bft) 100,00 %
09.12.2016 11:56 3,2 C 91 % 1033,1 hPa 0,0 l/m 0,9 km/h (0 Bft) NW 306 2 min 0,000 mm 0,6 UV-I 204 W/m 1,9 C 3,2 C 3,2 km/h (1 Bft) 97,37 %
09.12.2016 11:58 3,2 C 91 % 1033,1 hPa 0,0 l/m 1,7 km/h (1 Bft) NW 306 2 min 0,000 mm 0,7 UV-I 261 W/m 1,9 C 3,2 C 3,2 km/h (1 Bft) 98,15 %
09.12.2016 12:00 3,2 C 91 % 1033,2 hPa 0,0 l/m 2,2 km/h (1 Bft) NW 304 2 min 0,102 mm 0,7 UV-I 277 W/m 1,9 C 3,2 C 4,8 km/h (1 Bft) 100,00 %
09.12.2016 12:02 3,2 C 91 % 1033,2 hPa 0,0 l/m 1,6 km/h (1 Bft) NW 304 2 min 0,000 mm 0,7 UV-I 303 W/m 1,9 C 3,2 C 4,8 km/h (1 Bft) 100,00 %
09.12.2016 12:04 3,3 C 91 % 1033,2 hPa 0,0 l/m 1,9 km/h (1 Bft) NW 304 2 min 0,000 mm 0,7 UV-I 325 W/m 2,0 C 3,3 C 4,8 km/h (1 Bft) 100,00 %
09.12.2016 12:06 3,4 C 91 % 1033,2 hPa 0,0 l/m 1,7 km/h (1 Bft) NW 304 2 min 0,000 mm 0,7 UV-I 333 W/m 2,1 C 3,4 C 4,8 km/h (1 Bft) 100,00 %
09.12.2016 12:08 3,5 C 91 % 1033,1 hPa 0,0 l/m 1,8 km/h (1 Bft) NW 304 2 min 0,000 mm 0,7 UV-I 318 W/m 2,2 C 3,5 C 3,2 km/h (1 Bft) 100,00 %
09.12.2016 12:10 3,6 C 90 % 1033,1 hPa 0,0 l/m 3,3 km/h (1 Bft) NW 304 2 min 0,000 mm 0,7 UV-I 320 W/m 2,1 C 3,6 C 4,8 km/h (1 Bft) 100,00 %
09.12.2016 12:12 3,7 C 89 % 1033,1 hPa 0,0 l/m 2,1 km/h (1 Bft) W-NW 298 2 min 0,000 mm 0,7 UV-I 341 W/m 2,1 C 3,7 C 4,8 km/h (1 Bft) 100,00 %
09.12.2016 12:14 3,8 C 88 % 1033,1 hPa 0,0 l/m 2,3 km/h (1 Bft) W-NW 298 2 min 0,000 mm 0,7 UV-I 315 W/m 2,0 C 3,8 C 4,8 km/h (1 Bft) 100,00 %
09.12.2016 12:16 3,9 C 87 % 1033,1 hPa 0,0 l/m 2,6 km/h (1 Bft) W-NW 292 2 min 0,000 mm 0,7 UV-I 325 W/m 1,9 C 3,9 C 4,8 km/h (1 Bft) 100,00 %
09.12.2016 12:18 3,9 C 86 % 1033,1 hPa 0,0 l/m 4,1 km/h (1 Bft) W-NW 293 2 min 0,000 mm 0,7 UV-I 333 W/m 1,8 C 3,9 C 6,4 km/h (2 Bft) 98,11 %
09.12.2016 12:20 4,0 C 86 % 1033,0 hPa 0,0 l/m 1,7 km/h (1 Bft) W-NW 294 2 min 0,000 mm 0,7 UV-I 332 W/m 1,9 C 4,0 C 3,2 km/h (1 Bft) 100,00 %
09.12.2016 12:22 4,2 C 86 % 1033,0 hPa 0,0 l/m 2,1 km/h (1 Bft) W-NW 294 2 min 0,000 mm 0,6 UV-I 307 W/m 2,1 C 4,2 C 3,2 km/h (1 Bft) 100,00 %
09.12.2016 12:24 4,2 C 87 % 1033,1 hPa 0,0 l/m 2,0 km/h (1 Bft) W-NW 288 2 min 0,000 mm 0,6 UV-I 253 W/m 2,2 C 4,2 C 4,8 km/h (1 Bft) 100,00 %
09.12.2016 12:26 4,2 C 87 % 1033,0 hPa 0,0 l/m 3,1 km/h (1 Bft) W-NW 288 2 min 0,000 mm 0,7 UV-I 308 W/m 2,2 C 4,2 C 4,8 km/h (1 Bft) 100,00 %
09.12.2016 12:28 4,3 C 86 % 1033,0 hPa 0,0 l/m 3,3 km/h (1 Bft) W 281 2 min 0,000 mm 0,7 UV-I 354 W/m 2,2 C 4,3 C 6,4 km/h (2 Bft) 100,00 %
09.12.2016 12:30 4,4 C 87 % 1033,1 hPa 0,0 l/m 2,7 km/h (1 Bft) W-NW 289 2 min 0,000 mm 0,7 UV-I 372 W/m 2,4 C 4,4 C 4,8 km/h (1 Bft) 97,37 %
09.12.2016 12:32 4,6 C 86 % 1033,0 hPa 0,0 l/m 1,9 km/h (1 Bft) W-NW 289 2 min 0,000 mm 0,7 UV-I 406 W/m 2,5 C 4,6 C 4,8 km/h (1 Bft) 100,00 %
09.12.2016 12:34 4,7 C 86 % 1033,0 hPa 0,0 l/m 2,9 km/h (1 Bft) W-NW 293 2 min 0,000 mm 0,7 UV-I 369 W/m 2,6 C 4,7 C 4,8 km/h (1 Bft) 96,08 %
09.12.2016 12:36 4,8 C 84 % 1032,8 hPa 0,0 l/m 1,0 km/h (0 Bft) W-NW 293 2 min 0,000 mm 0,7 UV-I 398 W/m 2,3 C 4,8 C 4,8 km/h (1 Bft) 97,56 %
09.12.2016 12:38 4,9 C 83 % 1032,8 hPa 0,0 l/m 3,1 km/h (1 Bft) W 267 2 min 0,000 mm 0,7 UV-I 388 W/m 2,3 C 4,9 C 11,3 km/h (2 Bft) 95,74 %
09.12.2016 12:40 4,9 C 80 % 1032,8 hPa 0,0 l/m 7,4 km/h (2 Bft) W 280 2 min 0,000 mm 0,7 UV-I 358 W/m 1,7 C 4,0 C 11,3 km/h (2 Bft) 98,11 %
09.12.2016 12:42 4,9 C 81 % 1032,8 hPa 0,0 l/m 2,5 km/h (1 Bft) W 281 2 min 0,000 mm 0,6 UV-I 252 W/m 1,9 C 4,9 C 6,4 km/h (2 Bft) 97,56 %
09.12.2016 12:44 4,8 C 81 % 1032,8 hPa 0,0 l/m 4,2 km/h (1 Bft) W-SW 246 2 min 0,000 mm 0,6 UV-I 224 W/m 1,8 C 4,8 C 9,7 km/h (2 Bft) 96,23 %
09.12.2016 12:46 4,6 C 84 % 1032,8 hPa 0,0 l/m 3,2 km/h (1 Bft) W 281 2 min 0,000 mm 0,6 UV-I 319 W/m 2,1 C 4,6 C 6,4 km/h (2 Bft) 97,56 %
09.12.2016 12:48 4,6 C 84 % 1032,7 hPa 0,0 l/m 3,1 km/h (1 Bft) W-SW 252 2 min 0,000 mm 0,6 UV-I 315 W/m 2,1 C 4,6 C 9,7 km/h (2 Bft) 97,73 %
09.12.2016 12:50 4,6 C 82 % 1032,8 hPa 0,0 l/m 6,0 km/h (2 Bft) W-SW 254 0 min 0,000 mm 0,5 UV-I 124 W/m 1,8 C 4,6 C 11,3 km/h (2 Bft) 97,87 %
09.12.2016 12:52 4,4 C 82 % 1032,8 hPa 0,0 l/m 4,8 km/h (1 Bft) W 264 0 min 0,000 mm 0,6 UV-I 107 W/m 1,6 C 4,4 C 11,3 km/h (2 Bft) 98,00 %
09.12.2016 12:54 4,3 C 83 % 1032,8 hPa 0,0 l/m 3,8 km/h (1 Bft) W-NW 284 2 min 0,000 mm 0,6 UV-I 275 W/m 1,7 C 4,3 C 9,7 km/h (2 Bft) 97,73 %
09.12.2016 12:56 4,3 C 83 % 1032,7 hPa 0,0 l/m 1,9 km/h (1 Bft) W-NW 284 0 min 0,000 mm 0,6 UV-I 141 W/m 1,7 C 4,3 C 3,2 km/h (1 Bft) 98,00 %
09.12.2016 12:58 4,3 C 83 % 1032,7 hPa 0,0 l/m 2,2 km/h (1 Bft) W 269 0 min 0,000 mm 0,6 UV-I 137 W/m 1,7 C 4,3 C 4,8 km/h (1 Bft) 97,44 %
09.12.2016 13:00 4,2 C 83 % 1032,7 hPa 0,0 l/m 2,1 km/h (1 Bft) W 270 0 min 0,102 mm 0,6 UV-I 122 W/m 1,6 C 4,2 C 4,8 km/h (1 Bft) 100,00 %
09.12.2016 13:02 4,2 C 83 % 1032,7 hPa 0,0 l/m 1,2 km/h (1 Bft) W 270 0 min 0,000 mm 0,6 UV-I 146 W/m 1,6 C 4,2 C 1,6 km/h (1 Bft) 100,00 %
09.12.2016 13:04 4,3 C 83 % 1032,7 hPa 0,0 l/m 2,4 km/h (1 Bft) W-SW 257 2 min 0,000 mm 0,6 UV-I 269 W/m 1,7 C 4,3 C 4,8 km/h (1 Bft) 100,00 %
09.12.2016 13:06 4,4 C 82 % 1032,7 hPa 0,0 l/m 3,7 km/h (1 Bft) W-NW 285 2 min 0,000 mm 0,6 UV-I 293 W/m 1,6 C 4,4 C 9,7 km/h (2 Bft) 100,00 %
09.12.2016 13:08 4,5 C 82 % 1032,7 hPa 0,0 l/m 4,8 km/h (1 Bft) W 266 2 min 0,000 mm 0,6 UV-I 293 W/m 1,7 C 4,5 C 9,7 km/h (2 Bft) 100,00 %
09.12.2016 13:10 4,6 C 81 % 1032,7 hPa 0,0 l/m 4,4 km/h (1 Bft) W-SW 254 2 min 0,000 mm 0,6 UV-I 288 W/m 1,6 C 4,6 C 6,4 km/h (2 Bft) 98,21 %
09.12.2016 13:12 4,7 C 80 % 1032,7 hPa 0,0 l/m 2,5 km/h (1 Bft) W-NW 282 2 min 0,000 mm 0,6 UV-I 284 W/m 1,6 C 4,7 C 6,4 km/h (2 Bft) 96,00 %
09.12.2016 13:14 4,7 C 79 % 1032,6 hPa 0,0 l/m 2,3 km/h (1 Bft) NW 307 2 min 0,000 mm 0,6 UV-I 282 W/m 1,4 C 4,7 C 4,8 km/h (1 Bft) 100,00 %
09.12.2016 13:16 4,8 C 79 % 1032,6 hPa 0,0 l/m 5,1 km/h (1 Bft) W 279 2 min 0,000 mm 0,5 UV-I 279 W/m 1,5 C 4,8 C 12,9 km/h (3 Bft) 100,00 %
09.12.2016 13:18 4,8 C 79 % 1032,6 hPa 0,0 l/m 5,1 km/h (1 Bft) W 270 2 min 0,000 mm 0,5 UV-I 278 W/m 1,5 C 4,8 C 11,3 km/h (2 Bft) 97,37 %
09.12.2016 13:20 4,8 C 80 % 1032,6 hPa 0,0 l/m 4,5 km/h (1 Bft) W 281 2 min 0,000 mm 0,5 UV-I 277 W/m 1,6 C 4,8 C 9,7 km/h (2 Bft) 100,00 %
09.12.2016 13:22 4,8 C 79 % 1032,6 hPa 0,0 l/m 4,9 km/h (1 Bft) NW 309 2 min 0,000 mm 0,5 UV-I 274 W/m 1,5 C 4,8 C 11,3 km/h (2 Bft) 100,00 %
09.12.2016 13:24 4,9 C 78 % 1032,5 hPa 0,0 l/m 4,2 km/h (1 Bft) W-NW 301 2 min 0,000 mm 0,5 UV-I 268 W/m 1,4 C 4,9 C 11,3 km/h (2 Bft) 97,87 %
09.12.2016 13:26 4,9 C 78 % 1032,5 hPa 0,0 l/m 2,6 km/h (1 Bft) W-NW 290 2 min 0,000 mm 0,5 UV-I 259 W/m 1,4 C 4,9 C 4,8 km/h (1 Bft) 100,00 %
09.12.2016 13:28 4,9 C 79 % 1032,5 hPa 0,0 l/m 1,8 km/h (1 Bft) W-NW 292 2 min 0,000 mm 0,5 UV-I 242 W/m 1,6 C 4,9 C 3,2 km/h (1 Bft) 100,00 %
09.12.2016 13:30 4,9 C 78 % 1032,6 hPa 0,0 l/m 5,1 km/h (1 Bft) W-NW 284 2 min 0,000 mm 0,5 UV-I 264 W/m 1,4 C 4,9 C 11,3 km/h (2 Bft) 100,00 %
09.12.2016 13:32 4,9 C 77 % 1032,5 hPa 0,0 l/m 8,4 km/h (2 Bft) W-NW 286 2 min 0,000 mm 0,5 UV-I 260 W/m 1,2 C 3,2 C 12,9 km/h (3 Bft) 100,00 %
09.12.2016 13:34 5,0 C 75 % 1032,5 hPa 0,0 l/m 7,2 km/h (2 Bft) W-NW 288 2 min 0,000 mm 0,5 UV-I 256 W/m 0,9 C 4,3 C 12,9 km/h (3 Bft) 98,11 %
09.12.2016 13:36 5,1 C 76 % 1032,5 hPa 0,0 l/m 4,3 km/h (1 Bft) W-NW 288 2 min 0,000 mm 0,5 UV-I 253 W/m 1,2 C 5,1 C 9,7 km/h (2 Bft) 100,00 %
09.12.2016 13:38 5,1 C 75 % 1032,4 hPa 0,0 l/m 4,5 km/h (1 Bft) W-NW 283 2 min 0,000 mm 0,5 UV-I 250 W/m 1,0 C 5,1 C 11,3 km/h (2 Bft) 100,00 %
09.12.2016 13:40 5,1 C 76 % 1032,3 hPa 0,0 l/m 7,0 km/h (2 Bft) W 260 2 min 0,000 mm 0,5 UV-I 246 W/m 1,2 C 4,6 C 11,3 km/h (2 Bft) 100,00 %
09.12.2016 13:42 5,2 C 75 % 1032,3 hPa 0,0 l/m 4,0 km/h (1 Bft) W 263 2 min 0,000 mm 0,5 UV-I 243 W/m 1,1 C 5,2 C 9,7 km/h (2 Bft) 100,00 %
09.12.2016 13:44 5,3 C 75 % 1032,3 hPa 0,0 l/m 5,5 km/h (1 Bft) W 263 2 min 0,000 mm 0,0 UV-I 233 W/m 1,2 C 5,3 C 9,7 km/h (2 Bft) 100,00 %
09.12.2016 13:46 5,4 C 75 % 1032,2 hPa 0,0 l/m 4,5 km/h (1 Bft) W 270 2 min 0,000 mm 0,0 UV-I 236 W/m 1,3 C 5,4 C 6,4 km/h (2 Bft) 100,00 %
09.12.2016 13:48 5,4 C 74 % 1032,2 hPa 0,0 l/m 6,0 km/h (2 Bft) W 273 2 min 0,000 mm 0,0 UV-I 236 W/m 1,1 C 5,4 C 9,7 km/h (2 Bft) 97,87 %
09.12.2016 13:50 5,5 C 75 % 1032,3 hPa 0,0 l/m 2,5 km/h (1 Bft) W-NW 284 2 min 0,000 mm 0,0 UV-I 233 W/m 1,4 C 5,5 C 4,8 km/h (1 Bft) 98,00 %
09.12.2016 13:52 5,4 C 75 % 1032,2 hPa 0,0 l/m 3,0 km/h (1 Bft) W 277 2 min 0,000 mm 0,0 UV-I 230 W/m 1,3 C 5,4 C 4,8 km/h (1 Bft) 100,00 %
09.12.2016 13:54 5,3 C 77 % 1032,2 hPa 0,0 l/m 3,1 km/h (1 Bft) W-SW 254 2 min 0,000 mm 0,0 UV-I 228 W/m 1,6 C 5,3 C 6,4 km/h (2 Bft) 98,00 %
09.12.2016 13:56 5,3 C 76 % 1032,2 hPa 0,0 l/m 4,7 km/h (1 Bft) W-SW 253 2 min 0,000 mm 0,0 UV-I 226 W/m 1,4 C 5,3 C 9,7 km/h (2 Bft) 100,00 %
09.12.2016 13:58 5,3 C 75 % 1032,3 hPa 0,0 l/m 2,7 km/h (1 Bft) W-NW 284 2 min 0,000 mm 0,0 UV-I 223 W/m 1,2 C 5,3 C 6,4 km/h (2 Bft) 100,00 %
09.12.2016 14:00 5,3 C 75 % 1032,2 hPa 0,0 l/m 2,7 km/h (1 Bft) W 267 2 min 0,000 mm 0,0 UV-I 222 W/m 1,2 C 5,3 C 4,8 km/h (1 Bft) 100,00 %
09.12.2016 14:02 5,3 C 75 % 1032,2 hPa 0,0 l/m 3,9 km/h (1 Bft) W 271 2 min 0,101 mm 0,0 UV-I 217 W/m 1,2 C 5,3 C 6,4 km/h (2 Bft) 100,00 %
09.12.2016 14:04 5,3 C 75 % 1032,3 hPa 0,0 l/m 4,4 km/h (1 Bft) W 270 2 min 0,000 mm 0,0 UV-I 214 W/m 1,2 C 5,3 C 6,4 km/h (2 Bft) 97,87 %
09.12.2016 14:06 5,4 C 75 % 1032,1 hPa 0,0 l/m 4,0 km/h (1 Bft) W 270 2 min 0,000 mm 0,0 UV-I 212 W/m 1,3 C 5,4 C 6,4 km/h (2 Bft) 97,37 %
09.12.2016 14:08 5,3 C 75 % 1032,1 hPa 0,0 l/m 5,7 km/h (1 Bft) W 263 2 min 0,000 mm 0,0 UV-I 202 W/m 1,2 C 5,3 C 9,7 km/h (2 Bft) 98,21 %
09.12.2016 14:10 5,4 C 75 % 1032,1 hPa 0,0 l/m 6,3 km/h (2 Bft) W 270 2 min 0,000 mm 0,0 UV-I 181 W/m 1,3 C 5,4 C 11,3 km/h (2 Bft) 97,37 %
09.12.2016 14:12 5,3 C 75 % 1032,0 hPa 0,0 l/m 5,8 km/h (2 Bft) W 271 2 min 0,000 mm 0,0 UV-I 194 W/m 1,2 C 5,3 C 9,7 km/h (2 Bft) 96,00 %
09.12.2016 14:14 5,3 C 76 % 1032,0 hPa 0,0 l/m 5,8 km/h (2 Bft) W 261 2 min 0,000 mm 0,0 UV-I 194 W/m 1,4 C 5,3 C 9,7 km/h (2 Bft) 94,34 %
09.12.2016 14:16 5,3 C 75 % 1032,0 hPa 0,0 l/m 7,6 km/h (2 Bft) W 263 2 min 0,000 mm 0,0 UV-I 193 W/m 1,2 C 4,3 C 12,9 km/h (3 Bft) 97,44 %
09.12.2016 14:18 5,4 C 75 % 1032,0 hPa 0,0 l/m 7,5 km/h (2 Bft) W 263 2 min 0,000 mm 0,0 UV-I 191 W/m 1,3 C 4,4 C 12,9 km/h (3 Bft) 97,96 %
09.12.2016 14:20 5,4 C 75 % 1031,9 hPa 0,0 l/m 9,3 km/h (2 Bft) W 266 2 min 0,000 mm 0,0 UV-I 188 W/m 1,3 C 3,0 C 14,5 km/h (3 Bft) 97,87 %
09.12.2016 14:22 5,4 C 75 % 1031,9 hPa 0,0 l/m 6,3 km/h (2 Bft) W 274 2 min 0,000 mm 0,0 UV-I 184 W/m 1,3 C 5,4 C 9,7 km/h (2 Bft) 96,15 %
09.12.2016 14:24 5,4 C 75 % 1032,0 hPa 0,0 l/m 4,4 km/h (1 Bft) W 271 2 min 0,000 mm 0,0 UV-I 181 W/m 1,3 C 5,4 C 9,7 km/h (2 Bft) 95,83 %
09.12.2016 14:26 5,4 C 75 % 1031,9 hPa 0,0 l/m 8,9 km/h (2 Bft) W 275 2 min 0,000 mm 0,0 UV-I 178 W/m 1,3 C 3,3 C 12,9 km/h (3 Bft) 94,74 %
09.12.2016 14:28 5,4 C 75 % 1031,9 hPa 0,0 l/m 3,9 km/h (1 Bft) W-SW 255 2 min 0,000 mm 0,0 UV-I 173 W/m 1,3 C 5,4 C 6,4 km/h (2 Bft) 98,00 %
09.12.2016 14:30 5,4 C 75 % 1031,9 hPa 0,0 l/m 3,7 km/h (1 Bft) W-NW 292 2 min 0,000 mm 0,0 UV-I 171 W/m 1,3 C 5,4 C 6,4 km/h (2 Bft) 100,00 %
09.12.2016 14:32 5,4 C 76 % 1031,9 hPa 0,0 l/m 1,7 km/h (1 Bft) W 266 2 min 0,000 mm 0,0 UV-I 167 W/m 1,5 C 5,4 C 4,8 km/h (1 Bft) 100,00 %
09.12.2016 14:34 5,3 C 76 % 1031,9 hPa 0,0 l/m 2,2 km/h (1 Bft) W 268 2 min 0,000 mm 0,0 UV-I 163 W/m 1,4 C 5,3 C 4,8 km/h (1 Bft) 100,00 %
09.12.2016 14:36 5,3 C 76 % 1031,9 hPa 0,0 l/m 3,8 km/h (1 Bft) W 268 2 min 0,000 mm 0,0 UV-I 160 W/m 1,4 C 5,3 C 6,4 km/h (2 Bft) 100,00 %
09.12.2016 14:38 5,4 C 76 % 1031,9 hPa 0,0 l/m 1,9 km/h (1 Bft) W 268 2 min 0,000 mm 0,0 UV-I 157 W/m 1,5 C 5,4 C 4,8 km/h (1 Bft) 100,00 %
09.12.2016 14:40 5,3 C 76 % 1031,8 hPa 0,0 l/m 1,0 km/h (0 Bft) W 268 2 min 0,000 mm 0,0 UV-I 154 W/m 1,4 C 5,3 C 3,2 km/h (1 Bft) 97,87 %
09.12.2016 14:42 5,4 C 75 % 1031,8 hPa 0,0 l/m 1,3 km/h (1 Bft) W 268 2 min 0,000 mm 0,0 UV-I 149 W/m 1,3 C 5,4 C 3,2 km/h (1 Bft) 100,00 %
09.12.2016 14:44 5,3 C 76 % 1031,9 hPa 0,0 l/m 1,9 km/h (1 Bft) W 268 2 min 0,000 mm 0,0 UV-I 147 W/m 1,4 C 5,3 C 4,8 km/h (1 Bft) 98,00 %
09.12.2016 14:46 5,3 C 76 % 1031,9 hPa 0,0 l/m 3,7 km/h (1 Bft) W 272 2 min 0,000 mm 0,0 UV-I 143 W/m 1,4 C 5,3 C 6,4 km/h (2 Bft) 100,00 %
09.12.2016 14:48 5,3 C 76 % 1031,9 hPa 0,0 l/m 4,1 km/h (1 Bft) W 265 2 min 0,000 mm 0,0 UV-I 140 W/m 1,4 C 5,3 C 6,4 km/h (2 Bft) 100,00 %
09.12.2016 14:50 5,3 C 75 % 1031,9 hPa 0,0 l/m 4,4 km/h (1 Bft) W-NW 291 2 min 0,000 mm 0,0 UV-I 137 W/m 1,2 C 5,3 C 9,7 km/h (2 Bft) 100,00 %
09.12.2016 14:52 5,3 C 75 % 1032,0 hPa 0,0 l/m 3,0 km/h (1 Bft) NW 311 2 min 0,000 mm 0,0 UV-I 133 W/m 1,2 C 5,3 C 6,4 km/h (2 Bft) 97,56 %
09.12.2016 14:54 5,3 C 75 % 1032,0 hPa 0,0 l/m 2,9 km/h (1 Bft) W-NW 302 2 min 0,000 mm 0,0 UV-I 128 W/m 1,2 C 5,3 C 4,8 km/h (1 Bft) 98,21 %
09.12.2016 14:56 5,3 C 75 % 1032,1 hPa 0,0 l/m 2,4 km/h (1 Bft) W 274 2 min 0,000 mm 0,0 UV-I 126 W/m 1,2 C 5,3 C 4,8 km/h (1 Bft) 100,00 %
09.12.2016 14:58 5,2 C 75 % 1032,0 hPa 0,0 l/m 2,8 km/h (1 Bft) W 269 2 min 0,000 mm 0,0 UV-I 122 W/m 1,1 C 5,2 C 4,8 km/h (1 Bft) 97,96 %
09.12.2016 15:00 5,2 C 75 % 1032,1 hPa 0,0 l/m 3,2 km/h (1 Bft) W 281 2 min 0,076 mm 0,0 UV-I 118 W/m 1,1 C 5,2 C 6,4 km/h (2 Bft) 100,00 %
09.12.2016 15:02 5,2 C 76 % 1032,0 hPa 0,0 l/m 2,6 km/h (1 Bft) NW 306 2 min 0,000 mm 0,0 UV-I 110 W/m 1,3 C 5,2 C 4,8 km/h (1 Bft) 100,00 %
09.12.2016 15:04 5,1 C 75 % 1031,9 hPa 0,0 l/m 3,5 km/h (1 Bft) W-NW 288 2 min 0,000 mm 0,0 UV-I 112 W/m 1,0 C 5,1 C 4,8 km/h (1 Bft) 100,00 %
09.12.2016 15:06 5,2 C 75 % 1031,9 hPa 0,0 l/m 5,6 km/h (1 Bft) W 281 2 min 0,000 mm 0,0 UV-I 108 W/m 1,1 C 5,2 C 9,7 km/h (2 Bft) 100,00 %
09.12.2016 15:08 5,2 C 75 % 1031,8 hPa 0,0 l/m 5,2 km/h (1 Bft) W 272 2 min 0,000 mm 0,0 UV-I 105 W/m 1,1 C 5,2 C 11,3 km/h (2 Bft) 100,00 %
09.12.2016 15:10 5,3 C 75 % 1031,8 hPa 0,0 l/m 2,8 km/h (1 Bft) W 272 2 min 0,000 mm 0,0 UV-I 101 W/m 1,2 C 5,3 C 4,8 km/h (1 Bft) 100,00 %
09.12.2016 15:12 5,3 C 75 % 1031,8 hPa 0,0 l/m 3,6 km/h (1 Bft) W 265 2 min 0,000 mm 0,0 UV-I 98 W/m 1,2 C 5,3 C 6,4 km/h (2 Bft) 97,37 %
09.12.2016 15:14 5,3 C 73 % 1031,8 hPa 0,0 l/m 5,5 km/h (1 Bft) W-SW 252 2 min 0,000 mm 0,0 UV-I 94 W/m 0,9 C 5,3 C 9,7 km/h (2 Bft) 100,00 %
09.12.2016 15:16 5,3 C 74 % 1031,7 hPa 0,0 l/m 5,0 km/h (1 Bft) W-NW 284 2 min 0,000 mm 0,0 UV-I 90 W/m 1,0 C 5,3 C 6,4 km/h (2 Bft) 100,00 %
09.12.2016 15:18 5,3 C 74 % 1031,6 hPa 0,0 l/m 4,9 km/h (1 Bft) W 262 2 min 0,000 mm 0,0 UV-I 87 W/m 1,0 C 5,3 C 8,0 km/h (2 Bft) 97,87 %
09.12.2016 15:20 5,3 C 73 % 1031,6 hPa 0,0 l/m 4,9 km/h (1 Bft) W-SW 254 2 min 0,000 mm 0,0 UV-I 84 W/m 0,9 C 5,3 C 9,7 km/h (2 Bft) 100,00 %
09.12.2016 15:22 5,3 C 73 % 1031,6 hPa 0,0 l/m 4,9 km/h (1 Bft) W 270 2 min 0,000 mm 0,0 UV-I 79 W/m 0,9 C 5,3 C 6,4 km/h (2 Bft) 100,00 %
09.12.2016 15:24 5,3 C 73 % 1031,6 hPa 0,0 l/m 3,3 km/h (1 Bft) W 275 2 min 0,000 mm 0,0 UV-I 75 W/m 0,9 C 5,3 C 6,4 km/h (2 Bft) 100,00 %
09.12.2016 15:26 5,3 C 73 % 1031,5 hPa 0,0 l/m 2,1 km/h (1 Bft) W 273 2 min 0,000 mm 0,0 UV-I 72 W/m 0,9 C 5,3 C 4,8 km/h (1 Bft) 100,00 %
09.12.2016 15:28 5,1 C 74 % 1031,6 hPa 0,0 l/m 1,7 km/h (1 Bft) W 279 2 min 0,000 mm 0,0 UV-I 68 W/m 0,9 C 5,1 C 4,8 km/h (1 Bft) 100,00 %
09.12.2016 15:30 4,8 C 75 % 1031,6 hPa 0,0 l/m 0,7 km/h (0 Bft) W 280 2 min 0,000 mm 0,0 UV-I 63 W/m 0,8 C 4,8 C 3,2 km/h (1 Bft) 100,00 %
09.12.2016 15:32 4,7 C 76 % 1031,6 hPa 0,0 l/m 0,1 km/h (0 Bft) W 280 2 min 0,000 mm 0,0 UV-I 60 W/m 0,8 C 4,7 C 1,6 km/h (1 Bft) 100,00 %
09.12.2016 15:34 4,5 C 77 % 1031,6 hPa 0,0 l/m 0,2 km/h (0 Bft) W 280 2 min 0,000 mm 0,0 UV-I 56 W/m 0,8 C 4,5 C 1,6 km/h (1 Bft) 100,00 %
09.12.2016 15:36 4,3 C 78 % 1031,6 hPa 0,0 l/m 0,2 km/h (0 Bft) W 280 2 min 0,000 mm 0,0 UV-I 53 W/m 0,8 C 4,3 C 1,6 km/h (1 Bft) 100,00 %
09.12.2016 15:38 4,3 C 79 % 1031,6 hPa 0,0 l/m 0,6 km/h (0 Bft) W 280 2 min 0,000 mm 0,0 UV-I 48 W/m 1,0 C 4,3 C 3,2 km/h (1 Bft) 100,00 %
09.12.2016 15:40 4,2 C 79 % 1031,6 hPa 0,0 l/m 0,1 km/h (0 Bft) W 280 2 min 0,000 mm 0,0 UV-I 46 W/m 0,9 C 4,2 C 1,6 km/h (1 Bft) 96,00 %
09.12.2016 15:42 4,1 C 80 % 1031,6 hPa 0,0 l/m 1,4 km/h (1 Bft) W 280 2 min 0,000 mm 0,0 UV-I 42 W/m 1,0 C 4,1 C 4,8 km/h (1 Bft) 100,00 %
09.12.2016 15:44 3,8 C 82 % 1031,6 hPa 0,0 l/m 2,2 km/h (1 Bft) W 280 2 min 0,000 mm 0,0 UV-I 40 W/m 1,0 C 3,8 C 4,8 km/h (1 Bft) 98,11 %
09.12.2016 15:46 3,6 C 83 % 1031,6 hPa 0,0 l/m 2,5 km/h (1 Bft) W 280 2 min 0,000 mm 0,0 UV-I 34 W/m 1,0 C 3,6 C 4,8 km/h (1 Bft) 100,00 %
09.12.2016 15:48 3,4 C 84 % 1031,6 hPa 0,0 l/m 2,5 km/h (1 Bft) W 280 2 min 0,000 mm 0,0 UV-I 24 W/m 1,0 C 3,4 C 4,8 km/h (1 Bft) 100,00 %
09.12.2016 15:50 3,5 C 83 % 1031,7 hPa 0,0 l/m 3,7 km/h (1 Bft) W 270 0 min 0,000 mm 0,0 UV-I 16 W/m 0,9 C 3,5 C 11,3 km/h (2 Bft) 100,00 %
09.12.2016 15:52 3,6 C 82 % 1031,8 hPa 0,0 l/m 4,4 km/h (1 Bft) W 274 0 min 0,000 mm 0,0 UV-I 14 W/m 0,8 C 3,6 C 6,4 km/h (2 Bft) 100,00 %
09.12.2016 15:54 3,7 C 81 % 1031,8 hPa 0,0 l/m 3,8 km/h (1 Bft) W-NW 292 0 min 0,000 mm 0,0 UV-I 12 W/m 0,7 C 3,7 C 6,4 km/h (2 Bft) 97,87 %
09.12.2016 15:56 3,8 C 80 % 1031,9 hPa 0,0 l/m 3,3 km/h (1 Bft) W-NW 294 2 min 0,000 mm 0,0 UV-I 12 W/m 0,7 C 3,8 C 6,4 km/h (2 Bft) 97,73 %
09.12.2016 15:59 3,7 C 80 % 1032,0 hPa 0,0 l/m 3,8 km/h (1 Bft) W-NW 282 0 min 0,000 mm 0,0 UV-I 11 W/m 0,6 C 3,7 C 9,7 km/h (2 Bft) 98,65 %
09.12.2016 16:00 3,7 C 80 % 1032,0 hPa 0,0 l/m 4,6 km/h (1 Bft) W 278 0 min 0,026 mm 0,0 UV-I 11 W/m 0,6 C 3,7 C 6,4 km/h (2 Bft) 95,65 %
09.12.2016 16:02 3,7 C 80 % 1032,0 hPa 0,0 l/m 4,4 km/h (1 Bft) W 281 0 min 0,000 mm 0,0 UV-I 11 W/m 0,6 C 3,7 C 9,7 km/h (2 Bft) 100,00 %
09.12.2016 16:04 3,7 C 80 % 1032,0 hPa 0,0 l/m 2,9 km/h (1 Bft) W-NW 295 0 min 0,000 mm 0,0 UV-I 10 W/m 0,6 C 3,7 C 4,8 km/h (1 Bft) 98,21 %
09.12.2016 16:06 3,7 C 80 % 1032,1 hPa 0,0 l/m 1,8 km/h (1 Bft) W-NW 290 0 min 0,000 mm 0,0 UV-I 9 W/m 0,6 C 3,7 C 4,8 km/h (1 Bft) 100,00 %
09.12.2016 16:08 3,6 C 80 % 1032,1 hPa 0,0 l/m 3,7 km/h (1 Bft) W-NW 293 0 min 0,000 mm 0,0 UV-I 9 W/m 0,5 C 3,6 C 6,4 km/h (2 Bft) 100,00 %
09.12.2016 16:10 3,6 C 79 % 1032,1 hPa 0,0 l/m 3,1 km/h (1 Bft) W-NW 298 0 min 0,000 mm 0,0 UV-I 7 W/m 0,3 C 3,6 C 6,4 km/h (2 Bft) 97,96 %
09.12.2016 16:12 3,7 C 79 % 1032,1 hPa 0,0 l/m 2,5 km/h (1 Bft) W-NW 298 0 min 0,000 mm 0,0 UV-I 7 W/m 0,4 C 3,7 C 6,4 km/h (2 Bft) 100,00 %
09.12.2016 16:14 3,6 C 79 % 1032,2 hPa 0,0 l/m 2,2 km/h (1 Bft) W 281 0 min 0,000 mm 0,0 UV-I 7 W/m 0,3 C 3,6 C 9,7 km/h (2 Bft) 100,00 %
09.12.2016 16:16 3,6 C 79 % 1032,2 hPa 0,0 l/m 4,0 km/h (1 Bft) W-NW 292 0 min 0,000 mm 0,0 UV-I 7 W/m 0,3 C 3,6 C 8,0 km/h (2 Bft) 100,00 %
09.12.2016 16:18 3,6 C 79 % 1032,2 hPa 0,0 l/m 3,8 km/h (1 Bft) W-NW 292 0 min 0,000 mm 0,0 UV-I 5 W/m 0,3 C 3,6 C 6,4 km/h (2 Bft) 98,21 %
09.12.2016 16:20 3,5 C 79 % 1032,2 hPa 0,0 l/m 3,6 km/h (1 Bft) W-NW 292 0 min 0,000 mm 0,0 UV-I 5 W/m 0,2 C 3,5 C 4,8 km/h (1 Bft) 100,00 %
09.12.2016 16:22 3,5 C 79 % 1032,3 hPa 0,0 l/m 4,2 km/h (1 Bft) W-NW 301 0 min 0,000 mm 0,0 UV-I 5 W/m 0,2 C 3,5 C 6,4 km/h (2 Bft) 100,00 %
09.12.2016 16:24 3,4 C 79 % 1032,2 hPa 0,0 l/m 3,7 km/h (1 Bft) W-NW 282 0 min 0,000 mm 0,0 UV-I 4 W/m 0,1 C 3,4 C 6,4 km/h (2 Bft) 100,00 %
09.12.2016 16:26 3,4 C 79 % 1032,3 hPa 0,0 l/m 3,7 km/h (1 Bft) W 281 0 min 0,000 mm 0,0 UV-I 0 W/m 0,1 C 3,4 C 9,7 km/h (2 Bft) 100,00 %
09.12.2016 16:28 3,3 C 79 % 1032,3 hPa 0,0 l/m 4,3 km/h (1 Bft) W 269 0 min 0,000 mm 0,0 UV-I 0 W/m 0,0 C 3,3 C 6,4 km/h (2 Bft) 100,00 %
09.12.2016 16:30 3,3 C 79 % 1032,3 hPa 0,0 l/m 4,8 km/h (1 Bft) W-SW 257 0 min 0,000 mm 0,0 UV-I 0 W/m 0,0 C 3,3 C 11,3 km/h (2 Bft) 98,11 %
09.12.2016 16:32 3,3 C 79 % 1032,3 hPa 0,0 l/m 5,5 km/h (1 Bft) W 279 0 min 0,000 mm 0,0 UV-I 0 W/m 0,0 C 3,3 C 11,3 km/h (2 Bft) 100,00 %
09.12.2016 16:34 3,2 C 79 % 1032,3 hPa 0,0 l/m 4,3 km/h (1 Bft) W 279 0 min 0,000 mm 0,0 UV-I 0 W/m -0,1 C 3,2 C 12,9 km/h (3 Bft) 100,00 %
09.12.2016 16:36 3,3 C 79 % 1032,3 hPa 0,0 l/m 6,0 km/h (2 Bft) W 263 0 min 0,000 mm 0,0 UV-I 0 W/m 0,0 C 3,3 C 12,9 km/h (3 Bft) 98,00 %
09.12.2016 16:38 3,3 C 78 % 1032,3 hPa 0,0 l/m 4,1 km/h (1 Bft) W 280 0 min 0,000 mm 0,0 UV-I 0 W/m -0,2 C 3,3 C 9,7 km/h (2 Bft) 100,00 %
09.12.2016 16:40 3,3 C 78 % 1032,3 hPa 0,0 l/m 3,9 km/h (1 Bft) W-NW 283 0 min 0,000 mm 0,0 UV-I 0 W/m -0,2 C 3,3 C 6,4 km/h (2 Bft) 98,11 %
09.12.2016 16:42 3,3 C 78 % 1032,3 hPa 0,0 l/m 3,7 km/h (1 Bft) W-NW 285 0 min 0,000 mm 0,0 UV-I 0 W/m -0,2 C 3,3 C 6,4 km/h (2 Bft) 97,56 %
09.12.2016 16:44 3,3 C 78 % 1032,3 hPa 0,0 l/m 6,7 km/h (2 Bft) W 268 0 min 0,000 mm 0,0 UV-I 0 W/m -0,2 C 3,0 C 14,5 km/h (3 Bft) 100,00 %
09.12.2016 16:46 3,3 C 78 % 1032,4 hPa 0,0 l/m 5,1 km/h (1 Bft) W 276 0 min 0,000 mm 0,0 UV-I 0 W/m -0,2 C 3,3 C 11,3 km/h (2 Bft) 95,45 %
09.12.2016 16:48 3,2 C 78 % 1032,4 hPa 0,0 l/m 4,4 km/h (1 Bft) W 279 0 min 0,000 mm 0,0 UV-I 0 W/m -0,3 C 3,2 C 8,0 km/h (2 Bft) 96,23 %
09.12.2016 16:50 3,2 C 78 % 1032,4 hPa 0,0 l/m 5,3 km/h (1 Bft) W 277 0 min 0,000 mm 0,0 UV-I 0 W/m -0,3 C 3,2 C 11,3 km/h (2 Bft) 97,62 %
09.12.2016 16:52 3,2 C 78 % 1032,4 hPa 0,0 l/m 5,0 km/h (1 Bft) W 264 0 min 0,000 mm 0,0 UV-I 0 W/m -0,3 C 3,2 C 9,7 km/h (2 Bft) 96,00 %
09.12.2016 16:54 3,1 C 78 % 1032,5 hPa 0,0 l/m 4,3 km/h (1 Bft) W 275 0 min 0,000 mm 0,0 UV-I 0 W/m -0,4 C 3,1 C 11,3 km/h (2 Bft) 97,37 %
09.12.2016 16:56 3,1 C 78 % 1032,4 hPa 0,0 l/m 3,6 km/h (1 Bft) W 271 0 min 0,000 mm 0,0 UV-I 0 W/m -0,4 C 3,1 C 4,8 km/h (1 Bft) 98,00 %
09.12.2016 16:58 2,9 C 79 % 1032,4 hPa 0,0 l/m 4,0 km/h (1 Bft) W 281 0 min 0,000 mm 0,0 UV-I 0 W/m -0,4 C 2,9 C 4,8 km/h (1 Bft) 95,74 %
09.12.2016 17:00 2,9 C 79 % 1032,4 hPa 0,0 l/m 4,5 km/h (1 Bft) W 275 0 min 0,000 mm 0,0 UV-I 0 W/m -0,4 C 2,9 C 4,8 km/h (1 Bft) 98,11 %
09.12.2016 17:02 2,8 C 79 % 1032,5 hPa 0,0 l/m 5,6 km/h (1 Bft) W 276 0 min 0,000 mm 0,0 UV-I 0 W/m -0,5 C 2,8 C 9,7 km/h (2 Bft) 95,74 %
09.12.2016 17:04 2,7 C 79 % 1032,5 hPa 0,0 l/m 4,6 km/h (1 Bft) W 273 0 min 0,000 mm 0,0 UV-I 0 W/m -0,6 C 2,7 C 6,4 km/h (2 Bft) 97,56 %
09.12.2016 17:06 2,6 C 80 % 1032,5 hPa 0,0 l/m 5,6 km/h (1 Bft) W 271 0 min 0,000 mm 0,0 UV-I 0 W/m -0,5 C 2,6 C 9,7 km/h (2 Bft) 96,00 %
09.12.2016 17:08 2,5 C 80 % 1032,5 hPa 0,0 l/m 6,3 km/h (2 Bft) W-SW 258 0 min 0,000 mm 0,0 UV-I 0 W/m -0,6 C 2,5 C 9,7 km/h (2 Bft) 98,00 %
09.12.2016 17:10 2,5 C 80 % 1032,4 hPa 0,0 l/m 5,6 km/h (1 Bft) W 277 0 min 0,000 mm 0,0 UV-I 0 W/m -0,6 C 2,5 C 6,4 km/h (2 Bft) 95,74 %
09.12.2016 17:12 2,5 C 80 % 1032,4 hPa 0,0 l/m 6,4 km/h (2 Bft) W 266 0 min 0,000 mm 0,0 UV-I 0 W/m -0,6 C 2,5 C 9,7 km/h (2 Bft) 97,14 %
09.12.2016 17:14 2,6 C 80 % 1032,4 hPa 0,0 l/m 6,2 km/h (2 Bft) W-SW 250 0 min 0,000 mm 0,0 UV-I 0 W/m -0,5 C 2,6 C 9,7 km/h (2 Bft) 96,72 %
09.12.2016 17:16 2,6 C 80 % 1032,5 hPa 0,0 l/m 4,6 km/h (1 Bft) W-SW 252 0 min 0,000 mm 0,0 UV-I 0 W/m -0,5 C 2,6 C 6,4 km/h (2 Bft) 97,87 %
09.12.2016 17:18 2,6 C 80 % 1032,5 hPa 0,0 l/m 6,6 km/h (2 Bft) W-SW 257 0 min 0,000 mm 0,0 UV-I 0 W/m -0,5 C 2,4 C 8,0 km/h (2 Bft) 97,56 %
09.12.2016 17:20 2,6 C 80 % 1032,5 hPa 0,0 l/m 5,3 km/h (1 Bft) W-SW 257 0 min 0,000 mm 0,0 UV-I 0 W/m -0,5 C 2,6 C 6,4 km/h (2 Bft) 98,11 %
09.12.2016 17:22 2,6 C 80 % 1032,6 hPa 0,0 l/m 3,7 km/h (1 Bft) SW 229 0 min 0,000 mm 0,0 UV-I 0 W/m -0,5 C 2,6 C 6,4 km/h (2 Bft) 95,74 %
09.12.2016 17:24 2,4 C 81 % 1032,6 hPa 0,0 l/m 3,7 km/h (1 Bft) SW 225 0 min 0,000 mm 0,0 UV-I 0 W/m -0,5 C 2,4 C 4,8 km/h (1 Bft) 95,74 %
09.12.2016 17:26 2,3 C 81 % 1032,6 hPa 0,0 l/m 3,1 km/h (1 Bft) SW 226 0 min 0,000 mm 0,0 UV-I 0 W/m -0,6 C 2,3 C 4,8 km/h (1 Bft) 97,37 %
09.12.2016 17:28 2,2 C 82 % 1032,6 hPa 0,0 l/m 3,3 km/h (1 Bft) SW 226 0 min 0,000 mm 0,0 UV-I 0 W/m -0,5 C 2,2 C 4,8 km/h (1 Bft) 100,00 %
09.12.2016 17:30 2,2 C 83 % 1032,6 hPa 0,0 l/m 3,1 km/h (1 Bft) SW 226 0 min 0,000 mm 0,0 UV-I 0 W/m -0,4 C 2,2 C 4,8 km/h (1 Bft) 100,00 %
09.12.2016 17:32 2,2 C 83 % 1032,6 hPa 0,0 l/m 2,7 km/h (1 Bft) SW 226 0 min 0,000 mm 0,0 UV-I 0 W/m -0,4 C 2,2 C 3,2 km/h (1 Bft) 98,00 %
09.12.2016 17:34 2,1 C 83 % 1032,6 hPa 0,0 l/m 2,5 km/h (1 Bft) SW 226 0 min 0,000 mm 0,0 UV-I 0 W/m -0,5 C 2,1 C 3,2 km/h (1 Bft) 97,73 %
09.12.2016 17:36 2,1 C 83 % 1032,6 hPa 0,0 l/m 2,6 km/h (1 Bft) SW 226 0 min 0,000 mm 0,0 UV-I 0 W/m -0,5 C 2,1 C 3,2 km/h (1 Bft) 100,00 %
09.12.2016 17:38 2,1 C 83 % 1032,5 hPa 0,0 l/m 3,6 km/h (1 Bft) SW 226 0 min 0,000 mm 0,0 UV-I 0 W/m -0,5 C 2,1 C 4,8 km/h (1 Bft) 97,87 %
09.12.2016 17:40 2,1 C 84 % 1032,6 hPa 0,0 l/m 2,8 km/h (1 Bft) SW 226 0 min 0,000 mm 0,0 UV-I 0 W/m -0,3 C 2,1 C 4,8 km/h (1 Bft) 100,00 %
09.12.2016 17:42 2,0 C 84 % 1032,5 hPa 0,0 l/m 2,9 km/h (1 Bft) SW 226 0 min 0,000 mm 0,0 UV-I 0 W/m -0,4 C 2,0 C 4,8 km/h (1 Bft) 100,00 %
09.12.2016 17:44 1,9 C 84 % 1032,6 hPa 0,0 l/m 2,7 km/h (1 Bft) SW 226 0 min 0,000 mm 0,0 UV-I 0 W/m -0,5 C 1,9 C 4,8 km/h (1 Bft) 100,00 %
09.12.2016 17:46 1,9 C 84 % 1032,6 hPa 0,0 l/m 3,1 km/h (1 Bft) SW 226 0 min 0,000 mm 0,0 UV-I 0 W/m -0,5 C 1,9 C 4,8 km/h (1 Bft) 100,00 %
09.12.2016 17:48 2,0 C 84 % 1032,6 hPa 0,0 l/m 3,9 km/h (1 Bft) SW 226 0 min 0,000 mm 0,0 UV-I 0 W/m -0,4 C 2,0 C 4,8 km/h (1 Bft) 100,00 %
09.12.2016 17:50 2,0 C 84 % 1032,6 hPa 0,0 l/m 5,2 km/h (1 Bft) SW 226 0 min 0,000 mm 0,0 UV-I 0 W/m -0,4 C 2,0 C 8,0 km/h (2 Bft) 97,87 %
09.12.2016 17:52 1,9 C 85 % 1032,7 hPa 0,0 l/m 4,0 km/h (1 Bft) SW 226 0 min 0,000 mm 0,0 UV-I 0 W/m -0,3 C 1,9 C 6,4 km/h (2 Bft) 100,00 %
09.12.2016 17:54 1,8 C 85 % 1032,6 hPa 0,0 l/m 4,5 km/h (1 Bft) SW 234 0 min 0,000 mm 0,0 UV-I 0 W/m -0,4 C 1,8 C 6,4 km/h (2 Bft) 100,00 %
09.12.2016 17:56 1,8 C 86 % 1032,7 hPa 0,0 l/m 4,1 km/h (1 Bft) SW 232 0 min 0,000 mm 0,0 UV-I 0 W/m -0,3 C 1,8 C 6,4 km/h (2 Bft) 100,00 %
09.12.2016 17:58 1,7 C 86 % 1032,7 hPa 0,0 l/m 6,4 km/h (2 Bft) SW 229 0 min 0,000 mm 0,0 UV-I 0 W/m -0,4 C 1,7 C 8,0 km/h (2 Bft) 100,00 %
09.12.2016 18:00 1,7 C 87 % 1032,7 hPa 0,0 l/m 5,2 km/h (1 Bft) W-SW 242 0 min 0,000 mm 0,0 UV-I 0 W/m -0,2 C 1,7 C 8,0 km/h (2 Bft) 100,00 %
09.12.2016 18:02 1,8 C 86 % 1032,7 hPa 0,0 l/m 4,5 km/h (1 Bft) W-SW 242 0 min 0,000 mm 0,0 UV-I 0 W/m -0,3 C 1,8 C 6,4 km/h (2 Bft) 98,00 %
09.12.2016 18:04 1,9 C 86 % 1032,7 hPa 0,0 l/m 3,7 km/h (1 Bft) W-SW 245 0 min 0,000 mm 0,0 UV-I 0 W/m -0,2 C 1,9 C 6,4 km/h (2 Bft) 97,37 %
09.12.2016 18:06 2,0 C 86 % 1032,7 hPa 0,0 l/m 4,6 km/h (1 Bft) W-SW 245 0 min 0,000 mm 0,0 UV-I 0 W/m -0,1 C 2,0 C 6,4 km/h (2 Bft) 100,00 %
09.12.2016 18:08 2,1 C 85 % 1032,7 hPa 0,0 l/m 3,0 km/h (1 Bft) W-SW 245 0 min 0,000 mm 0,0 UV-I 0 W/m -0,2 C 2,1 C 4,8 km/h (1 Bft) 100,00 %
09.12.2016 18:10 2,2 C 85 % 1032,8 hPa 0,0 l/m 4,1 km/h (1 Bft) W-SW 245 0 min 0,000 mm 0,0 UV-I 0 W/m -0,1 C 2,2 C 4,8 km/h (1 Bft) 100,00 %
09.12.2016 18:12 2,2 C 85 % 1032,7 hPa 0,0 l/m 4,7 km/h (1 Bft) W-SW 240 0 min 0,000 mm 0,0 UV-I 0 W/m -0,1 C 2,2 C 6,4 km/h (2 Bft) 100,00 %
09.12.2016 18:14 2,2 C 85 % 1032,8 hPa 0,0 l/m 6,0 km/h (2 Bft) SW 233 0 min 0,000 mm 0,0 UV-I 0 W/m -0,1 C 2,2 C 9,7 km/h (2 Bft) 100,00 %
09.12.2016 18:16 2,2 C 85 % 1032,8 hPa 0,0 l/m 7,3 km/h (2 Bft) W-SW 252 0 min 0,000 mm 0,0 UV-I 0 W/m -0,1 C 1,3 C 12,9 km/h (3 Bft) 100,00 %
09.12.2016 18:18 2,2 C 85 % 1032,8 hPa 0,0 l/m 7,1 km/h (2 Bft) W-SW 241 0 min 0,000 mm 0,0 UV-I 0 W/m -0,1 C 1,5 C 11,3 km/h (2 Bft) 100,00 %
09.12.2016 18:20 2,2 C 85 % 1032,8 hPa 0,0 l/m 7,1 km/h (2 Bft) W-SW 254 0 min 0,000 mm 0,0 UV-I 0 W/m -0,1 C 1,5 C 11,3 km/h (2 Bft) 100,00 %
09.12.2016 18:22 2,3 C 85 % 1032,7 hPa 0,0 l/m 5,0 km/h (1 Bft) W-SW 237 0 min 0,000 mm 0,0 UV-I 0 W/m 0,0 C 2,3 C 8,0 km/h (2 Bft) 100,00 %
09.12.2016 18:24 2,3 C 86 % 1032,7 hPa 0,0 l/m 6,7 km/h (2 Bft) W-SW 238 0 min 0,000 mm 0,0 UV-I 0 W/m 0,2 C 2,0 C 9,7 km/h (2 Bft) 100,00 %
09.12.2016 18:26 2,3 C 86 % 1032,7 hPa 0,0 l/m 7,3 km/h (2 Bft) SW 232 0 min 0,000 mm 0,0 UV-I 0 W/m 0,2 C 1,4 C 11,3 km/h (2 Bft) 94,34 %
09.12.2016 18:28 2,3 C 85 % 1032,7 hPa 0,0 l/m 5,6 km/h (1 Bft) SW 231 0 min 0,000 mm 0,0 UV-I 0 W/m 0,0 C 2,3 C 6,4 km/h (2 Bft) 100,00 %
09.12.2016 18:30 2,3 C 85 % 1032,8 hPa 0,0 l/m 7,5 km/h (2 Bft) SW 225 0 min 0,000 mm 0,0 UV-I 0 W/m 0,0 C 1,2 C 9,7 km/h (2 Bft) 100,00 %
09.12.2016 18:32 2,3 C 86 % 1032,8 hPa 0,0 l/m 7,1 km/h (2 Bft) SW 226 0 min 0,000 mm 0,0 UV-I 0 W/m 0,2 C 1,6 C 11,3 km/h (2 Bft) 98,11 %
09.12.2016 18:34 2,4 C 85 % 1032,8 hPa 0,0 l/m 8,0 km/h (2 Bft) SW 221 0 min 0,000 mm 0,0 UV-I 0 W/m 0,1 C 0,9 C 9,7 km/h (2 Bft) 100,00 %
09.12.2016 18:36 2,4 C 85 % 1032,9 hPa 0,0 l/m 7,6 km/h (2 Bft) W-SW 238 0 min 0,000 mm 0,0 UV-I 0 W/m 0,1 C 1,2 C 12,9 km/h (3 Bft) 100,00 %
09.12.2016 18:38 2,4 C 85 % 1032,8 hPa 0,0 l/m 8,0 km/h (2 Bft) SW 234 0 min 0,000 mm 0,0 UV-I 0 W/m 0,1 C 0,9 C 11,3 km/h (2 Bft) 100,00 %
09.12.2016 18:40 2,5 C 84 % 1032,7 hPa 0,0 l/m 8,0 km/h (2 Bft) SW 221 0 min 0,000 mm 0,0 UV-I 0 W/m 0,1 C 1,0 C 11,3 km/h (2 Bft) 100,00 %
09.12.2016 18:42 2,6 C 84 % 1032,8 hPa 0,0 l/m 6,2 km/h (2 Bft) SW 225 0 min 0,000 mm 0,0 UV-I 0 W/m 0,2 C 2,6 C 9,7 km/h (2 Bft) 100,00 %
09.12.2016 18:44 2,6 C 84 % 1032,7 hPa 0,0 l/m 6,7 km/h (2 Bft) W-SW 239 0 min 0,000 mm 0,0 UV-I 0 W/m 0,2 C 2,3 C 9,7 km/h (2 Bft) 100,00 %
09.12.2016 18:46 2,7 C 83 % 1032,8 hPa 0,0 l/m 6,6 km/h (2 Bft) SW 232 0 min 0,000 mm 0,0 UV-I 0 W/m 0,1 C 2,5 C 11,3 km/h (2 Bft) 100,00 %
09.12.2016 18:48 2,7 C 83 % 1032,7 hPa 0,0 l/m 8,7 km/h (2 Bft) SW 228 0 min 0,000 mm 0,0 UV-I 0 W/m 0,1 C 0,6 C 11,3 km/h (2 Bft) 100,00 %
09.12.2016 18:50 2,8 C 83 % 1032,7 hPa 0,0 l/m 7,5 km/h (2 Bft) W-SW 239 0 min 0,000 mm 0,0 UV-I 0 W/m 0,2 C 1,8 C 11,3 km/h (2 Bft) 100,00 %
09.12.2016 18:52 2,8 C 82 % 1032,7 hPa 0,0 l/m 6,7 km/h (2 Bft) SW 219 0 min 0,000 mm 0,0 UV-I 0 W/m 0,0 C 2,5 C 9,7 km/h (2 Bft) 100,00 %
09.12.2016 18:54 2,8 C 82 % 1032,7 hPa 0,0 l/m 6,7 km/h (2 Bft) W-SW 238 0 min 0,000 mm 0,0 UV-I 0 W/m 0,0 C 2,5 C 9,7 km/h (2 Bft) 100,00 %
09.12.2016 18:56 2,8 C 82 % 1032,7 hPa 0,0 l/m 6,4 km/h (2 Bft) SW 231 0 min 0,000 mm 0,0 UV-I 0 W/m 0,0 C 2,8 C 9,7 km/h (2 Bft) 100,00 %
09.12.2016 18:58 2,9 C 82 % 1032,7 hPa 0,0 l/m 6,3 km/h (2 Bft) SW 232 0 min 0,000 mm 0,0 UV-I 0 W/m 0,1 C 2,9 C 9,7 km/h (2 Bft) 100,00 %
09.12.2016 19:00 2,9 C 82 % 1032,7 hPa 0,0 l/m 5,7 km/h (1 Bft) SW 234 0 min 0,000 mm 0,0 UV-I 0 W/m 0,1 C 2,9 C 8,0 km/h (2 Bft) 100,00 %
09.12.2016 19:02 2,9 C 82 % 1032,7 hPa 0,0 l/m 5,4 km/h (1 Bft) W-SW 248 0 min 0,000 mm 0,0 UV-I 0 W/m 0,1 C 2,9 C 6,4 km/h (2 Bft) 98,00 %
09.12.2016 19:04 2,9 C 82 % 1032,7 hPa 0,0 l/m 6,4 km/h (2 Bft) SW 234 0 min 0,000 mm 0,0 UV-I 0 W/m 0,1 C 2,9 C 12,9 km/h (3 Bft) 100,00 %
09.12.2016 19:06 2,9 C 82 % 1032,6 hPa 0,0 l/m 7,8 km/h (2 Bft) W-SW 240 0 min 0,000 mm 0,0 UV-I 0 W/m 0,1 C 1,6 C 9,7 km/h (2 Bft) 100,00 %
09.12.2016 19:08 3,0 C 82 % 1032,6 hPa 0,0 l/m 8,1 km/h (2 Bft) W-SW 251 0 min 0,000 mm 0,0 UV-I 0 W/m 0,2 C 1,4 C 11,3 km/h (2 Bft) 97,73 %
09.12.2016 19:10 3,1 C 82 % 1032,6 hPa 0,0 l/m 8,9 km/h (2 Bft) SW 236 0 min 0,000 mm 0,0 UV-I 0 W/m 0,3 C 0,8 C 11,3 km/h (2 Bft) 100,00 %
09.12.2016 19:12 3,1 C 82 % 1032,6 hPa 0,0 l/m 9,8 km/h (2 Bft) S-SW 200 0 min 0,000 mm 0,0 UV-I 0 W/m 0,3 C 0,1 C 12,9 km/h (3 Bft) 94,74 %
09.12.2016 19:14 3,2 C 82 % 1032,6 hPa 0,0 l/m 7,9 km/h (2 Bft) SW 225 0 min 0,000 mm 0,0 UV-I 0 W/m 0,4 C 1,8 C 11,3 km/h (2 Bft) 98,11 %
09.12.2016 19:16 3,2 C 81 % 1032,5 hPa 0,0 l/m 7,4 km/h (2 Bft) W-SW 240 0 min 0,000 mm 0,0 UV-I 0 W/m 0,3 C 2,3 C 11,3 km/h (2 Bft) 97,56 %
09.12.2016 19:18 3,3 C 81 % 1032,5 hPa 0,0 l/m 8,3 km/h (2 Bft) W-SW 238 0 min 0,000 mm 0,0 UV-I 0 W/m 0,4 C 1,6 C 14,5 km/h (3 Bft) 98,00 %
09.12.2016 19:20 3,4 C 81 % 1032,5 hPa 0,0 l/m 9,5 km/h (2 Bft) SW 223 0 min 0,000 mm 0,0 UV-I 0 W/m 0,5 C 0,7 C 14,5 km/h (3 Bft) 97,73 %
09.12.2016 19:22 3,5 C 80 % 1032,4 hPa 0,0 l/m 7,9 km/h (2 Bft) S-SW 202 0 min 0,000 mm 0,0 UV-I 0 W/m 0,4 C 2,1 C 12,9 km/h (3 Bft) 98,11 %
09.12.2016 19:24 3,6 C 80 % 1032,4 hPa 0,0 l/m 9,6 km/h (2 Bft) S-SW 205 0 min 0,000 mm 0,0 UV-I 0 W/m 0,5 C 0,8 C 14,5 km/h (3 Bft) 92,00 %
09.12.2016 19:26 3,7 C 80 % 1032,3 hPa 0,0 l/m 9,1 km/h (2 Bft) SW 225 0 min 0,000 mm 0,0 UV-I 0 W/m 0,6 C 1,3 C 12,9 km/h (3 Bft) 97,56 %
09.12.2016 19:28 3,8 C 79 % 1032,3 hPa 0,0 l/m 7,6 km/h (2 Bft) SW 236 0 min 0,000 mm 0,0 UV-I 0 W/m 0,5 C 2,7 C 11,3 km/h (2 Bft) 97,44 %
09.12.2016 19:30 3,8 C 79 % 1032,3 hPa 0,0 l/m 9,2 km/h (2 Bft) SW 229 0 min 0,000 mm 0,0 UV-I 0 W/m 0,5 C 1,4 C 12,9 km/h (3 Bft) 98,36 %
09.12.2016 19:32 3,8 C 79 % 1032,3 hPa 0,0 l/m 8,3 km/h (2 Bft) SW 225 0 min 0,000 mm 0,0 UV-I 0 W/m 0,5 C 2,1 C 12,9 km/h (3 Bft) 95,12 %
09.12.2016 19:34 3,8 C 79 % 1032,3 hPa 0,0 l/m 7,8 km/h (2 Bft) SW 227 0 min 0,000 mm 0,0 UV-I 0 W/m 0,5 C 2,5 C 12,9 km/h (3 Bft) 97,56 %
09.12.2016 19:36 3,8 C 79 % 1032,3 hPa 0,0 l/m 7,9 km/h (2 Bft) SW 223 0 min 0,000 mm 0,0 UV-I 0 W/m 0,5 C 2,4 C 11,3 km/h (2 Bft) 98,04 %
09.12.2016 19:38 3,8 C 79 % 1032,4 hPa 0,0 l/m 9,1 km/h (2 Bft) SW 236 0 min 0,000 mm 0,0 UV-I 0 W/m 0,5 C 1,4 C 14,5 km/h (3 Bft) 97,87 %
09.12.2016 19:40 3,8 C 79 % 1032,4 hPa 0,0 l/m 8,8 km/h (2 Bft) SW 236 0 min 0,000 mm 0,0 UV-I 0 W/m 0,5 C 1,7 C 12,9 km/h (3 Bft) 96,23 %
09.12.2016 19:42 3,9 C 79 % 1032,4 hPa 0,0 l/m 9,1 km/h (2 Bft) W-SW 246 0 min 0,000 mm 0,0 UV-I 0 W/m 0,6 C 1,5 C 12,9 km/h (3 Bft) 100,00 %
09.12.2016 19:44 4,0 C 79 % 1032,4 hPa 0,0 l/m 8,8 km/h (2 Bft) W-SW 245 0 min 0,000 mm 0,0 UV-I 0 W/m 0,7 C 1,9 C 11,3 km/h (2 Bft) 97,73 %
09.12.2016 19:46 4,1 C 79 % 1032,4 hPa 0,0 l/m 7,8 km/h (2 Bft) W-SW 238 0 min 0,000 mm 0,0 UV-I 0 W/m 0,8 C 2,8 C 9,7 km/h (2 Bft) 96,36 %
09.12.2016 19:48 4,1 C 79 % 1032,5 hPa 0,0 l/m 6,3 km/h (2 Bft) W-SW 237 0 min 0,000 mm 0,0 UV-I 0 W/m 0,8 C 4,1 C 9,7 km/h (2 Bft) 100,00 %
09.12.2016 19:50 4,1 C 79 % 1032,4 hPa 0,0 l/m 6,4 km/h (2 Bft) SW 223 0 min 0,000 mm 0,0 UV-I 0 W/m 0,8 C 4,1 C 9,7 km/h (2 Bft) 95,74 %
09.12.2016 19:52 4,1 C 79 % 1032,5 hPa 0,0 l/m 6,5 km/h (2 Bft) SW 225 0 min 0,000 mm 0,0 UV-I 0 W/m 0,8 C 4,0 C 11,3 km/h (2 Bft) 100,00 %
09.12.2016 19:54 4,0 C 79 % 1032,5 hPa 0,0 l/m 6,8 km/h (2 Bft) SW 236 0 min 0,000 mm 0,0 UV-I 0 W/m 0,7 C 3,6 C 9,7 km/h (2 Bft) 100,00 %
09.12.2016 19:56 4,0 C 79 % 1032,5 hPa 0,0 l/m 7,4 km/h (2 Bft) SW 234 0 min 0,000 mm 0,0 UV-I 0 W/m 0,7 C 3,1 C 9,7 km/h (2 Bft) 98,21 %
09.12.2016 19:58 4,0 C 80 % 1032,5 hPa 0,0 l/m 7,2 km/h (2 Bft) SW 232 0 min 0,000 mm 0,0 UV-I 0 W/m 0,9 C 3,3 C 9,7 km/h (2 Bft) 100,00 %
09.12.2016 20:00 4,0 C 80 % 1032,4 hPa 0,0 l/m 7,6 km/h (2 Bft) SW 223 0 min 0,000 mm 0,0 UV-I 0 W/m 0,9 C 2,9 C 9,7 km/h (2 Bft) 100,00 %
09.12.2016 20:02 3,9 C 80 % 1032,4 hPa 0,0 l/m 7,6 km/h (2 Bft) SW 224 0 min 0,025 mm 0,0 UV-I 0 W/m 0,8 C 2,8 C 9,7 km/h (2 Bft) 100,00 %
09.12.2016 20:04 4,0 C 80 % 1032,4 hPa 0,0 l/m 7,4 km/h (2 Bft) SW 226 0 min 0,000 mm 0,0 UV-I 0 W/m 0,9 C 3,1 C 11,3 km/h (2 Bft) 98,00 %
09.12.2016 20:06 4,1 C 80 % 1032,4 hPa 0,0 l/m 6,2 km/h (2 Bft) SW 218 0 min 0,000 mm 0,0 UV-I 0 W/m 1,0 C 4,1 C 9,7 km/h (2 Bft) 100,00 %
09.12.2016 20:08 4,1 C 80 % 1032,4 hPa 0,0 l/m 6,0 km/h (2 Bft) S-SW 211 0 min 0,000 mm 0,0 UV-I 0 W/m 1,0 C 4,1 C 8,0 km/h (2 Bft) 98,08 %
09.12.2016 20:10 4,1 C 80 % 1032,4 hPa 0,0 l/m 5,9 km/h (2 Bft) SW 219 0 min 0,000 mm 0,0 UV-I 0 W/m 1,0 C 4,1 C 8,0 km/h (2 Bft) 95,24 %
09.12.2016 20:12 4,2 C 80 % 1032,5 hPa 0,0 l/m 6,6 km/h (2 Bft) SW 219 0 min 0,000 mm 0,0 UV-I 0 W/m 1,1 C 4,0 C 9,7 km/h (2 Bft) 100,00 %
09.12.2016 20:14 4,3 C 80 % 1032,4 hPa 0,0 l/m 7,1 km/h (2 Bft) S-SW 202 0 min 0,000 mm 0,0 UV-I 0 W/m 1,2 C 3,7 C 11,3 km/h (2 Bft) 100,00 %
09.12.2016 20:16 4,2 C 80 % 1032,5 hPa 0,0 l/m 7,7 km/h (2 Bft) S-SW 198 0 min 0,000 mm 0,0 UV-I 0 W/m 1,1 C 3,0 C 11,3 km/h (2 Bft) 98,11 %
09.12.2016 20:18 4,2 C 80 % 1032,5 hPa 0,0 l/m 6,2 km/h (2 Bft) SW 214 0 min 0,000 mm 0,0 UV-I 0 W/m 1,1 C 4,2 C 11,3 km/h (2 Bft) 100,00 %
09.12.2016 20:20 4,2 C 80 % 1032,4 hPa 0,0 l/m 4,8 km/h (1 Bft) S-SW 211 0 min 0,000 mm 0,0 UV-I 0 W/m 1,1 C 4,2 C 6,4 km/h (2 Bft) 100,00 %
09.12.2016 20:22 4,1 C 80 % 1032,4 hPa 0,0 l/m 5,9 km/h (2 Bft) S-SW 210 0 min 0,000 mm 0,0 UV-I 0 W/m 1,0 C 4,1 C 8,0 km/h (2 Bft) 100,00 %
09.12.2016 20:24 4,1 C 80 % 1032,4 hPa 0,0 l/m 7,2 km/h (2 Bft) SW 215 0 min 0,000 mm 0,0 UV-I 0 W/m 1,0 C 3,4 C 9,7 km/h (2 Bft) 100,00 %
09.12.2016 20:26 4,0 C 80 % 1032,4 hPa 0,0 l/m 7,4 km/h (2 Bft) S-SW 199 0 min 0,000 mm 0,0 UV-I 0 W/m 0,9 C 3,1 C 9,7 km/h (2 Bft) 100,00 %
09.12.2016 20:28 3,9 C 81 % 1032,3 hPa 0,0 l/m 5,6 km/h (1 Bft) S-SW 207 0 min 0,000 mm 0,0 UV-I 0 W/m 0,9 C 3,9 C 8,0 km/h (2 Bft) 100,00 %
09.12.2016 20:30 3,9 C 81 % 1032,3 hPa 0,0 l/m 4,8 km/h (1 Bft) SW 222 0 min 0,000 mm 0,0 UV-I 0 W/m 0,9 C 3,9 C 6,4 km/h (2 Bft) 100,00 %
09.12.2016 20:32 3,8 C 81 % 1032,3 hPa 0,0 l/m 5,7 km/h (1 Bft) S-SW 211 0 min 0,000 mm 0,0 UV-I 0 W/m 0,8 C 3,8 C 8,0 km/h (2 Bft) 100,00 %
09.12.2016 20:34 3,8 C 81 % 1032,3 hPa 0,0 l/m 4,8 km/h (1 Bft) S-SW 210 0 min 0,000 mm 0,0 UV-I 0 W/m 0,8 C 3,8 C 6,4 km/h (2 Bft) 100,00 %
09.12.2016 20:36 3,8 C 81 % 1032,4 hPa 0,0 l/m 3,7 km/h (1 Bft) S-SW 210 0 min 0,000 mm 0,0 UV-I 0 W/m 0,8 C 3,8 C 6,4 km/h (2 Bft) 100,00 %
09.12.2016 20:38 3,8 C 81 % 1032,4 hPa 0,0 l/m 3,8 km/h (1 Bft) SW 227 0 min 0,000 mm 0,0 UV-I 0 W/m 0,8 C 3,8 C 4,8 km/h (1 Bft) 100,00 %
09.12.2016 20:40 3,7 C 81 % 1032,4 hPa 0,0 l/m 4,6 km/h (1 Bft) W-SW 239 0 min 0,000 mm 0,0 UV-I 0 W/m 0,7 C 3,7 C 6,4 km/h (2 Bft) 98,00 %
09.12.2016 20:42 3,7 C 82 % 1032,3 hPa 0,0 l/m 4,0 km/h (1 Bft) SW 222 0 min 0,000 mm 0,0 UV-I 0 W/m 0,9 C 3,7 C 6,4 km/h (2 Bft) 100,00 %
09.12.2016 20:44 3,7 C 82 % 1032,4 hPa 0,0 l/m 4,0 km/h (1 Bft) SW 222 0 min 0,000 mm 0,0 UV-I 0 W/m 0,9 C 3,7 C 6,4 km/h (2 Bft) 100,00 %
09.12.2016 20:46 3,7 C 82 % 1032,4 hPa 0,0 l/m 4,2 km/h (1 Bft) SW 221 0 min 0,000 mm 0,0 UV-I 0 W/m 0,9 C 3,7 C 6,4 km/h (2 Bft) 100,00 %
09.12.2016 20:48 3,7 C 82 % 1032,3 hPa 0,0 l/m 2,5 km/h (1 Bft) SW 221 0 min 0,000 mm 0,0 UV-I 0 W/m 0,9 C 3,7 C 3,2 km/h (1 Bft) 100,00 %
09.12.2016 20:50 3,6 C 83 % 1032,3 hPa 0,0 l/m 3,7 km/h (1 Bft) SW 221 0 min 0,000 mm 0,0 UV-I 0 W/m 1,0 C 3,6 C 4,8 km/h (1 Bft) 100,00 %
09.12.2016 20:52 3,7 C 82 % 1032,4 hPa 0,0 l/m 2,6 km/h (1 Bft) SW 221 0 min 0,000 mm 0,0 UV-I 0 W/m 0,9 C 3,7 C 3,2 km/h (1 Bft) 98,00 %
09.12.2016 20:54 3,8 C 82 % 1032,4 hPa 0,0 l/m 3,4 km/h (1 Bft) SW 221 0 min 0,000 mm 0,0 UV-I 0 W/m 1,0 C 3,8 C 4,8 km/h (1 Bft) 98,00 %
09.12.2016 20:56 3,8 C 82 % 1032,4 hPa 0,0 l/m 2,0 km/h (1 Bft) SW 221 0 min 0,000 mm 0,0 UV-I 0 W/m 1,0 C 3,8 C 3,2 km/h (1 Bft) 100,00 %
09.12.2016 20:58 3,8 C 82 % 1032,5 hPa 0,0 l/m 1,9 km/h (1 Bft) SW 221 0 min 0,000 mm 0,0 UV-I 0 W/m 1,0 C 3,8 C 3,2 km/h (1 Bft) 98,18 %
09.12.2016 21:00 3,8 C 82 % 1032,4 hPa 0,0 l/m 3,9 km/h (1 Bft) SW 221 0 min 0,000 mm 0,0 UV-I 0 W/m 1,0 C 3,8 C 4,8 km/h (1 Bft) 100,00 %
09.12.2016 21:02 3,8 C 82 % 1032,4 hPa 0,0 l/m 3,5 km/h (1 Bft) SW 221 0 min 0,000 mm 0,0 UV-I 0 W/m 1,0 C 3,8 C 6,4 km/h (2 Bft) 100,00 %
09.12.2016 21:04 3,8 C 82 % 1032,3 hPa 0,0 l/m 3,7 km/h (1 Bft) SW 221 0 min 0,000 mm 0,0 UV-I 0 W/m 1,0 C 3,8 C 6,4 km/h (2 Bft) 96,00 %
09.12.2016 21:06 3,8 C 82 % 1032,3 hPa 0,0 l/m 5,1 km/h (1 Bft) SW 215 0 min 0,000 mm 0,0 UV-I 0 W/m 1,0 C 3,8 C 8,0 km/h (2 Bft) 100,00 %
09.12.2016 21:08 3,8 C 82 % 1032,3 hPa 0,0 l/m 5,1 km/h (1 Bft) SW 225 0 min 0,000 mm 0,0 UV-I 0 W/m 1,0 C 3,8 C 8,0 km/h (2 Bft) 97,56 %
09.12.2016 21:10 3,8 C 81 % 1032,3 hPa 0,0 l/m 4,2 km/h (1 Bft) SW 224 0 min 0,000 mm 0,0 UV-I 0 W/m 0,8 C 3,8 C 6,4 km/h (2 Bft) 100,00 %
09.12.2016 21:12 3,8 C 81 % 1032,3 hPa 0,0 l/m 4,8 km/h (1 Bft) SW 215 0 min 0,000 mm 0,0 UV-I 0 W/m 0,8 C 3,8 C 8,0 km/h (2 Bft) 100,00 %
09.12.2016 21:14 3,8 C 81 % 1032,3 hPa 0,0 l/m 3,4 km/h (1 Bft) SW 215 0 min 0,000 mm 0,0 UV-I 0 W/m 0,8 C 3,8 C 4,8 km/h (1 Bft) 100,00 %
09.12.2016 21:16 3,8 C 82 % 1032,2 hPa 0,0 l/m 3,4 km/h (1 Bft) SW 215 0 min 0,000 mm 0,0 UV-I 0 W/m 1,0 C 3,8 C 4,8 km/h (1 Bft) 100,00 %
09.12.2016 21:18 3,8 C 82 % 1032,2 hPa 0,0 l/m 3,6 km/h (1 Bft) SW 215 0 min 0,000 mm 0,0 UV-I 0 W/m 1,0 C 3,8 C 4,8 km/h (1 Bft) 100,00 %
09.12.2016 21:20 3,8 C 82 % 1032,2 hPa 0,0 l/m 3,3 km/h (1 Bft) SW 226 0 min 0,000 mm 0,0 UV-I 0 W/m 1,0 C 3,8 C 6,4 km/h (2 Bft) 100,00 %
09.12.2016 21:22 3,8 C 82 % 1032,1 hPa 0,0 l/m 4,1 km/h (1 Bft) SW 226 0 min 0,000 mm 0,0 UV-I 0 W/m 1,0 C 3,8 C 6,4 km/h (2 Bft) 100,00 %
09.12.2016 21:24 3,8 C 82 % 1032,1 hPa 0,0 l/m 3,4 km/h (1 Bft) SW 220 0 min 0,000 mm 0,0 UV-I 0 W/m 1,0 C 3,8 C 4,8 km/h (1 Bft) 98,00 %
09.12.2016 21:26 3,8 C 82 % 1032,2 hPa 0,0 l/m 3,3 km/h (1 Bft) SW 220 0 min 0,000 mm 0,0 UV-I 0 W/m 1,0 C 3,8 C 4,8 km/h (1 Bft) 96,43 %
09.12.2016 21:28 3,8 C 82 % 1032,1 hPa 0,0 l/m 3,3 km/h (1 Bft) S-SW 201 0 min 0,000 mm 0,0 UV-I 0 W/m 1,0 C 3,8 C 4,8 km/h (1 Bft) 97,44 %
09.12.2016 21:30 3,8 C 82 % 1032,1 hPa 0,0 l/m 2,1 km/h (1 Bft) S-SW 201 0 min 0,000 mm 0,0 UV-I 0 W/m 1,0 C 3,8 C 4,8 km/h (1 Bft) 98,00 %
09.12.2016 21:32 3,8 C 82 % 1032,2 hPa 0,0 l/m 1,9 km/h (1 Bft) S-SW 201 0 min 0,000 mm 0,0 UV-I 0 W/m 1,0 C 3,8 C 3,2 km/h (1 Bft) 97,73 %
09.12.2016 21:34 3,8 C 82 % 1032,2 hPa 0,0 l/m 1,9 km/h (1 Bft) S-SW 201 0 min 0,000 mm 0,0 UV-I 0 W/m 1,0 C 3,8 C 3,2 km/h (1 Bft) 98,00 %
09.12.2016 21:36 3,8 C 82 % 1032,2 hPa 0,0 l/m 1,2 km/h (1 Bft) S-SW 201 0 min 0,000 mm 0,0 UV-I 0 W/m 1,0 C 3,8 C 3,2 km/h (1 Bft) 97,87 %
09.12.2016 21:38 3,8 C 82 % 1032,3 hPa 0,0 l/m 1,4 km/h (1 Bft) S-SW 201 0 min 0,000 mm 0,0 UV-I 0 W/m 1,0 C 3,8 C 3,2 km/h (1 Bft) 96,00 %
09.12.2016 21:40 3,8 C 82 % 1032,3 hPa 0,0 l/m 0,7 km/h (0 Bft) S-SW 201 0 min 0,000 mm 0,0 UV-I 0 W/m 1,0 C 3,8 C 3,2 km/h (1 Bft) 97,87 %
09.12.2016 21:43 3,8 C 82 % 1032,3 hPa 0,0 l/m 0,0 km/h (0 Bft) S-SW 201 0 min 0,000 mm 0,0 UV-I 0 W/m 1,0 C 3,8 C 1,6 km/h (1 Bft) 97,26 %
09.12.2016 21:44 3,7 C 82 % 1032,3 hPa 0,0 l/m 1,6 km/h (1 Bft) S-SW 201 0 min 0,000 mm 0,0 UV-I 0 W/m 0,9 C 3,7 C 3,2 km/h (1 Bft) 100,00 %
09.12.2016 21:46 3,7 C 83 % 1032,2 hPa 0,0 l/m 4,4 km/h (1 Bft) S-SW 201 0 min 0,000 mm 0,0 UV-I 0 W/m 1,1 C 3,7 C 6,4 km/h (2 Bft) 94,64 %
09.12.2016 21:48 3,6 C 83 % 1032,2 hPa 0,0 l/m 4,2 km/h (1 Bft) NO 54 0 min 0,000 mm 0,0 UV-I 0 W/m 1,0 C 3,6 C 6,4 km/h (2 Bft) 97,87 %
09.12.2016 21:50 3,6 C 83 % 1032,3 hPa 0,0 l/m 3,1 km/h (1 Bft) NO 53 0 min 0,000 mm 0,0 UV-I 0 W/m 1,0 C 3,6 C 4,8 km/h (1 Bft) 97,87 %
09.12.2016 21:52 3,7 C 83 % 1032,3 hPa 0,0 l/m 3,0 km/h (1 Bft) NO 53 0 min 0,000 mm 0,0 UV-I 0 W/m 1,1 C 3,7 C 4,8 km/h (1 Bft) 97,37 %
09.12.2016 21:54 3,7 C 83 % 1032,4 hPa 0,0 l/m 2,5 km/h (1 Bft) N-NO 30 0 min 0,000 mm 0,0 UV-I 0 W/m 1,1 C 3,7 C 4,8 km/h (1 Bft) 98,21 %
09.12.2016 21:56 3,7 C 83 % 1032,4 hPa 0,0 l/m 2,5 km/h (1 Bft) N-NO 30 0 min 0,000 mm 0,0 UV-I 0 W/m 1,1 C 3,7 C 3,2 km/h (1 Bft) 97,37 %
09.12.2016 21:58 3,7 C 82 % 1032,4 hPa 0,0 l/m 1,3 km/h (1 Bft) N-NO 30 0 min 0,000 mm 0,0 UV-I 0 W/m 0,9 C 3,7 C 3,2 km/h (1 Bft) 98,00 %
09.12.2016 22:00 3,7 C 82 % 1032,4 hPa 0,0 l/m 0,2 km/h (0 Bft) N-NO 30 0 min 0,000 mm 0,0 UV-I 0 W/m 0,9 C 3,7 C 1,6 km/h (1 Bft) 98,00 %
09.12.2016 22:02 3,7 C 83 % 1032,3 hPa 0,0 l/m 1,1 km/h (1 Bft) N-NO 30 0 min 0,000 mm 0,0 UV-I 0 W/m 1,1 C 3,7 C 1,6 km/h (1 Bft) 98,00 %
09.12.2016 22:04 3,7 C 82 % 1032,3 hPa 0,0 l/m 1,0 km/h (0 Bft) N-NO 30 0 min 0,000 mm 0,0 UV-I 0 W/m 0,9 C 3,7 C 3,2 km/h (1 Bft) 97,22 %
09.12.2016 22:06 3,7 C 82 % 1032,3 hPa 0,0 l/m 0,1 km/h (0 Bft) N-NO 30 0 min 0,000 mm 0,0 UV-I 0 W/m 0,9 C 3,7 C 1,6 km/h (1 Bft) 100,00 %
09.12.2016 22:08 3,7 C 82 % 1032,3 hPa 0,0 l/m 0,0 km/h (0 Bft) N-NO 30 0 min 0,000 mm 0,0 UV-I 0 W/m 0,9 C 3,7 C 0,0 km/h (0 Bft) 100,00 %
09.12.2016 22:10 3,8 C 81 % 1032,3 hPa 0,0 l/m 0,1 km/h (0 Bft) N-NO 30 0 min 0,000 mm 0,0 UV-I 0 W/m 0,8 C 3,8 C 1,6 km/h (1 Bft) 100,00 %
09.12.2016 22:12 3,9 C 81 % 1032,3 hPa 0,0 l/m 0,1 km/h (0 Bft) N-NO 30 0 min 0,000 mm 0,0 UV-I 0 W/m 0,9 C 3,9 C 1,6 km/h (1 Bft) 100,00 %
09.12.2016 22:14 3,9 C 81 % 1032,3 hPa 0,0 l/m 0,5 km/h (0 Bft) N-NO 30 0 min 0,000 mm 0,0 UV-I 0 W/m 0,9 C 3,9 C 1,6 km/h (1 Bft) 100,00 %
09.12.2016 22:16 3,8 C 81 % 1032,2 hPa 0,0 l/m 2,6 km/h (1 Bft) O-SO 107 0 min 0,000 mm 0,0 UV-I 0 W/m 0,8 C 3,8 C 4,8 km/h (1 Bft) 100,00 %
09.12.2016 22:18 3,8 C 81 % 1032,1 hPa 0,0 l/m 1,2 km/h (1 Bft) O-SO 107 0 min 0,000 mm 0,0 UV-I 0 W/m 0,8 C 3,8 C 3,2 km/h (1 Bft) 100,00 %
09.12.2016 22:20 3,8 C 82 % 1032,1 hPa 0,0 l/m 1,5 km/h (1 Bft) O-SO 119 0 min 0,000 mm 0,0 UV-I 0 W/m 1,0 C 3,8 C 3,2 km/h (1 Bft) 100,00 %
09.12.2016 22:22 3,8 C 82 % 1032,0 hPa 0,0 l/m 1,4 km/h (1 Bft) SO 136 0 min 0,000 mm 0,0 UV-I 0 W/m 1,0 C 3,8 C 3,2 km/h (1 Bft) 100,00 %
09.12.2016 22:24 3,8 C 82 % 1031,9 hPa 0,0 l/m 1,6 km/h (1 Bft) SO 144 0 min 0,000 mm 0,0 UV-I 0 W/m 1,0 C 3,8 C 3,2 km/h (1 Bft) 98,00 %
09.12.2016 22:26 3,8 C 82 % 1031,9 hPa 0,0 l/m 2,9 km/h (1 Bft) S 178 0 min 0,000 mm 0,0 UV-I 0 W/m 1,0 C 3,8 C 6,4 km/h (2 Bft) 100,00 %
09.12.2016 22:28 3,8 C 82 % 1031,8 hPa 0,0 l/m 2,2 km/h (1 Bft) S 175 0 min 0,000 mm 0,0 UV-I 0 W/m 1,0 C 3,8 C 4,8 km/h (1 Bft) 100,00 %
09.12.2016 22:30 3,7 C 83 % 1031,8 hPa 0,0 l/m 0,5 km/h (0 Bft) S 175 0 min 0,000 mm 0,0 UV-I 0 W/m 1,1 C 3,7 C 1,6 km/h (1 Bft) 97,87 %
09.12.2016 22:32 3,7 C 83 % 1031,8 hPa 0,0 l/m 1,2 km/h (1 Bft) S 175 0 min 0,000 mm 0,0 UV-I 0 W/m 1,1 C 3,7 C 3,2 km/h (1 Bft) 100,00 %
09.12.2016 22:34 3,7 C 83 % 1031,8 hPa 0,0 l/m 1,8 km/h (1 Bft) S 170 0 min 0,000 mm 0,0 UV-I 0 W/m 1,1 C 3,7 C 3,2 km/h (1 Bft) 100,00 %
09.12.2016 22:36 3,7 C 82 % 1031,8 hPa 0,0 l/m 1,1 km/h (1 Bft) S 171 0 min 0,000 mm 0,0 UV-I 0 W/m 0,9 C 3,7 C 3,2 km/h (1 Bft) 100,00 %
09.12.2016 22:38 3,7 C 83 % 1031,8 hPa 0,0 l/m 0,4 km/h (0 Bft) S 170 0 min 0,000 mm 0,0 UV-I 0 W/m 1,1 C 3,7 C 1,6 km/h (1 Bft) 100,00 %
09.12.2016 22:40 3,7 C 83 % 1031,8 hPa 0,0 l/m 0,5 km/h (0 Bft) S 170 0 min 0,000 mm 0,0 UV-I 0 W/m 1,1 C 3,7 C 1,6 km/h (1 Bft) 100,00 %
09.12.2016 22:42 3,7 C 82 % 1031,8 hPa 0,0 l/m 1,2 km/h (1 Bft) S 170 0 min 0,000 mm 0,0 UV-I 0 W/m 0,9 C 3,7 C 3,2 km/h (1 Bft) 100,00 %
09.12.2016 22:44 3,7 C 82 % 1031,8 hPa 0,0 l/m 1,1 km/h (1 Bft) S 171 0 min 0,000 mm 0,0 UV-I 0 W/m 0,9 C 3,7 C 3,2 km/h (1 Bft) 100,00 %
09.12.2016 22:46 3,7 C 83 % 1031,8 hPa 0,0 l/m 2,2 km/h (1 Bft) S 171 0 min 0,000 mm 0,0 UV-I 0 W/m 1,1 C 3,7 C 3,2 km/h (1 Bft) 100,00 %
09.12.2016 22:48 3,6 C 84 % 1031,7 hPa 0,0 l/m 3,1 km/h (1 Bft) S 170 0 min 0,000 mm 0,0 UV-I 0 W/m 1,2 C 3,6 C 6,4 km/h (2 Bft) 100,00 %
09.12.2016 22:50 3,4 C 85 % 1031,6 hPa 0,0 l/m 1,6 km/h (1 Bft) S 171 0 min 0,000 mm 0,0 UV-I 0 W/m 1,1 C 3,4 C 3,2 km/h (1 Bft) 96,36 %
09.12.2016 22:52 3,3 C 85 % 1031,6 hPa 0,0 l/m 1,9 km/h (1 Bft) S 170 0 min 0,000 mm 0,0 UV-I 0 W/m 1,0 C 3,3 C 3,2 km/h (1 Bft) 97,44 %
09.12.2016 22:54 3,2 C 85 % 1031,6 hPa 0,0 l/m 2,3 km/h (1 Bft) S 171 0 min 0,000 mm 0,0 UV-I 0 W/m 0,9 C 3,2 C 3,2 km/h (1 Bft) 100,00 %
09.12.2016 22:56 3,1 C 86 % 1031,6 hPa 0,0 l/m 1,3 km/h (1 Bft) S 170 0 min 0,000 mm 0,0 UV-I 0 W/m 1,0 C 3,1 C 3,2 km/h (1 Bft) 100,00 %
09.12.2016 22:58 3,1 C 86 % 1031,5 hPa 0,0 l/m 1,8 km/h (1 Bft) S 170 0 min 0,000 mm 0,0 UV-I 0 W/m 1,0 C 3,1 C 3,2 km/h (1 Bft) 100,00 %
09.12.2016 23:00 3,1 C 87 % 1031,5 hPa 0,0 l/m 1,7 km/h (1 Bft) S 170 0 min 0,000 mm 0,0 UV-I 0 W/m 1,2 C 3,1 C 3,2 km/h (1 Bft) 100,00 %
09.12.2016 23:02 3,1 C 87 % 1031,5 hPa 0,0 l/m 3,3 km/h (1 Bft) S 171 0 min 0,000 mm 0,0 UV-I 0 W/m 1,2 C 3,1 C 6,4 km/h (2 Bft) 100,00 %
09.12.2016 23:04 3,1 C 86 % 1031,4 hPa 0,0 l/m 2,3 km/h (1 Bft) S 171 0 min 0,000 mm 0,0 UV-I 0 W/m 1,0 C 3,1 C 3,2 km/h (1 Bft) 97,87 %
09.12.2016 23:06 3,2 C 86 % 1031,4 hPa 0,0 l/m 3,5 km/h (1 Bft) S 171 0 min 0,000 mm 0,0 UV-I 0 W/m 1,1 C 3,2 C 6,4 km/h (2 Bft) 97,56 %
09.12.2016 23:08 3,2 C 86 % 1031,4 hPa 0,0 l/m 2,3 km/h (1 Bft) S 171 0 min 0,000 mm 0,0 UV-I 0 W/m 1,1 C 3,2 C 3,2 km/h (1 Bft) 100,00 %
09.12.2016 23:10 3,3 C 85 % 1031,4 hPa 0,0 l/m 3,0 km/h (1 Bft) S 172 0 min 0,000 mm 0,0 UV-I 0 W/m 1,0 C 3,3 C 6,4 km/h (2 Bft) 100,00 %
09.12.2016 23:12 3,2 C 85 % 1031,4 hPa 0,0 l/m 3,6 km/h (1 Bft) S 172 0 min 0,000 mm 0,0 UV-I 0 W/m 0,9 C 3,2 C 4,8 km/h (1 Bft) 97,73 %
09.12.2016 23:14 3,2 C 86 % 1031,4 hPa 0,0 l/m 2,9 km/h (1 Bft) S 172 0 min 0,000 mm 0,0 UV-I 0 W/m 1,1 C 3,2 C 4,8 km/h (1 Bft) 96,00 %
09.12.2016 23:16 3,2 C 86 % 1031,4 hPa 0,0 l/m 2,1 km/h (1 Bft) S 173 0 min 0,000 mm 0,0 UV-I 0 W/m 1,1 C 3,2 C 4,8 km/h (1 Bft) 100,00 %
09.12.2016 23:18 3,2 C 86 % 1031,4 hPa 0,0 l/m 2,5 km/h (1 Bft) S 172 0 min 0,000 mm 0,0 UV-I 0 W/m 1,1 C 3,2 C 3,2 km/h (1 Bft) 100,00 %
09.12.2016 23:20 3,2 C 86 % 1031,4 hPa 0,0 l/m 3,3 km/h (1 Bft) S 172 0 min 0,000 mm 0,0 UV-I 0 W/m 1,1 C 3,2 C 4,8 km/h (1 Bft) 100,00 %
09.12.2016 23:22 3,2 C 86 % 1031,3 hPa 0,0 l/m 1,9 km/h (1 Bft) S 172 0 min 0,000 mm 0,0 UV-I 0 W/m 1,1 C 3,2 C 4,8 km/h (1 Bft) 98,00 %
09.12.2016 23:24 3,2 C 86 % 1031,2 hPa 0,0 l/m 1,6 km/h (1 Bft) S 172 0 min 0,000 mm 0,0 UV-I 0 W/m 1,1 C 3,2 C 3,2 km/h (1 Bft) 100,00 %
09.12.2016 23:26 3,3 C 85 % 1031,2 hPa 0,0 l/m 1,9 km/h (1 Bft) S 172 0 min 0,000 mm 0,0 UV-I 0 W/m 1,0 C 3,3 C 3,2 km/h (1 Bft) 100,00 %
09.12.2016 23:28 3,3 C 85 % 1031,2 hPa 0,0 l/m 1,7 km/h (1 Bft) S 172 0 min 0,000 mm 0,0 UV-I 0 W/m 1,0 C 3,3 C 3,2 km/h (1 Bft) 97,87 %
09.12.2016 23:30 3,3 C 85 % 1031,2 hPa 0,0 l/m 0,7 km/h (0 Bft) S 172 0 min 0,000 mm 0,0 UV-I 0 W/m 1,0 C 3,3 C 1,6 km/h (1 Bft) 100,00 %
09.12.2016 23:32 3,4 C 85 % 1031,2 hPa 0,0 l/m 0,8 km/h (0 Bft) S 172 0 min 0,000 mm 0,0 UV-I 0 W/m 1,1 C 3,4 C 1,6 km/h (1 Bft) 100,00 %
09.12.2016 23:34 3,4 C 85 % 1031,2 hPa 0,0 l/m 1,0 km/h (0 Bft) S 173 0 min 0,000 mm 0,0 UV-I 0 W/m 1,1 C 3,4 C 4,8 km/h (1 Bft) 97,37 %
09.12.2016 23:36 3,4 C 85 % 1031,2 hPa 0,0 l/m 0,9 km/h (0 Bft) S 172 0 min 0,000 mm 0,0 UV-I 0 W/m 1,1 C 3,4 C 3,2 km/h (1 Bft) 98,00 %
09.12.2016 23:38 3,4 C 85 % 1031,2 hPa 0,0 l/m 1,6 km/h (1 Bft) S 172 0 min 0,000 mm 0,0 UV-I 0 W/m 1,1 C 3,4 C 3,2 km/h (1 Bft) 98,11 %
09.12.2016 23:40 3,4 C 85 % 1031,2 hPa 0,0 l/m 2,7 km/h (1 Bft) S 172 0 min 0,000 mm 0,0 UV-I 0 W/m 1,1 C 3,4 C 4,8 km/h (1 Bft) 97,37 %
09.12.2016 23:42 3,3 C 85 % 1031,1 hPa 0,0 l/m 1,8 km/h (1 Bft) S 172 0 min 0,000 mm 0,0 UV-I 0 W/m 1,0 C 3,3 C 3,2 km/h (1 Bft) 97,87 %
09.12.2016 23:44 3,3 C 85 % 1031,1 hPa 0,0 l/m 2,2 km/h (1 Bft) S 172 0 min 0,000 mm 0,0 UV-I 0 W/m 1,0 C 3,3 C 3,2 km/h (1 Bft) 96,23 %
09.12.2016 23:46 3,3 C 85 % 1031,1 hPa 0,0 l/m 2,1 km/h (1 Bft) S 172 0 min 0,000 mm 0,0 UV-I 0 W/m 1,0 C 3,3 C 3,2 km/h (1 Bft) 97,56 %
09.12.2016 23:48 3,3 C 85 % 1031,1 hPa 0,0 l/m 1,4 km/h (1 Bft) S 172 0 min 0,000 mm 0,0 UV-I 0 W/m 1,0 C 3,3 C 3,2 km/h (1 Bft) 98,00 %
09.12.2016 23:50 3,3 C 86 % 1031,1 hPa 0,0 l/m 1,1 km/h (1 Bft) S 172 0 min 0,000 mm 0,0 UV-I 0 W/m 1,2 C 3,3 C 3,2 km/h (1 Bft) 95,12 %
09.12.2016 23:52 3,2 C 86 % 1031,0 hPa 0,0 l/m 0,0 km/h (0 Bft) S 172 0 min 0,000 mm 0,0 UV-I 0 W/m 1,1 C 3,2 C 0,0 km/h (0 Bft) 98,00 %
09.12.2016 23:54 3,1 C 86 % 1031,0 hPa 0,0 l/m 1,3 km/h (1 Bft) S 172 0 min 0,000 mm 0,0 UV-I 0 W/m 1,0 C 3,1 C 3,2 km/h (1 Bft) 97,87 %
09.12.2016 23:56 3,1 C 87 % 1031,0 hPa 0,0 l/m 0,6 km/h (0 Bft) S 172 0 min 0,000 mm 0,0 UV-I 0 W/m 1,2 C 3,1 C 1,6 km/h (1 Bft) 94,34 %
09.12.2016 23:58 3,1 C 87 % 1031,0 hPa 0,0 l/m 0,2 km/h (0 Bft) S 172 0 min 0,000 mm 0,0 UV-I 0 W/m 1,2 C 3,1 C 1,6 km/h (1 Bft) 97,37 %
_ Min-Zeit 06:52 15:14 23:52 - 00:04 - - - - - - 06:54 04:26 00:04 19:24
Minimum _ -4,3 C 73 % 1031,0 hPa - 0,0 km/h (0 Bft) - - - - - - -4,7 C -4,7 C 0,0 km/h (0 Bft) 92,00 %
_ Max-Zeit 13:50 10:18 10:28 00:00 19:12 - - 10:03 12:00 11:22 12:32 12:34 13:50 14:20 00:00
Maximum _ 5,5 C 99 % 1033,7 hPa 0,0 l/m 9,8 km/h
S-SW (2 Bft)
- - 3 min 0,102 mm 0,7 UV-I 406 W/m 2,6 C 5,5 C 14,5 km/h
W-SW (3 Bft)
100,00 %
Durchschnitt _ 0,9 C 89 % 1032,5 hPa #0,0 l/m 2,8 km/h (1 Bft) SW - #7:42 h #0,584 mm 0,6 UV-I 185 W/m -0,8 C 0,8 C 5,1 km/h (1 Bft) 98,74 %